[[{"header":{"parameterUnit":"m.s-1","parameterCategory":1,"la1":30.6,"la2":28.766,"lo1":-90.7593,"lo2":-88.6598,"dy":0.0162,"dx":0.0183,"nx":116,"ny":114,"refTime":"2023-03-01T06:00:00:Z","depth":0,"parameterNumber":2,"parameterNumberName":"U-component_of_WINDS"},"data":[0.0,0.0,0.0,0.0,0.0,0.0,0.0,0.0,0.0,0.0,0.0,0.0,0.0,0.0,0.0,0.0,0.0,0.0,0.0,0.0,0.0,0.0,0.0,0.0,0.0,0.0,0.0,0.0,0.0,0.0,0.0,0.0,0.0,0.0,0.0,0.0,0.0,0.0,0.0,0.0,0.0,0.0,0.0,0.0,0.0,0.0,0.0,0.0,0.0,0.0,0.0,0.0,0.0,0.0,0.0,0.0,0.0,0.0,0.0,0.0,0.0,0.0,0.0,0.0,0.0,0.0,0.0,0.0,0.0,0.0,0.0,0.0,0.0,0.0,0.0,0.0,0.0,0.0,0.0,0.0,0.0,0.0,0.0,0.0,0.0,0.0,0.0,0.0,0.0,0.0,0.0,0.0,0.0,0.0,0.0,0.0,0.0,0.0,0.0,0.0,0.0,0.0,0.0,0.0,0.0,0.0,0.0,0.0,0.0,0.0,0.0,0.0,0.0,0.0,0.0,0.0,0.0,0.0,0.0,0.0,0.0,0.0,0.0,0.0,0.0,0.0,0.0,0.0,0.0,0.0,0.0,0.0,0.0,0.0,0.0,0.0,0.0,0.0,0.0,0.0,0.0,0.0,0.0,0.0,0.0,0.0,0.0,0.0,0.0,0.0,0.0,0.0,0.0,0.0,0.0,0.0,0.0,0.0,0.0,0.0,0.0,0.0,0.0,0.0,0.0,0.0,0.0,0.0,0.0,0.0,0.0,0.0,0.0,0.0,0.0,0.0,0.0,0.0,0.0,0.0,0.0,0.0,0.0,0.0,0.0,0.0,0.0,0.0,0.0,0.0,0.0,0.0,0.0,0.0,0.0,0.0,0.0,0.0,0.0,0.0,0.0,0.0,0.0,0.0,0.0,0.0,0.0,0.0,0.0,0.0,0.0,0.0,0.0,0.0,0.0,0.0,0.0,0.0,0.0,0.0,0.0,0.0,0.0,0.0,0.0,0.0,0.0,0.0,0.0,0.0,0.0,0.0,0.0,0.0,0.0,0.0,0.0,0.0,0.0,0.0,0.0,0.0,0.0,0.0,0.0,0.0,0.0,0.0,0.0,0.0,0.0,0.0,0.0,0.0,0.0,0.0,0.0,0.0,0.0,0.0,0.0,0.0,0.0,0.0,0.0,0.0,0.0,0.0,0.0,0.0,0.0,0.0,0.0,0.0,0.0,0.0,0.0,0.0,0.0,0.0,0.0,0.0,0.0,0.0,0.0,0.0,0.0,0.0,0.0,0.0,0.0,0.0,0.0,0.0,0.0,0.0,0.0,0.0,0.0,0.0,0.0,0.0,0.0,0.0,0.0,0.0,0.0,0.0,0.0,0.0,0.0,0.0,0.0,0.0,0.0,0.0,0.0,0.0,0.0,0.0,0.0,0.0,0.0,0.0,0.0,0.0,0.0,0.0,0.0,0.0,0.0,0.0,0.0,0.0,0.0,0.0,0.0,0.0,0.0,0.0,0.0,0.0,0.0,0.0,0.0,0.0,0.0,0.0,0.0,0.0,0.0,0.0,0.0,0.0,0.0,0.0,0.0,0.0,0.0,0.0,0.0,0.0,0.0,0.0,0.0,0.0,0.0,0.0,0.0,0.0,0.0,0.0,0.0,0.0,0.0,0.0,0.0,0.0,0.0,0.0,0.0,0.0,0.0,0.0,0.0,0.0,0.0,0.0,0.0,0.0,0.0,0.0,0.0,0.0,0.0,0.0,0.0,0.0,0.0,0.0,0.0,0.0,0.0,0.0,0.0,0.0,0.0,0.0,0.0,0.0,0.0,0.0,0.0,0.0,0.0,0.0,0.0,0.0,0.0,0.0,0.0,0.0,0.0,0.0,0.0,0.0,0.0,0.0,0.0,0.0,0.0,0.0,0.0,0.0,0.0,0.0,0.0,0.0,0.0,0.0,0.0,0.0,0.0,0.0,0.0,0.0,0.0,0.0,0.0,0.0,0.0,0.0,0.0,0.0,0.0,0.0,0.0,0.0,0.0,0.0,0.0,0.0,0.0,0.0,0.0,0.0,0.0,0.0,0.0,0.0,0.0,0.0,0.0,0.0,0.0,0.0,0.0,0.0,0.0,0.0,0.0,0.0,0.0,0.0,0.0,0.0,0.0,0.0,0.0,0.0,0.0,0.0,0.0,0.0,0.0,0.0,0.0,0.0,0.0,0.0,0.0,0.0,0.0,0.0,0.0,0.0,0.0,0.0,0.0,0.0,0.0,0.0,0.0,0.0,0.0,0.0,0.0,0.0,0.0,0.0,0.0,0.0,0.0,0.0,0.0,0.0,0.0,0.0,0.0,0.0,0.0,0.0,0.0,0.0,0.0,0.0,0.0,0.0,0.0,0.0,0.0,0.0,0.0,0.0,0.0,0.0,0.0,0.0,0.0,0.0,0.0,0.0,0.0,0.0,0.0,0.0,0.0,0.0,0.0,0.0,0.0,0.0,0.0,0.0,0.0,0.0,0.0,0.0,0.0,0.0,0.0,0.0,0.0,0.0,0.0,0.0,0.0,0.0,0.0,0.0,0.0,0.0,0.0,0.0,0.0,0.0,0.0,0.0,0.0,0.0,0.0,0.0,0.0,0.0,0.0,0.0,0.0,0.0,0.0,0.0,0.0,0.0,0.0,0.0,0.0,0.0,0.0,0.0,0.0,0.0,0.0,0.0,0.0,0.0,0.0,0.0,0.0,0.0,0.0,0.0,0.0,0.0,0.0,0.0,0.0,0.0,0.0,0.0,0.0,0.0,0.0,0.0,0.0,0.0,0.0,0.0,0.0,0.0,0.0,0.0,0.0,0.0,0.0,0.0,0.0,0.0,0.0,0.0,0.0,0.0,0.0,0.0,0.0,0.0,0.0,0.0,0.0,0.0,0.0,0.0,0.0,0.0,0.0,0.0,0.0,0.0,0.0,0.0,0.0,0.0,0.0,0.0,0.0,0.0,0.0,0.0,0.0,0.0,0.0,0.0,0.0,0.0,0.0,0.0,0.0,0.0,0.0,0.0,0.0,0.0,0.0,0.0,0.0,0.0,0.0,0.0,0.0,0.0,0.0,0.0,0.0,0.0,0.0,0.0,0.0,0.0,0.0,0.0,0.0,0.0,0.0,0.0,0.0,0.0,0.0,0.0,0.0,0.0,0.0,0.0,0.0,0.0,0.0,0.0,0.0,0.0,0.0,0.0,0.0,0.0,0.0,0.0,0.0,0.0,0.0,0.0,0.0,0.0,0.0,0.0,0.0,0.0,0.0,0.0,0.0,0.0,0.0,0.0,0.0,0.0,0.0,0.0,0.0,0.0,0.0,0.0,0.0,0.0,0.0,0.0,0.0,0.0,0.0,0.0,0.0,0.0,0.0,0.0,0.0,0.0,0.0,0.0,0.0,0.0,0.0,0.0,0.0,0.0,0.0,0.0,0.0,0.0,0.0,0.0,0.0,0.0,0.0,0.0,0.0,0.0,0.0,0.0,0.0,0.0,0.0,0.0,0.0,0.0,0.0,0.0,0.0,0.0,0.0,0.0,0.0,0.0,0.0,0.0,0.0,0.0,0.0,0.0,0.0,0.0,0.0,0.0,0.0,0.0,0.0,0.0,0.0,0.0,0.0,0.0,0.0,0.0,0.0,0.0,0.0,0.0,0.0,0.0,0.0,0.0,0.0,0.0,0.0,0.0,0.0,0.0,0.0,0.0,0.0,0.0,0.0,0.0,0.0,0.0,0.0,0.0,0.0,0.0,0.0,0.0,0.0,0.0,0.0,0.0,0.0,0.0,0.0,0.0,0.0,0.0,0.0,0.0,0.0,0.0,0.0,0.0,0.0,0.0,0.0,0.0,0.0,0.0,0.0,0.0,0.0,0.0,0.0,0.0,0.0,0.0,0.0,0.0,0.0,0.0,0.0,0.0,0.0,0.0,0.0,0.0,0.0,0.0,0.0,0.0,0.0,0.0,0.0,0.0,0.0,0.0,0.0,0.0,0.0,0.0,0.0,0.0,0.0,0.0,0.0,0.0,0.0,0.0,0.0,0.0,0.0,0.0,0.0,0.0,0.0,0.0,0.0,0.0,0.0,0.0,0.0,0.0,0.0,0.0,0.0,0.0,0.0,0.0,0.0,0.0,0.0,0.0,0.0,0.0,0.0,0.0,0.0,0.0,0.0,0.0,0.0,0.0,0.0,0.0,0.0,0.0,0.0,0.0,0.0,0.0,0.0,0.0,0.0,0.0,0.0,0.0,0.0,0.0,0.0,0.0,0.0,0.0,0.0,0.0,0.0,0.0,0.0,0.0,0.0,0.0,0.0,0.0,0.0,0.0,0.0,0.0,0.0,0.0,0.0,0.0,0.0,0.0,0.0,0.0,0.0,0.0,0.0,0.0,0.0,0.0,0.0,0.0,0.0,0.0,0.0,0.0,0.0,0.0,0.0,0.0,0.0,0.0,0.0,0.0,0.0,0.0,0.0,0.0,0.0,0.0,0.0,0.0,0.0,0.0,0.0,0.0,0.0,0.0,0.0,0.0,0.0,0.0,0.0,0.0,0.0,0.0,0.0,0.0,0.0,0.0,0.0,0.0,0.0,0.0,0.0,0.0,0.0,0.0,0.0,0.0,0.0,0.0,0.0,0.0,0.0,0.0,0.0,0.0,0.0,0.0,0.0,0.0,0.0,0.0,0.0,0.0,0.0,0.0,0.0,0.0,0.0,0.0,0.0,0.0,0.0,0.0,0.0,0.0,0.0,0.0,0.0,0.0,0.0,0.0,0.0,0.0,0.0,0.0,0.0,0.0,0.0,0.0,0.0,0.0,0.0,0.0,0.0,0.0,0.0,0.0,0.0,0.0,0.0,0.0,0.0,0.0,0.0,0.0,0.0,0.0,0.0,0.0,0.0,0.0,0.0,0.0,0.0,0.0,0.0,0.0,0.0,0.0,0.0,0.0,0.0,0.0,0.0,0.0,0.0,0.0,0.0,0.0,0.0,0.0,0.0,0.0,0.0,0.0,0.0,0.0,0.0,0.0,0.0,0.0,0.0,0.0,0.0,0.0,0.0,0.0,0.0,0.0,0.0,0.0,0.0,0.0,0.0,0.0,0.0,0.0,0.0,0.0,0.0,0.0,0.0,0.0,0.0,0.0,0.0,0.0,0.0,0.0,0.0,0.0,0.0,0.0,0.0,0.0,0.0,0.0,0.0,0.0,0.0,0.0,0.0,0.0,0.0,0.0,0.0,0.0,0.0,0.0,0.0,0.0,0.0,0.0,0.0,0.0,0.0,0.0,0.0,0.0,0.0,0.0,0.0,0.0,0.0,0.0,0.0,0.0,0.0,0.0,0.0,0.0,0.0,0.0,0.0,0.0,0.0,0.0,0.0,0.0,0.0,0.0,0.0,0.0,0.0,0.0,0.0,0.0,0.0,0.0,0.0,0.0,0.0,0.0,0.0,0.0,0.0,0.0,0.0,0.0,0.0,0.0,0.0,0.0,0.0,0.0,0.0,0.0,0.0,0.0,0.0,0.0,0.0,0.0,0.0,0.0,0.0,0.0,0.0,0.0,0.0,0.0,0.0,0.0,0.0,0.0,0.0,0.0,0.0,0.0,0.0,0.0,0.0,0.0,0.0,0.0,0.0,0.0,0.0,0.0,0.0,0.0,0.0,0.0,0.0,0.0,0.0,0.0,0.0,0.0,0.0,0.0,0.0,0.0,0.0,0.0,0.0,0.0,0.0,0.0,0.0,0.0,0.0,0.0,0.0,0.0,0.0,0.0,0.0,0.0,0.0,0.0,0.0,0.0,0.0,0.0,0.0,0.0,0.0,0.0,0.0,0.0,0.0,0.0,0.0,0.0,0.0,0.0,0.0,0.0,0.0,0.0,0.0,0.0,0.0,0.0,0.0,0.0,0.0,0.0,0.0,0.0,0.0,0.0,0.0,0.0,0.0,0.0,0.0,0.0,0.0,0.0,0.0,0.0,0.0,0.0,0.0,0.0,0.0,0.0,0.0,0.0,0.0,0.0,0.0,0.0,0.0,0.0,0.0,0.0,0.0,0.0,0.0,0.0,0.0,0.0,0.0,0.0,0.0,0.0,-5.2731,0.0,0.0,0.0,0.0,0.0,0.0,0.0,0.0,0.0,0.0,0.0,0.0,0.0,0.0,0.0,0.0,0.0,0.0,0.0,0.0,0.0,0.0,0.0,0.0,0.0,0.0,0.0,0.0,0.0,0.0,0.0,0.0,0.0,0.0,0.0,0.0,0.0,0.0,0.0,0.0,0.0,0.0,0.0,0.0,0.0,0.0,0.0,0.0,0.0,0.0,0.0,0.0,0.0,0.0,0.0,0.0,0.0,0.0,0.0,0.0,0.0,0.0,0.0,0.0,0.0,0.0,0.0,0.0,0.0,0.0,0.0,0.0,0.0,0.0,0.0,0.0,0.0,0.0,0.0,0.0,0.0,0.0,0.0,0.0,0.0,0.0,0.0,0.0,0.0,0.0,0.0,0.0,0.0,0.0,0.0,0.0,0.0,0.0,0.0,0.0,0.0,0.0,0.0,0.0,0.0,0.0,0.0,0.0,0.0,0.0,0.0,0.0,0.0,0.0,0.0,0.0,-5.192,0.0,0.0,0.0,0.0,0.0,0.0,0.0,0.0,0.0,0.0,0.0,0.0,0.0,0.0,0.0,0.0,0.0,0.0,0.0,0.0,0.0,0.0,0.0,0.0,0.0,0.0,0.0,0.0,0.0,0.0,0.0,0.0,0.0,0.0,0.0,0.0,0.0,0.0,0.0,0.0,0.0,0.0,0.0,0.0,0.0,0.0,0.0,0.0,0.0,0.0,0.0,0.0,0.0,0.0,0.0,0.0,0.0,0.0,0.0,0.0,0.0,0.0,0.0,0.0,0.0,0.0,0.0,0.0,0.0,0.0,0.0,0.0,0.0,0.0,0.0,0.0,0.0,0.0,0.0,0.0,0.0,0.0,0.0,0.0,0.0,0.0,0.0,0.0,0.0,0.0,0.0,0.0,0.0,0.0,0.0,0.0,0.0,0.0,0.0,0.0,0.0,0.0,0.0,0.0,0.0,0.0,0.0,0.0,-5.3568,-5.401,-5.4703,-5.4549,-5.4491,-5.4385,-5.2479,-5.1358,-5.0932,-5.1046,0.0,0.0,0.0,0.0,0.0,0.0,0.0,0.0,0.0,0.0,0.0,0.0,0.0,0.0,0.0,0.0,0.0,0.0,0.0,0.0,0.0,0.0,0.0,0.0,0.0,0.0,0.0,0.0,0.0,0.0,0.0,0.0,0.0,0.0,0.0,0.0,0.0,0.0,0.0,0.0,0.0,0.0,0.0,0.0,0.0,0.0,0.0,0.0,0.0,0.0,0.0,0.0,0.0,0.0,0.0,0.0,0.0,0.0,0.0,0.0,0.0,0.0,0.0,0.0,0.0,0.0,0.0,0.0,0.0,0.0,0.0,0.0,0.0,0.0,0.0,0.0,0.0,0.0,0.0,0.0,0.0,0.0,0.0,0.0,0.0,0.0,-5.6571,-5.5784,0.0,0.0,0.0,0.0,0.0,0.0,0.0,0.0,0.0,0.0,0.0,0.0,0.0,-5.362,-5.4318,-5.4337,-5.4337,-5.4337,-5.503,-5.5434,-5.5511,-5.4818,-5.4491,-5.4434,-5.3392,0.0,-5.1664,-5.0665,0.0,0.0,0.0,0.0,0.0,0.0,0.0,0.0,0.0,0.0,0.0,0.0,0.0,0.0,0.0,0.0,0.0,0.0,0.0,0.0,0.0,0.0,0.0,0.0,0.0,0.0,0.0,0.0,0.0,0.0,0.0,0.0,0.0,0.0,0.0,0.0,0.0,0.0,0.0,0.0,0.0,0.0,0.0,0.0,0.0,0.0,0.0,0.0,0.0,0.0,0.0,0.0,0.0,0.0,0.0,0.0,0.0,0.0,0.0,0.0,0.0,0.0,0.0,0.0,0.0,0.0,0.0,0.0,0.0,0.0,0.0,0.0,0.0,0.0,0.0,0.0,0.0,0.0,0.0,0.0,0.0,0.0,0.0,0.0,0.0,-5.5217,-5.5569,-5.2828,-5.3385,-5.3437,0.0,0.0,0.0,0.0,0.0,0.0,0.0,0.0,0.0,-5.463,-5.4293,-5.4437,-5.5164,-5.5665,-5.5906,-5.5925,-5.6761,-5.7165,-5.7126,-5.628,-5.5906,-5.5818,-5.4511,-5.3433,-5.2558,-5.1529,-5.1322,-5.1557,0.0,0.0,0.0,0.0,-5.0942,-5.102,0.0,0.0,0.0,0.0,0.0,0.0,0.0,0.0,0.0,0.0,0.0,0.0,0.0,0.0,0.0,-5.1567,0.0,0.0,0.0,0.0,0.0,0.0,0.0,0.0,0.0,0.0,0.0,0.0,0.0,0.0,0.0,0.0,0.0,0.0,0.0,0.0,0.0,0.0,0.0,0.0,0.0,0.0,0.0,0.0,0.0,0.0,0.0,0.0,0.0,0.0,0.0,0.0,0.0,0.0,0.0,0.0,0.0,0.0,0.0,0.0,0.0,0.0,0.0,0.0,0.0,0.0,0.0,0.0,0.0,0.0,0.0,0.0,0.0,0.0,0.0,0.0,0.0,-5.4521,-5.4964,-5.0914,-5.2602,-5.3122,0.0,0.0,0.0,0.0,0.0,0.0,-5.4299,-5.4128,-5.4424,-5.5358,-5.5389,-5.5694,-5.6357,-5.7011,-5.7319,-5.7338,-5.7992,-5.83,-5.828,-5.7396,-5.7003,-5.6926,-5.5453,-5.4434,-5.3741,-5.2442,-5.1769,-5.1509,-5.0607,-5.0225,-5.0188,-5.0283,-5.0542,-5.0919,0.0,0.0,0.0,0.0,0.0,0.0,0.0,0.0,0.0,0.0,0.0,0.0,0.0,0.0,-5.076,-5.077,-5.0162,-4.9697,0.0,0.0,0.0,0.0,0.0,0.0,0.0,0.0,0.0,0.0,0.0,0.0,0.0,0.0,0.0,0.0,0.0,0.0,0.0,0.0,0.0,0.0,0.0,0.0,0.0,0.0,0.0,0.0,0.0,0.0,0.0,0.0,0.0,0.0,0.0,0.0,0.0,0.0,0.0,0.0,0.0,0.0,0.0,0.0,0.0,0.0,0.0,0.0,0.0,0.0,0.0,0.0,0.0,0.0,0.0,0.0,0.0,0.0,0.0,0.0,0.0,-5.2857,-5.6132,0.0,0.0,0.0,0.0,-5.4909,-5.4902,-5.531,-5.6218,-5.5538,-5.5782,-5.7215,-5.7266,-5.7572,-5.8165,-5.8204,-5.8223,-5.8242,-5.828,-5.83,-5.828,-5.7396,-5.7003,-5.6945,-5.603,-5.5607,-5.5376,-5.2933,-5.1452,-5.0741,-5.0692,-5.0553,-5.0371,-5.0183,-5.0602,-5.1235,0.0,0.0,0.0,0.0,0.0,0.0,0.0,0.0,0.0,0.0,0.0,0.0,0.0,0.0,0.0,0.0,0.0,0.0,0.0,0.0,0.0,0.0,0.0,0.0,0.0,0.0,0.0,0.0,0.0,0.0,0.0,0.0,0.0,0.0,0.0,0.0,0.0,0.0,0.0,0.0,0.0,0.0,0.0,0.0,0.0,0.0,0.0,0.0,0.0,0.0,0.0,0.0,0.0,0.0,0.0,0.0,0.0,0.0,0.0,0.0,0.0,0.0,0.0,0.0,0.0,0.0,0.0,0.0,0.0,0.0,0.0,0.0,0.0,0.0,0.0,0.0,0.0,0.0,0.0,-5.5257,-5.743,0.0,-5.5327,-5.6344,-5.707,-5.6814,-5.7324,-5.8037,-5.8936,-5.8215,-5.8426,-5.9866,-5.9367,-5.9603,-6.0735,-6.0185,-6.0185,-6.0742,-6.0185,-5.9915,-5.9858,-5.8473,-5.7838,-5.7761,-5.6319,-5.5415,-5.4857,-5.3953,-5.3395,-5.3029,-5.1914,-5.135,-5.1147,-5.1097,-5.116,-5.137,0.0,0.0,0.0,0.0,0.0,0.0,0.0,0.0,0.0,0.0,0.0,0.0,0.0,0.0,0.0,0.0,0.0,0.0,0.0,0.0,0.0,0.0,0.0,0.0,0.0,0.0,0.0,0.0,0.0,0.0,0.0,0.0,0.0,0.0,0.0,0.0,0.0,0.0,0.0,0.0,0.0,0.0,-4.8401,0.0,0.0,0.0,0.0,0.0,0.0,0.0,0.0,0.0,0.0,0.0,0.0,0.0,0.0,0.0,0.0,0.0,0.0,0.0,0.0,0.0,0.0,0.0,0.0,0.0,0.0,0.0,0.0,0.0,0.0,0.0,0.0,0.0,0.0,0.0,-5.7709,-5.6569,-5.905,-5.9956,-5.763,-5.8948,-5.9825,-5.9563,-6.0364,-6.1109,-6.168,-6.1211,-6.1305,-6.2112,-6.1575,-6.1687,-6.2505,-6.1935,-6.18,-6.2101,-6.1524,-6.1069,-6.0742,-5.9069,-5.83,-5.8204,-5.6453,-5.5395,-5.4895,-5.4895,-5.4895,-5.4741,-5.2948,-5.1987,-5.1588,-5.1445,-5.1396,-5.1522,0.0,0.0,0.0,0.0,0.0,0.0,0.0,0.0,0.0,0.0,0.0,0.0,0.0,0.0,0.0,0.0,0.0,0.0,0.0,0.0,0.0,0.0,0.0,0.0,0.0,0.0,0.0,0.0,0.0,0.0,0.0,0.0,0.0,0.0,0.0,0.0,0.0,0.0,0.0,0.0,0.0,0.0,-4.9361,0.0,0.0,0.0,0.0,0.0,0.0,0.0,0.0,0.0,0.0,0.0,0.0,0.0,0.0,0.0,0.0,0.0,0.0,0.0,0.0,0.0,0.0,0.0,0.0,0.0,0.0,0.0,0.0,0.0,0.0,0.0,0.0,0.0,-5.39,-5.6887,-5.8465,-5.6938,-6.1248,-6.3047,-5.9726,-6.2402,-6.3984,-6.3105,-6.3828,-6.4316,-6.4336,-6.4316,-6.4156,-6.3844,-6.3819,-6.3654,-6.3339,-6.3288,-6.2878,-6.2139,-6.2082,-6.162,-6.0742,-5.9088,-5.8319,-5.8204,-5.6492,-5.5722,-5.5703,-5.5703,-5.5703,-5.5519,-5.3671,-5.2422,-5.1629,-5.118,-5.1262,-5.1729,0.0,0.0,0.0,0.0,0.0,0.0,0.0,0.0,0.0,0.0,0.0,0.0,0.0,0.0,0.0,0.0,0.0,0.0,0.0,0.0,0.0,0.0,0.0,0.0,0.0,0.0,0.0,0.0,0.0,0.0,0.0,0.0,0.0,0.0,0.0,0.0,0.0,0.0,0.0,0.0,0.0,0.0,-4.8837,0.0,0.0,0.0,0.0,0.0,0.0,0.0,0.0,0.0,0.0,0.0,0.0,0.0,0.0,0.0,0.0,0.0,0.0,0.0,0.0,0.0,0.0,0.0,0.0,0.0,0.0,0.0,0.0,0.0,0.0,0.0,0.0,-5.587,-5.6523,-5.8575,-6.0544,-6.1971,-6.3984,-6.4863,-6.3926,-6.4687,-6.4883,-6.4004,-6.416,-6.457,-6.5215,-6.4648,-6.445,-6.4732,-6.413,-6.3945,-6.4243,-6.3031,-6.2608,-6.2954,-6.1743,-6.1031,-6.0762,-5.9665,-5.8858,-5.8242,-5.7126,-5.6291,-5.5703,-5.5703,-5.5703,-5.5588,-5.4496,-5.3812,-5.3345,-5.2112,-5.1346,-5.0988,0.0,0.0,0.0,0.0,0.0,0.0,0.0,0.0,0.0,0.0,0.0,0.0,0.0,0.0,0.0,0.0,0.0,0.0,0.0,0.0,0.0,0.0,0.0,0.0,0.0,0.0,0.0,0.0,0.0,0.0,0.0,0.0,0.0,0.0,0.0,0.0,0.0,0.0,0.0,0.0,0.0,0.0,-4.8942,-4.8637,-4.8003,-4.7297,-4.739,-4.7187,-4.7015,-4.7718,0.0,0.0,0.0,0.0,0.0,0.0,0.0,0.0,0.0,0.0,0.0,0.0,0.0,0.0,0.0,0.0,0.0,0.0,0.0,0.0,0.0,0.0,0.0,0.0,-5.6494,-5.8482,-5.973,-6.0837,-6.2324,-6.457,-6.5605,-6.6133,-6.6133,-6.6133,-6.5937,-6.543,-6.539,-6.5605,-6.6113,-6.5664,-6.5466,-6.564,-6.5142,-6.4973,-6.5128,-6.4166,-6.3551,-6.3288,-6.232,-6.1473,-6.0762,-5.9896,-5.9069,-5.8261,-5.7376,-5.6522,-5.5703,-5.5703,-5.5703,0.0,0.0,0.0,0.0,0.0,-5.0985,-5.0584,0.0,0.0,0.0,0.0,0.0,0.0,0.0,0.0,0.0,0.0,0.0,0.0,0.0,0.0,0.0,0.0,0.0,0.0,0.0,0.0,0.0,0.0,0.0,0.0,0.0,0.0,0.0,0.0,0.0,0.0,0.0,0.0,0.0,0.0,0.0,0.0,0.0,0.0,0.0,0.0,0.0,0.0,-4.9403,-4.8449,-4.7757,-4.7187,-4.6633,-4.6408,-4.6564,-4.7852,0.0,0.0,0.0,0.0,0.0,0.0,0.0,0.0,0.0,0.0,0.0,0.0,0.0,0.0,0.0,0.0,0.0,0.0,0.0,0.0,0.0,0.0,0.0,0.0,-5.931,-6.1271,-6.3164,-6.3437,-6.3984,-6.543,-6.6367,-6.6894,-6.6894,-6.6894,-6.6894,-6.6894,-6.6894,-6.6894,-6.6894,0.0,0.0,0.0,0.0,-6.6234,-6.591,-6.5801,-6.4936,-6.3288,-6.3224,-6.2339,-6.0762,-5.9992,-5.9146,-5.8261,-5.7473,-5.6599,-5.5703,-5.5703,-5.5645,-5.5558,-5.537,-5.4334,-5.2736,-5.1146,-5.0514,-5.0459,0.0,0.0,0.0,0.0,0.0,0.0,0.0,0.0,0.0,0.0,0.0,0.0,0.0,0.0,0.0,0.0,0.0,0.0,0.0,0.0,0.0,0.0,0.0,0.0,0.0,0.0,0.0,0.0,0.0,0.0,0.0,0.0,0.0,0.0,0.0,0.0,0.0,0.0,0.0,0.0,0.0,0.0,-4.9446,-4.8922,-4.8543,-4.8274,-4.7978,-4.7683,-4.7478,-4.7913,-4.8856,-4.9996,-5.0783,0.0,0.0,0.0,0.0,0.0,0.0,0.0,0.0,0.0,0.0,0.0,0.0,0.0,0.0,0.0,0.0,0.0,0.0,0.0,0.0,-5.8247,-6.0717,-6.3339,-6.5801,-6.6152,-6.6015,-6.5644,-6.6367,-6.6894,-6.6894,-6.6894,-6.6894,-6.6894,-6.6894,-6.6894,-6.6894,-6.6894,-6.6754,-6.6419,-6.6406,-6.6234,-6.591,-6.5205,-6.4339,-6.3288,0.0,0.0,-6.0781,-6.0627,-5.9723,-5.83,-5.8127,-5.7165,-5.5703,-5.5703,-5.5318,-5.4722,-5.469,-5.4054,-5.3016,-5.1998,-5.1191,-5.0653,0.0,0.0,0.0,0.0,0.0,0.0,0.0,0.0,0.0,0.0,0.0,0.0,0.0,0.0,0.0,0.0,0.0,0.0,0.0,0.0,0.0,0.0,0.0,0.0,0.0,0.0,0.0,0.0,0.0,0.0,0.0,0.0,0.0,0.0,0.0,0.0,0.0,0.0,0.0,0.0,0.0,0.0,-5.0142,-4.9135,-4.8623,-4.8494,-4.8918,-4.8993,-4.9032,-4.9874,-5.1044,-5.2141,-5.2064,-5.3062,-5.3758,0.0,0.0,0.0,0.0,0.0,0.0,0.0,0.0,0.0,0.0,0.0,0.0,0.0,0.0,-5.4241,0.0,0.0,-5.8831,-6.0909,-6.3321,-6.5566,-6.7305,-6.789,-6.7988,-6.7558,-6.789,-6.7988,-6.7598,-6.7558,-6.7363,-6.6933,-6.6894,-6.6894,-6.6894,-6.6894,-6.6754,-6.6419,-6.6406,-6.6234,-6.591,-6.5474,-6.4589,-6.3288,-6.2897,-6.2031,-6.08,-6.08,-5.9896,-5.83,-5.83,-5.7319,-5.5703,-5.5703,-5.5453,-5.5049,-5.4664,-5.3703,-5.2442,-5.1606,-5.1048,-5.0712,0.0,0.0,0.0,0.0,0.0,0.0,0.0,0.0,0.0,0.0,0.0,0.0,0.0,0.0,0.0,0.0,0.0,0.0,0.0,0.0,0.0,0.0,0.0,0.0,0.0,0.0,0.0,0.0,0.0,0.0,0.0,0.0,0.0,0.0,0.0,0.0,0.0,0.0,0.0,0.0,0.0,0.0,-5.1079,-4.9602,-4.8936,-4.8894,-4.9692,-5.0047,-5.0313,-5.1752,-5.3066,-5.4024,-5.365,-5.4446,-5.4795,-5.1225,-5.2811,0.0,0.0,0.0,0.0,0.0,0.0,0.0,0.0,0.0,-5.3396,-5.5107,-5.5472,-5.6203,-5.8607,-5.9448,-6.07,-6.3567,-6.5789,-6.744,-6.832,-6.9139,-6.9706,-6.9883,-6.9609,-6.914,-6.8515,-6.8301,-6.791,-6.7207,-6.6992,-6.6894,-6.6894,-6.6894,-6.6748,-6.6437,-6.6406,-6.6254,-6.5928,-6.5762,-6.4883,-6.3288,-6.3147,-6.2262,-6.08,-6.08,-5.9896,-5.828,-5.7934,-5.6992,-5.5703,-5.5703,-5.5607,-5.5395,-5.4741,-5.3549,-5.2038,-5.1221,-5.0933,-5.0914,0.0,0.0,0.0,0.0,0.0,0.0,0.0,0.0,0.0,0.0,0.0,0.0,0.0,0.0,0.0,0.0,0.0,0.0,0.0,0.0,0.0,0.0,0.0,0.0,0.0,0.0,0.0,0.0,0.0,0.0,0.0,0.0,0.0,0.0,0.0,0.0,0.0,0.0,0.0,0.0,0.0,0.0,-5.1945,-5.0939,-5.0547,-5.0545,-5.0657,-5.0414,-5.0297,-5.1591,-5.2943,-5.4534,-5.7089,-5.7622,-5.7055,-5.5825,0.0,-5.3184,-4.9498,-5.0067,-5.2188,-5.4227,-5.4633,-5.5079,0.0,0.0,-5.6983,-5.8611,-5.8934,-5.9492,-6.1351,-6.2521,-6.3592,-6.4694,-6.6616,-6.8261,-6.9144,-6.9962,-7.079,-7.1601,-7.0332,-6.9394,-6.9355,-6.8652,-6.8164,-6.8066,-6.7344,-6.6894,-6.6894,-6.6849,-6.6709,-6.6493,-6.6426,-6.6273,-6.599,-6.5276,-6.4382,-6.3288,-6.257,-6.1723,-6.08,-6.08,-5.9896,-5.8204,-5.6665,-5.5876,-5.5703,-5.5703,-5.528,-5.4626,-5.453,-5.3914,-5.2953,-5.2077,-5.1769,-5.1654,0.0,0.0,0.0,0.0,0.0,0.0,0.0,0.0,0.0,0.0,0.0,0.0,0.0,0.0,0.0,0.0,0.0,0.0,0.0,0.0,0.0,0.0,0.0,0.0,0.0,0.0,0.0,0.0,0.0,0.0,0.0,0.0,0.0,0.0,0.0,0.0,0.0,0.0,0.0,0.0,0.0,0.0,-5.4141,-5.3744,-5.3004,-5.2013,-5.06,-5.01,0.0,0.0,-5.3261,-5.522,-5.7265,-5.8074,-5.7839,-5.5514,-5.5375,0.0,-5.4799,-5.4372,0.0,0.0,-5.721,-5.7462,-5.9023,-5.8922,-5.8877,-6.0271,-6.1031,-6.1818,-6.2886,-6.3766,-6.4805,0.0,-6.822,-6.9681,-7.0054,-7.0813,-7.1332,-7.125,-7.0563,-7.0112,-7.0195,-6.9863,-6.9258,-6.8262,-6.7851,-6.7441,-6.6933,-6.6846,-6.6706,-6.6517,-6.6426,-6.6273,-6.5994,-6.5203,-6.4297,-6.3288,-6.2474,-6.1639,-6.08,-6.08,-6.0146,-5.8896,-5.7203,-5.6464,-5.6426,-5.5915,-5.5491,-5.5203,-5.5203,-5.4972,-5.4434,-5.2577,-5.1904,-5.1846,0.0,0.0,0.0,0.0,0.0,0.0,0.0,0.0,0.0,0.0,0.0,0.0,0.0,0.0,0.0,0.0,0.0,0.0,0.0,0.0,0.0,0.0,0.0,0.0,0.0,0.0,0.0,0.0,0.0,0.0,0.0,0.0,0.0,0.0,0.0,0.0,0.0,0.0,0.0,0.0,0.0,0.0,-5.5849,-5.5188,-5.4216,-5.2949,-5.0967,-5.0064,0.0,0.0,-5.2532,-5.4308,-5.5822,-5.6616,-5.6491,-5.4072,-5.4358,-5.5699,-5.6864,0.0,0.0,-5.865,-5.9443,-5.995,-6.0527,-6.0557,-6.0782,-6.1787,-6.2608,-6.3359,-6.4028,-6.4648,-6.562,-6.729,-6.9062,-7.0328,-7.0545,-7.1111,-7.1304,-7.0761,-7.0444,-7.0381,-7.0642,-7.0662,-7.0077,-6.8633,-6.832,-6.7812,-6.6953,-6.6821,-6.6717,-6.6561,-6.6465,-6.632,-6.6093,-6.5018,-6.4111,-6.333,-6.2267,-6.1408,-6.0781,-6.055,-6.0108,-5.9415,-5.7723,-5.7003,-5.6926,-5.6049,-5.5703,-5.5703,-5.5703,-5.5703,-5.5415,-5.3106,-5.2404,-5.2538,0.0,0.0,0.0,0.0,0.0,0.0,0.0,0.0,0.0,0.0,0.0,0.0,0.0,0.0,0.0,0.0,0.0,0.0,0.0,0.0,0.0,0.0,0.0,0.0,0.0,0.0,0.0,0.0,0.0,0.0,0.0,0.0,0.0,0.0,0.0,0.0,0.0,0.0,0.0,0.0,0.0,0.0,-5.651,-5.4157,-5.3243,-5.3096,-5.2234,0.0,0.0,0.0,-5.0044,-5.099,-5.2915,-5.3009,0.0,-5.2287,-5.1199,0.0,0.0,0.0,-5.6917,-5.8669,-6.0857,-6.2535,-6.2361,-6.2671,-6.3129,-6.3619,-6.3743,-6.4051,-6.4893,-6.5554,-6.6302,-6.7325,-6.8545,-6.9607,-7.0399,-7.0528,-7.0587,-7.0683,-6.9941,-6.9744,0.0,-7.0601,-7.0261,-6.9433,-6.8633,-6.7812,-6.6953,-6.6761,-6.6705,-6.6682,-6.6568,-6.6431,-6.6299,-6.459,-6.366,-6.3467,-6.1697,-6.0819,-6.0762,-5.9915,-5.9531,-5.9415,-5.7723,-5.7003,-5.6926,-5.6049,-5.5703,-5.5703,-5.5703,-5.5703,-5.5491,-5.3799,-5.3703,-5.4184,0.0,0.0,0.0,0.0,0.0,0.0,0.0,0.0,0.0,0.0,0.0,0.0,0.0,0.0,0.0,0.0,0.0,0.0,0.0,0.0,0.0,0.0,0.0,0.0,0.0,0.0,0.0,0.0,0.0,0.0,0.0,0.0,0.0,0.0,0.0,0.0,0.0,0.0,0.0,0.0,0.0,0.0,-5.7446,-5.6106,-5.394,-5.1595,0.0,0.0,0.0,0.0,0.0,0.0,-5.2105,0.0,0.0,-5.1095,0.0,0.0,0.0,0.0,-5.9624,-6.1857,-6.3798,-6.5252,-6.5638,-6.5921,-6.5874,-6.5151,-6.3647,-6.2402,-6.2151,-6.2726,-6.3782,-6.5499,-6.8179,-7.0346,-7.1234,-7.1363,-7.0997,-7.0019,-6.9605,0.0,0.0,0.0,0.0,-6.9352,-6.8503,-6.7644,-6.6815,-6.6727,-6.6685,-6.6639,-6.6549,-6.6178,-6.5504,-6.4353,-6.3381,-6.2618,-6.1378,-6.08,-6.0781,-6.0492,-6.0358,-6.0262,-5.8588,-5.7857,-5.7742,-5.6299,-5.5703,-5.5703,-5.5703,-5.5376,-5.4838,-5.426,-5.4241,-5.4337,0.0,0.0,0.0,0.0,0.0,0.0,0.0,0.0,0.0,0.0,0.0,0.0,0.0,0.0,0.0,0.0,0.0,0.0,0.0,0.0,0.0,0.0,0.0,0.0,0.0,0.0,0.0,0.0,0.0,0.0,0.0,0.0,0.0,0.0,0.0,0.0,0.0,0.0,0.0,0.0,0.0,0.0,-5.6565,-5.5188,-5.3083,0.0,0.0,0.0,0.0,0.0,0.0,0.0,0.0,0.0,0.0,0.0,0.0,0.0,0.0,-5.8874,-6.1781,-6.3946,-6.5625,-6.6869,-6.727,-6.7404,-6.7132,-6.5973,-6.3559,-6.1469,-6.0824,-6.1056,-6.1733,-6.2919,-6.5683,-6.8236,-6.978,-6.9478,-6.9176,-6.9433,-6.8902,0.0,0.0,0.0,0.0,-6.8844,-6.8309,-6.7598,-6.6744,-6.6705,-6.6677,-6.6596,-6.6236,-6.574,-6.514,-6.3931,-6.279,-6.172,-6.1089,-6.08,-6.08,-6.08,-6.0627,-6.0262,-5.8896,-5.8127,-5.7723,-5.628,-5.5703,-5.5703,-5.5703,-5.5376,-5.4895,-5.4607,-5.4684,-5.4799,0.0,0.0,0.0,0.0,0.0,0.0,0.0,0.0,0.0,0.0,0.0,0.0,0.0,0.0,0.0,0.0,0.0,0.0,0.0,0.0,0.0,0.0,0.0,0.0,0.0,0.0,0.0,0.0,0.0,0.0,0.0,0.0,0.0,0.0,0.0,0.0,0.0,0.0,0.0,0.0,0.0,0.0,-5.4087,-5.1756,0.0,0.0,0.0,0.0,0.0,0.0,0.0,0.0,0.0,0.0,0.0,0.0,0.0,-5.3736,-5.8083,-6.1086,-6.335,-6.4914,-6.6361,-6.7376,-6.7321,-6.7244,-6.6953,-6.6005,-6.3389,-6.1107,0.0,0.0,-6.0285,-5.9965,-6.1723,-6.402,-6.6637,-6.5616,-6.5804,0.0,0.0,0.0,0.0,0.0,0.0,-6.7965,0.0,-6.7634,-6.6744,-6.6682,-6.6653,-6.661,-6.5692,-6.518,-6.5141,-6.3336,-6.1919,-6.092,-6.0839,-6.08,-6.08,-6.0742,-6.0281,-5.9454,-5.8607,-5.7761,-5.6926,-5.6049,-5.5703,-5.5703,-5.5703,-5.5665,-5.5549,-5.4818,-5.5011,-5.553,0.0,0.0,0.0,0.0,0.0,0.0,0.0,0.0,0.0,0.0,0.0,0.0,0.0,0.0,0.0,0.0,0.0,0.0,0.0,0.0,0.0,0.0,0.0,0.0,0.0,0.0,0.0,0.0,0.0,0.0,0.0,0.0,0.0,0.0,0.0,0.0,0.0,0.0,0.0,0.0,0.0,0.0,-5.3371,0.0,0.0,0.0,0.0,0.0,0.0,0.0,0.0,0.0,0.0,0.0,-5.2896,0.0,0.0,-5.8651,-6.1011,-6.3546,-6.5756,-6.6621,-6.7114,-6.7356,-6.7196,-6.7327,-6.6688,-6.3837,-6.1075,-5.8386,0.0,0.0,0.0,-5.9857,-6.4251,0.0,-6.9435,-6.9818,0.0,0.0,0.0,-6.9316,-6.828,-6.7895,0.0,0.0,-6.7,-6.6824,-6.6648,-6.6629,-6.6585,-6.654,-6.5669,-6.4916,-6.4314,-6.2405,-6.1321,-6.1051,-6.0883,-6.08,-6.0781,-6.0127,-5.9704,-5.9415,-5.7953,-5.7214,-5.6926,-5.6049,-5.5703,-5.5703,-5.5703,-5.5318,-5.4857,-5.5241,-5.5145,-5.4857,0.0,0.0,0.0,0.0,0.0,0.0,0.0,0.0,0.0,0.0,0.0,0.0,0.0,0.0,0.0,0.0,0.0,0.0,0.0,0.0,0.0,0.0,0.0,0.0,0.0,0.0,0.0,0.0,0.0,0.0,0.0,0.0,0.0,0.0,0.0,0.0,0.0,0.0,0.0,0.0,0.0,0.0,0.0,0.0,0.0,0.0,0.0,0.0,0.0,0.0,0.0,-5.4376,-5.5742,-5.5938,-5.5961,-5.7622,0.0,-6.1527,-6.3595,-6.5754,-6.7499,-6.7851,-6.7886,-6.7491,-6.6167,-6.5905,-6.4943,-6.1486,-5.8613,0.0,0.0,0.0,0.0,0.0,0.0,0.0,-6.8183,-6.8804,-6.9526,0.0,-7.0058,0.0,-6.8281,-6.7829,-6.7376,0.0,-6.6671,-6.6586,-6.6596,-6.6596,-6.6568,-6.6489,-6.5654,-6.4624,-6.3439,-6.1918,-6.1125,-6.1099,-6.0929,-6.0827,-6.0762,-5.9972,-5.9364,-5.8896,0.0,-5.6815,-5.6387,-5.5895,-5.5703,-5.5703,-5.5703,-5.5415,-5.5068,-5.553,-5.5415,-5.5088,0.0,0.0,0.0,0.0,0.0,0.0,0.0,0.0,0.0,0.0,0.0,0.0,0.0,0.0,0.0,0.0,0.0,0.0,0.0,0.0,0.0,0.0,0.0,0.0,0.0,0.0,0.0,0.0,0.0,0.0,0.0,0.0,0.0,0.0,0.0,0.0,0.0,0.0,0.0,0.0,0.0,0.0,0.0,0.0,0.0,0.0,0.0,0.0,0.0,0.0,-5.7646,-5.8003,-5.8858,-5.8858,-5.8976,-6.1368,-6.2731,-6.396,-6.6281,-6.79,-6.8895,-6.8788,-6.8482,-6.7499,-6.4745,-6.3834,-6.254,-5.8906,0.0,0.0,-5.2754,0.0,-5.6163,-5.4536,0.0,-6.3637,-6.5579,-6.5992,-6.7207,-7.0176,-6.9355,-6.8437,-6.8222,-6.7617,-6.7148,-6.6914,-6.678,-6.6661,-6.6613,-6.661,-6.6458,-6.6178,-6.544,-6.4236,-6.2546,-6.1628,-6.1159,-6.1117,-6.0992,-6.0908,-6.0819,-5.9944,-5.9085,-5.8245,-5.734,-5.6481,-5.5703,-5.5703,-5.5703,-5.5703,-5.5703,-5.5703,-5.5703,-5.5703,-5.5703,-5.5703,0.0,0.0,0.0,0.0,0.0,0.0,0.0,0.0,0.0,0.0,-4.9139,-4.8949,0.0,0.0,0.0,0.0,0.0,0.0,0.0,0.0,0.0,0.0,0.0,0.0,0.0,0.0,0.0,0.0,0.0,0.0,0.0,0.0,0.0,0.0,0.0,0.0,0.0,0.0,0.0,0.0,0.0,0.0,0.0,0.0,0.0,0.0,0.0,0.0,0.0,0.0,-6.1069,-6.2358,-6.3224,-6.4859,-6.6647,-6.7827,-6.8846,-6.9644,-7.0002,-7.0387,-7.0481,-6.9707,-6.8398,-6.6609,-6.3844,-6.2791,0.0,0.0,0.0,-5.3751,-5.1266,-5.3126,0.0,-5.7513,0.0,0.0,0.0,0.0,-6.8965,0.0,0.0,0.0,0.0,0.0,0.0,0.0,0.0,-6.6682,-6.6689,-6.6581,-6.587,-6.4469,-6.4294,-6.3381,-6.1645,-6.1337,-6.1192,-6.1175,-6.1098,-6.1061,-6.0983,-5.9418,-5.8587,-5.8296,-5.6773,0.0,-5.5703,-5.5703,-5.5703,-5.5703,-5.5703,-5.5703,-5.5703,-5.5703,-5.5703,-5.5703,0.0,0.0,0.0,0.0,0.0,0.0,0.0,-4.9465,-4.9141,-4.9616,-4.9574,-4.9284,-4.8679,-4.842,0.0,0.0,0.0,0.0,0.0,0.0,0.0,0.0,0.0,0.0,0.0,0.0,0.0,0.0,0.0,0.0,0.0,0.0,0.0,0.0,0.0,0.0,0.0,0.0,0.0,0.0,0.0,0.0,0.0,0.0,0.0,0.0,0.0,0.0,0.0,0.0,-6.207,-6.5436,-6.6301,-6.7417,-6.8558,-6.9436,-7.0317,-7.0979,-7.0912,-7.1279,-7.146,-7.0546,-6.9033,-6.6705,-6.2636,0.0,0.0,0.0,0.0,-5.1971,-5.0198,0.0,0.0,0.0,0.0,0.0,0.0,0.0,0.0,0.0,0.0,0.0,0.0,0.0,0.0,0.0,0.0,-6.6736,-6.6705,-6.6622,-6.5978,-6.4727,-6.4247,-6.3411,-6.214,-6.1603,-6.1317,-6.1262,-6.1217,-6.1197,-6.1109,-5.9852,-5.8971,-5.8326,-5.7149,-5.629,-5.5703,-5.5703,-5.5703,-5.5703,-5.5703,-5.5703,-5.5703,-5.5703,-5.5703,-5.5703,0.0,0.0,0.0,0.0,0.0,0.0,0.0,-4.9311,-4.8696,-4.9926,-5.0132,-4.9763,-4.8716,-4.842,-4.8402,0.0,0.0,0.0,0.0,0.0,0.0,0.0,0.0,0.0,0.0,0.0,0.0,0.0,0.0,0.0,0.0,0.0,0.0,0.0,0.0,0.0,0.0,0.0,0.0,0.0,0.0,0.0,0.0,0.0,0.0,0.0,0.0,0.0,0.0,0.0,-6.1647,-6.5686,-6.6917,-6.8186,-6.9283,-6.961,-7.0533,-7.1456,-7.1456,-7.1956,-7.2264,-7.1398,-6.9783,-6.6999,-6.1716,-5.9355,0.0,0.0,0.0,0.0,0.0,0.0,0.0,0.0,0.0,0.0,0.0,0.0,0.0,0.0,0.0,0.0,0.0,0.0,0.0,0.0,0.0,0.0,-6.6709,-6.6478,-6.5937,-6.5074,-6.4203,-6.3365,-6.2542,-6.1866,-6.1475,-6.1353,-6.1349,-6.1311,-6.123,-6.0402,-5.9456,-5.8414,-5.7638,-5.6714,-5.5745,-5.5714,-5.5703,-5.5703,-5.5703,-5.5703,-5.5703,-5.5703,-5.5703,-5.5703,0.0,0.0,0.0,0.0,0.0,0.0,0.0,-4.9441,-4.8855,-4.9961,-5.0267,-4.9933,-4.8715,-4.842,-4.8458,0.0,0.0,0.0,0.0,0.0,0.0,0.0,0.0,0.0,0.0,0.0,0.0,0.0,0.0,0.0,0.0,0.0,0.0,0.0,0.0,0.0,0.0,0.0,0.0,0.0,0.0,0.0,0.0,0.0,0.0,0.0,0.0,0.0,0.0,0.0,0.0,-6.0627,-6.3012,-6.7494,-7.1572,-7.0129,0.0,0.0,-7.3264,-7.3322,-7.3168,-7.2302,-7.0225,-6.6999,-6.1716,0.0,0.0,0.0,0.0,0.0,0.0,0.0,0.0,0.0,0.0,0.0,0.0,0.0,0.0,0.0,0.0,0.0,0.0,0.0,0.0,0.0,0.0,0.0,-6.6709,-6.5937,-6.5114,-6.4236,-6.3359,-6.252,-6.1724,-6.1627,-6.1588,-6.1565,-6.15,-6.1484,-6.1434,-6.0508,-5.9575,-5.8618,-5.7691,-5.6751,0.0,-5.5745,-5.5703,-5.5703,-5.5703,-5.5703,-5.5703,-5.5703,-5.5703,-5.5703,0.0,0.0,0.0,0.0,0.0,0.0,-4.9678,-4.8927,-4.8815,-5.0752,-5.098,-5.0814,-5.0496,-4.9925,-4.9472,0.0,0.0,0.0,0.0,0.0,0.0,0.0,0.0,0.0,0.0,0.0,0.0,0.0,0.0,0.0,0.0,0.0,0.0,0.0,0.0,0.0,0.0,0.0,0.0,0.0,0.0,0.0,0.0,0.0,0.0,0.0,0.0,0.0,0.0,0.0,0.0,0.0,-5.8896,-6.2127,0.0,0.0,-7.0014,-7.1552,-7.3091,-7.386,-7.3899,-7.2533,-6.9533,-6.5808,-6.1632,0.0,0.0,0.0,-5.0643,-5.0712,-5.0712,0.0,0.0,0.0,0.0,0.0,0.0,0.0,0.0,0.0,0.0,0.0,0.0,0.0,0.0,0.0,0.0,0.0,-6.6821,-6.5965,-6.5053,-6.4194,-6.3316,-6.2457,-6.162,-6.1601,-6.1601,-6.1601,-6.1562,-6.1556,-6.1556,-6.1128,-6.0105,-5.8607,-5.8243,-5.7216,0.0,-5.5724,-5.5703,-5.5703,-5.5703,-5.5703,-5.5703,-5.5703,-5.5703,-5.5703,0.0,0.0,0.0,0.0,0.0,-4.6993,-4.9171,-4.8443,-4.853,-5.0996,-5.1214,-5.1213,-5.1469,-5.1001,-5.0526,-5.0151,0.0,0.0,0.0,0.0,0.0,0.0,0.0,0.0,0.0,0.0,0.0,0.0,0.0,0.0,0.0,0.0,0.0,0.0,0.0,0.0,0.0,0.0,0.0,0.0,0.0,0.0,0.0,0.0,0.0,0.0,0.0,0.0,0.0,0.0,0.0,0.0,0.0,0.0,0.0,0.0,-6.7282,-6.9436,-7.1764,-7.3149,-7.3745,-7.2803,-6.9225,-6.4993,0.0,0.0,0.0,-5.1587,-5.0866,-5.077,-5.101,0.0,0.0,0.0,0.0,0.0,0.0,0.0,0.0,0.0,0.0,0.0,0.0,0.0,0.0,0.0,0.0,0.0,-6.6523,-6.564,-6.4852,-6.4247,-6.3134,-6.2255,-6.163,-6.163,-6.163,-6.163,-6.1603,-6.1603,-6.1595,-6.1529,-6.0456,-5.8637,-5.8611,-5.7516,0.0,-5.5724,-5.5703,-5.5703,-5.5703,-5.5703,-5.5703,-5.5703,-5.5703,-5.5703,0.0,0.0,0.0,0.0,0.0,0.0,-4.9002,-4.8082,-4.789,-5.0387,-5.071,-5.0783,-5.0997,-5.1172,-5.1375,-5.1557,0.0,0.0,0.0,0.0,0.0,0.0,0.0,0.0,0.0,0.0,-4.9993,-5.0393,-5.0404,0.0,0.0,0.0,0.0,0.0,0.0,0.0,0.0,0.0,0.0,0.0,0.0,0.0,0.0,0.0,0.0,0.0,0.0,0.0,0.0,0.0,0.0,0.0,0.0,0.0,0.0,0.0,-6.3166,-6.7513,-6.9263,-7.0956,-7.2418,-7.3283,-6.9667,-6.4993,0.0,0.0,0.0,0.0,-5.1241,-5.0933,0.0,0.0,0.0,0.0,0.0,0.0,0.0,0.0,0.0,0.0,0.0,0.0,0.0,0.0,0.0,0.0,0.0,0.0,-6.5664,-6.4785,-6.4316,-6.4297,-6.2617,-6.1719,-6.1699,-6.1699,-6.1699,-6.1699,-6.1631,-6.1603,-6.1595,-6.1529,-6.0475,-5.8692,-5.8637,-5.7581,0.0,-5.5756,-5.5703,-5.5703,-5.5703,-5.5703,-5.5703,-5.5703,-5.5703,-5.5703,0.0,0.0,0.0,0.0,0.0,0.0,0.0,-4.7135,-4.787,-4.9955,-5.0113,-5.0599,-5.2126,-5.1818,-5.1588,-5.1802,0.0,0.0,0.0,0.0,0.0,0.0,0.0,0.0,0.0,0.0,-5.0264,-5.0404,-5.1088,-5.1563,-5.1802,0.0,0.0,0.0,0.0,0.0,0.0,0.0,0.0,0.0,0.0,0.0,0.0,0.0,0.0,0.0,0.0,0.0,0.0,0.0,0.0,0.0,0.0,0.0,0.0,0.0,0.0,0.0,-6.4859,-6.6147,-6.6801,-6.5936,-6.3185,-6.0131,-5.7955,0.0,0.0,0.0,0.0,0.0,0.0,0.0,0.0,0.0,0.0,0.0,0.0,0.0,0.0,0.0,0.0,0.0,0.0,0.0,0.0,0.0,0.0,0.0,-6.4765,-6.3887,-6.3418,-6.3418,-6.2305,-6.1699,-6.1699,-6.1699,-6.1699,-6.1699,-6.1679,-6.1642,-6.1576,-6.0953,-5.9933,0.0,-5.7972,-5.6975,-5.5756,-5.5724,-5.5756,-5.5846,-5.5846,-5.5846,-5.5846,-5.5846,-5.5776,-5.5703,0.0,0.0,0.0,0.0,0.0,0.0,0.0,-4.6777,-4.7783,-4.9008,-4.934,-5.0137,-5.1877,-5.1593,-5.1559,-5.2317,0.0,0.0,0.0,0.0,0.0,0.0,0.0,0.0,0.0,-5.0193,-5.0508,-5.0971,-5.1594,-5.2231,-5.2874,-5.2351,-5.1853,0.0,0.0,0.0,0.0,0.0,0.0,0.0,0.0,0.0,-5.5037,0.0,0.0,0.0,0.0,0.0,0.0,0.0,0.0,0.0,0.0,0.0,0.0,0.0,0.0,0.0,0.0,-6.3205,-6.3935,-6.3224,-6.0912,0.0,0.0,0.0,0.0,0.0,0.0,0.0,0.0,0.0,0.0,0.0,0.0,0.0,0.0,0.0,0.0,0.0,0.0,0.0,0.0,0.0,0.0,0.0,0.0,0.0,-6.3867,-6.3613,-6.3183,-6.2539,-6.1973,-6.1699,-6.1699,-6.1699,-6.1699,-6.1699,-6.1699,-6.1516,-6.1136,-6.059,-5.9551,-5.8185,-5.7654,-5.6831,0.0,-5.5864,-5.5892,-5.6003,-5.6317,-5.6241,-5.5981,-5.6318,-5.6175,-5.5808,0.0,0.0,0.0,0.0,0.0,0.0,0.0,0.0,-4.7556,-4.7799,-4.8528,-4.9426,-5.0481,-5.0654,-5.1337,-5.2972,0.0,0.0,0.0,0.0,0.0,0.0,0.0,0.0,-5.0404,-5.0283,-5.0784,-5.1904,-5.2019,-5.2914,-5.4462,-5.3047,-5.2338,-5.2243,-5.0773,0.0,0.0,0.0,0.0,0.0,0.0,-5.4329,0.0,0.0,0.0,0.0,0.0,0.0,0.0,0.0,0.0,0.0,0.0,0.0,0.0,0.0,0.0,0.0,0.0,0.0,0.0,0.0,0.0,0.0,0.0,0.0,0.0,0.0,0.0,0.0,0.0,0.0,0.0,0.0,0.0,0.0,0.0,0.0,0.0,0.0,0.0,0.0,0.0,0.0,0.0,0.0,0.0,0.0,-6.3183,-6.3867,-6.3535,-6.1855,-6.1797,-6.1758,-6.1699,-6.1699,-6.1699,-6.1699,-6.1699,-6.1248,-6.0409,-6.0409,-5.938,0.0,-5.7667,-5.7157,-5.6283,-5.6285,-5.6283,-5.6373,-5.7105,-5.6891,-5.6291,-5.7112,-5.6872,-5.6169,0.0,0.0,0.0,0.0,0.0,0.0,0.0,0.0,0.0,0.0,-4.8203,-4.8683,-4.9606,-5.0308,-5.1106,0.0,0.0,0.0,0.0,0.0,0.0,0.0,0.0,0.0,-5.0404,-5.1116,-5.1612,-5.1904,-5.3241,-5.4107,-5.4481,-5.3632,-5.2883,-5.2243,-5.0925,-5.0089,0.0,0.0,0.0,0.0,-5.4358,-5.4858,0.0,0.0,0.0,0.0,-5.478,-5.5184,0.0,0.0,0.0,0.0,0.0,0.0,0.0,0.0,-5.478,0.0,0.0,0.0,0.0,0.0,0.0,0.0,0.0,0.0,0.0,0.0,0.0,0.0,0.0,0.0,0.0,0.0,0.0,0.0,0.0,0.0,0.0,0.0,0.0,0.0,0.0,0.0,0.0,0.0,0.0,-6.4433,-6.4023,-6.4199,-6.3808,-6.2734,-6.2695,-6.2363,-6.1719,-6.1699,-6.1699,-6.1699,-6.1699,-6.1248,-6.0409,-6.0391,-5.9382,-5.7648,-5.8299,-5.8023,-5.7164,-5.7768,-5.8072,-5.8189,-5.8316,-5.8249,-5.8086,-5.8308,-5.8209,-5.7897,0.0,0.0,0.0,0.0,0.0,0.0,0.0,0.0,0.0,0.0,0.0,0.0,0.0,0.0,0.0,0.0,0.0,0.0,0.0,0.0,0.0,0.0,0.0,-5.0653,-5.0542,-5.1066,-5.1741,-5.25,-5.3433,-5.4299,-5.5038,-5.4485,-5.3589,-5.2373,-5.0912,-5.0388,-5.0723,-5.2251,-5.3177,-5.3747,-5.5021,0.0,0.0,0.0,0.0,0.0,-5.5049,-5.5088,0.0,-5.5568,-5.4895,-5.4107,0.0,0.0,0.0,0.0,-5.4511,-5.3895,0.0,0.0,0.0,0.0,0.0,0.0,0.0,0.0,0.0,0.0,0.0,0.0,0.0,0.0,0.0,0.0,0.0,0.0,0.0,0.0,0.0,0.0,0.0,0.0,0.0,0.0,0.0,0.0,0.0,-6.4551,-6.375,-6.4082,-6.3906,-6.3027,-6.2617,-6.2187,-6.1699,-6.1699,-6.1699,-6.1699,-6.1699,-6.1249,-6.0404,-6.0404,-5.9634,-5.8356,-5.8829,-5.8724,-5.8214,-5.8203,-5.8228,-5.8282,-5.8221,-5.8198,-5.8236,-5.8598,-5.8711,-5.8614,0.0,0.0,0.0,0.0,0.0,0.0,0.0,0.0,0.0,0.0,0.0,0.0,0.0,0.0,0.0,0.0,0.0,0.0,0.0,0.0,0.0,0.0,0.0,-5.077,-5.0875,-5.0875,-5.1645,-5.3203,-5.3337,-5.4126,-5.5511,-5.5256,-5.424,-5.2551,-5.1288,-5.1044,-5.1687,-5.288,-5.3818,-5.4568,-5.5376,0.0,0.0,0.0,0.0,0.0,0.0,0.0,0.0,-5.528,-5.4472,-5.3453,-5.4876,0.0,0.0,0.0,0.0,0.0,0.0,0.0,0.0,0.0,0.0,0.0,0.0,0.0,0.0,0.0,0.0,0.0,0.0,0.0,0.0,0.0,0.0,0.0,0.0,0.0,0.0,0.0,0.0,0.0,0.0,0.0,0.0,0.0,0.0,-6.4629,-6.3262,-6.3906,-6.3906,-6.3027,-6.2285,-6.1836,-6.1699,-6.1699,-6.1699,-6.1699,-6.1699,-6.123,-6.039,-6.0547,-6.0098,-5.9219,0.0,0.0,-5.9336,-5.8597,-5.823,-5.8097,-5.8176,-5.8117,-5.8085,-5.8894,-5.9205,-5.9172,0.0,0.0,0.0,0.0,0.0,0.0,0.0,0.0,0.0,0.0,0.0,0.0,0.0,0.0,0.0,0.0,0.0,0.0,0.0,0.0,0.0,0.0,-5.1048,-5.101,-5.1692,-5.1712,-5.2192,-5.3203,-5.3933,-5.4434,-5.4684,-5.5143,-5.4371,-5.2627,-5.3282,-5.285,-5.1725,-5.3533,-5.4376,-5.4568,-5.5376,0.0,0.0,0.0,0.0,0.0,0.0,0.0,0.0,-5.4645,-5.403,-5.3241,-5.351,0.0,0.0,0.0,0.0,0.0,-5.1433,-5.2261,0.0,0.0,0.0,0.0,0.0,0.0,0.0,0.0,0.0,0.0,0.0,0.0,0.0,0.0,0.0,0.0,0.0,0.0,0.0,0.0,0.0,0.0,0.0,0.0,0.0,0.0,0.0,-6.3594,-6.4082,-6.4238,-6.3906,-6.3027,-6.2871,-6.2441,-6.1719,-6.1699,-6.1699,-6.1699,-6.1699,-6.123,-6.043,-6.1152,-6.0664,-5.9277,0.0,-6.0898,-6.0254,-6.0786,-6.0561,-5.9973,-6.0633,-6.0415,-5.9827,-6.0681,-6.1004,-6.0888,0.0,0.0,0.0,0.0,0.0,0.0,0.0,0.0,0.0,0.0,0.0,0.0,0.0,0.0,0.0,0.0,0.0,0.0,0.0,0.0,0.0,-5.1904,-5.201,-5.201,-5.1904,-5.1904,-5.2558,-5.3895,-5.4299,-5.4722,-5.5126,-5.4392,-5.358,-5.2748,-5.2788,-5.2671,-5.2549,-5.3921,-5.4741,-5.5184,0.0,0.0,0.0,0.0,0.0,0.0,0.0,0.0,0.0,0.0,-5.3606,-5.2577,-5.3049,0.0,0.0,0.0,0.0,0.0,-5.1337,-5.1298,0.0,0.0,0.0,0.0,0.0,0.0,0.0,0.0,0.0,0.0,0.0,0.0,0.0,0.0,0.0,0.0,0.0,0.0,0.0,0.0,0.0,0.0,0.0,0.0,0.0,0.0,0.0,0.0,-6.3594,-6.3594,-6.3418,-6.3008,-6.2539,-6.2109,-6.1699,-6.1699,-6.1465,-6.0996,-6.0996,-6.0781,-6.041,-6.0801,-6.082,-6.0586,0.0,-6.1465,-6.1094,-6.0985,-6.0683,-6.0285,-6.0141,-5.9805,-5.9496,-6.039,-6.1011,-6.1335,0.0,0.0,0.0,0.0,0.0,0.0,0.0,0.0,0.0,0.0,0.0,0.0,0.0,0.0,0.0,0.0,0.0,0.0,0.0,0.0,-5.1788,-5.2192,-5.2654,-5.2779,-5.25,-5.25,-5.326,-5.478,-5.4991,-5.5395,-5.5972,-5.4322,-5.3353,-5.2958,-5.2682,-5.2798,-5.328,-5.4337,-5.5145,-5.5703,0.0,0.0,0.0,0.0,0.0,0.0,0.0,0.0,0.0,0.0,0.0,0.0,0.0,0.0,0.0,0.0,0.0,-5.0827,-5.1452,-5.0884,-5.0574,0.0,0.0,0.0,0.0,0.0,0.0,0.0,0.0,0.0,0.0,0.0,0.0,0.0,0.0,0.0,0.0,0.0,0.0,0.0,0.0,0.0,0.0,0.0,0.0,0.0,0.0,0.0,-6.2734,-6.2695,-6.2695,-6.2695,-6.2051,-6.1699,-6.1699,-6.1699,-6.1269,-6.039,-6.0605,-6.0605,-6.041,-6.0605,-6.1074,-6.1699,-6.1699,-6.1699,-6.164,-6.0971,-6.0536,-6.0249,-5.9731,-5.9491,-5.9496,-6.0157,-6.0837,-6.1393,0.0,0.0,0.0,0.0,0.0,0.0,0.0,0.0,0.0,0.0,0.0,0.0,0.0,0.0,0.0,0.0,0.0,0.0,0.0,0.0,-5.1471,-5.3049,-5.2385,-5.2712,-5.428,-5.4318,-5.4741,-5.5607,-5.6426,-5.6849,-5.6887,-5.5942,-5.4662,-5.324,-5.4739,-5.4577,-5.3318,-5.4934,-5.5645,-5.5703,-5.5703,0.0,0.0,0.0,0.0,0.0,0.0,0.0,0.0,0.0,0.0,0.0,0.0,0.0,0.0,0.0,0.0,-5.0712,-5.077,-5.1327,-5.1782,-5.1227,0.0,0.0,0.0,0.0,0.0,0.0,0.0,0.0,0.0,0.0,0.0,0.0,0.0,0.0,0.0,0.0,0.0,0.0,0.0,0.0,0.0,0.0,0.0,0.0,0.0,0.0,-6.1797,-6.1797,-6.1797,-6.1797,-6.1738,-6.1699,-6.1699,-6.1699,-6.1269,-6.041,-6.1211,-6.1172,-6.043,-6.123,-6.164,-6.1699,-6.1699,-6.1699,-6.1699,-6.1621,-6.11,-6.037,-6.1123,-6.133,-6.1218,-6.1276,-6.1354,-6.1393,0.0,0.0,0.0,0.0,0.0,0.0,0.0,0.0,0.0,0.0,0.0,0.0,0.0,0.0,0.0,0.0,0.0,0.0,0.0,0.0,-5.1972,-5.3145,-5.3395,-5.3837,-5.4491,-5.4991,-5.5934,-5.7319,-5.7088,-5.6714,-5.6145,-5.478,-5.353,-5.2423,-5.3049,-5.3299,-5.3241,-5.3876,-5.4741,-5.5665,-5.5164,-5.5241,0.0,0.0,0.0,0.0,0.0,0.0,0.0,0.0,0.0,0.0,0.0,0.0,0.0,0.0,0.0,-4.9894,-4.9894,-5.0621,0.0,0.0,0.0,0.0,0.0,0.0,0.0,0.0,0.0,0.0,0.0,0.0,0.0,0.0,0.0,0.0,0.0,0.0,0.0,0.0,0.0,0.0,0.0,0.0,0.0,0.0,0.0,0.0,-6.0918,-6.1406,-6.1445,-6.0918,-6.1426,-6.1699,-6.1699,-6.1699,-6.1269,-6.039,-6.0723,-6.0723,-6.041,-6.0742,-6.1191,-6.1699,-6.1699,-6.1699,-6.1699,-6.1699,-6.1471,-6.1084,-6.0784,-6.0967,-6.1335,-6.0798,-6.0934,-6.1393,0.0,0.0,0.0,0.0,0.0,0.0,0.0,0.0,0.0,0.0,0.0,0.0,0.0,0.0,0.0,0.0,0.0,0.0,0.0,-5.1221,-5.1895,-5.276,-5.3356,-5.4068,-5.4857,-5.5415,-5.6415,-5.7896,-5.7569,-5.6819,-5.5665,-5.3972,-5.2876,-5.2288,-5.2019,-5.2385,-5.3203,-5.3203,-5.3857,-5.4895,-5.4607,-5.4664,0.0,0.0,0.0,0.0,0.0,0.0,0.0,0.0,0.0,0.0,0.0,0.0,0.0,0.0,0.0,0.0,-5.0183,-5.0322,0.0,0.0,0.0,0.0,0.0,0.0,0.0,0.0,0.0,0.0,0.0,0.0,0.0,0.0,0.0,0.0,0.0,0.0,0.0,0.0,0.0,0.0,0.0,0.0,0.0,0.0,0.0,0.0,0.0,-6.0976,-6.1133,-6.082,-6.1387,-6.1699,-6.1699,-6.1426,-6.1133,-6.0801,-6.0527,-6.039,-6.041,-6.0683,-6.1133,-6.1699,-6.1699,-6.1699,-6.1699,-6.1699,-6.1666,-6.1526,-6.0804,-6.0875,-6.1335,-6.074,-6.0895,-6.1393,0.0,0.0,0.0,0.0,0.0,0.0,0.0,0.0,0.0,0.0,0.0,0.0,0.0,0.0,0.0,0.0,0.0,0.0,-5.0712,-5.0712,-5.1048,-5.1865,-5.1904,-5.3087,-5.5607,-5.5665,-5.6107,-5.7003,-5.7877,-5.7396,-5.5645,-5.3972,-5.3183,-5.3145,-5.2269,-5.2365,-5.3203,-5.3183,-5.3183,-5.328,-5.4126,-5.3953,-5.3203,0.0,0.0,0.0,0.0,0.0,0.0,0.0,0.0,0.0,0.0,0.0,0.0,0.0,0.0,-5.1865,-5.1865,0.0,0.0,0.0,0.0,0.0,0.0,0.0,0.0,0.0,0.0,0.0,0.0,0.0,0.0,0.0,0.0,0.0,0.0,0.0,0.0,0.0,0.0,0.0,0.0,0.0,0.0,0.0,0.0,0.0,0.0,-6.0371,-6.0781,-6.164,-6.168,-6.168,-6.1699,-6.082,-6.082,-6.168,-6.082,-6.041,-6.0449,-6.1308,-6.1699,-6.1699,-6.1699,-6.1699,-6.1699,-6.1699,-6.1666,-6.1584,-6.144,-6.1393,-6.1393,-6.1393,-6.1393,-6.1386,0.0,0.0,0.0,0.0,0.0,0.0,0.0,0.0,0.0,0.0,0.0,0.0,0.0,0.0,0.0,0.0,0.0,0.0,-5.075,-5.0712,-5.1048,-5.1865,-5.1904,-5.225,-5.301,-5.3626,-5.5241,-5.7915,-5.755,-5.6511,-5.4818,-5.3087,-5.1991,-5.1433,-5.1164,-5.151,-5.225,-5.1683,-5.2146,-5.3244,-5.2945,-5.3003,-5.3205,0.0,0.0,0.0,0.0,0.0,0.0,0.0,0.0,0.0,0.0,0.0,0.0,0.0,-5.0433,-5.001,-4.9394,0.0,0.0,0.0,0.0,0.0,0.0,0.0,0.0,0.0,0.0,0.0,0.0,0.0,0.0,0.0,0.0,0.0,0.0,0.0,0.0,0.0,0.0,0.0,0.0,0.0,0.0,0.0,0.0,0.0,0.0,-5.9219,-5.9668,-5.9922,-5.9941,-6.0215,-6.0781,-6.0527,-6.0527,-6.0781,-6.1133,-6.1308,-6.1328,-6.1582,-6.1699,-6.1699,-6.1699,-6.1699,-6.1699,-6.1658,-6.1582,-6.152,-6.1434,-6.1393,-6.1393,-6.1393,-6.1393,-6.1386,0.0,0.0,0.0,0.0,0.0,0.0,0.0,0.0,0.0,0.0,0.0,0.0,0.0,0.0,0.0,0.0,0.0,0.0,0.0,0.0,-5.1048,-5.1865,-5.1904,-5.2058,-5.2404,-5.3587,-5.4876,-5.628,-5.6088,-5.5145,-5.3453,-5.276,-5.2164,-5.1683,-5.1683,-5.1952,-5.2365,-5.1529,-5.1607,-5.2297,-5.2153,-5.2199,-5.2322,0.0,0.0,0.0,0.0,0.0,0.0,0.0,0.0,0.0,0.0,0.0,0.0,0.0,-5.0587,-5.001,0.0,0.0,0.0,0.0,0.0,0.0,0.0,0.0,0.0,0.0,0.0,0.0,0.0,0.0,0.0,0.0,0.0,0.0,0.0,0.0,0.0,0.0,0.0,0.0,0.0,0.0,0.0,0.0,0.0,0.0,0.0,-5.8398,-5.8848,-5.9199,-5.9199,-5.9433,-5.9922,-5.9922,-6.0078,-6.041,-6.0937,-6.1367,-6.1699,-6.1699,-6.1699,-6.1699,-6.1699,-6.1679,-6.1656,-6.1629,-6.156,-6.1484,-6.1421,-6.1393,-6.1393,-6.1393,-6.1393,-6.1386,0.0,0.0,0.0,0.0,0.0,0.0,0.0,0.0,0.0,0.0,0.0,0.0,0.0,0.0,0.0,0.0,0.0,0.0,0.0,0.0,-5.1048,-5.1865,-5.1981,-5.2385,-5.3183,-5.4607,-5.4607,-5.3087,-5.3953,-5.353,-5.1923,-5.2712,-5.3087,-5.3087,-5.3087,-5.3087,-5.3029,-5.2068,-5.1289,-5.0752,-5.1485,-5.1324,-5.0778,-5.1641,0.0,0.0,0.0,0.0,0.0,0.0,0.0,0.0,0.0,0.0,0.0,-5.1587,-5.1318,0.0,0.0,0.0,0.0,0.0,0.0,0.0,0.0,0.0,0.0,0.0,0.0,0.0,0.0,0.0,0.0,0.0,0.0,0.0,0.0,0.0,0.0,0.0,0.0,0.0,0.0,0.0,0.0,0.0,0.0,0.0,-5.7734,-5.7773,-5.8183,-5.9043,-5.9004,-5.9004,-5.9082,-5.916,-5.957,-6.0293,-6.0449,-6.0937,-6.1699,-6.1699,-6.1699,-6.1699,-6.1699,-6.1656,-6.1594,-6.1592,-6.1552,-6.1473,-6.1415,-6.1393,-6.1393,-6.1393,-6.1393,-6.1386,0.0,0.0,0.0,0.0,0.0,0.0,0.0,0.0,0.0,0.0,0.0,0.0,0.0,0.0,0.0,0.0,0.0,0.0,0.0,0.0,-5.1048,-5.1865,-5.2558,-5.301,-5.3203,-5.2876,-5.2538,-5.2173,-5.3049,-5.2953,-5.1904,-5.2096,-5.2173,-5.2173,-5.2173,-5.2173,-5.2087,-5.0624,-4.9942,-4.9819,-4.9434,-4.9173,-4.9116,-4.9988,-5.0139,0.0,0.0,0.0,0.0,0.0,0.0,0.0,0.0,-5.0712,-5.0731,-5.0914,0.0,0.0,0.0,0.0,0.0,0.0,0.0,0.0,0.0,0.0,0.0,0.0,0.0,0.0,0.0,0.0,0.0,0.0,0.0,0.0,0.0,0.0,0.0,0.0,0.0,0.0,0.0,0.0,0.0,0.0,0.0,0.0,-5.6855,-5.6875,-5.7285,-5.8144,-5.7519,-5.748,-5.8164,-5.8867,-5.9297,-5.9473,-6.0781,-6.1523,-6.1699,-6.1699,-6.1699,-6.1699,-6.1634,-6.1612,-6.1609,-6.1547,-6.1487,-6.1408,-6.1407,-6.1393,-6.1393,-6.1393,-6.1393,-6.1386,0.0,0.0,0.0,0.0,0.0,0.0,0.0,0.0,0.0,0.0,0.0,0.0,0.0,0.0,0.0,0.0,0.0,0.0,0.0,0.0,0.0,-5.2462,-5.3741,-5.403,-5.3222,-5.275,-5.2125,-5.1337,-5.1779,0.0,0.0,0.0,0.0,-5.1904,-5.1904,-5.1692,-5.125,-5.0015,-4.931,-4.8999,-4.8644,-4.8774,-4.9213,-4.9678,-5.0022,-5.0332,-5.074,0.0,0.0,0.0,0.0,0.0,0.0,0.0,-5.0789,-5.1164,0.0,0.0,0.0,0.0,0.0,0.0,0.0,0.0,0.0,0.0,0.0,0.0,0.0,0.0,0.0,0.0,0.0,0.0,0.0,0.0,0.0,0.0,0.0,0.0,0.0,0.0,0.0,0.0,0.0,0.0,0.0,-5.6465,-5.6582,-5.6601,-5.6816,-5.7265,-5.6836,-5.6816,-5.7265,-5.8555,-5.9199,-5.9219,-6.0898,-6.1699,-6.1699,-6.1699,-6.1679,-6.1655,-6.1626,-6.1571,-6.1547,-6.151,-6.1458,-6.1393,-6.1393,-6.1393,-6.1393,-6.1393,-6.1393,-6.1393,0.0,0.0,0.0,0.0,0.0,0.0,0.0,0.0,0.0,0.0,0.0,0.0,0.0,0.0,0.0,0.0,0.0,0.0,0.0,0.0,0.0,0.0,-5.4453,-5.4626,-5.3241,-5.3049,-5.2222,-5.0712,0.0,0.0,0.0,0.0,0.0,-5.1692,0.0,0.0,0.0,0.0,-4.8744,-4.819,-4.8128,-4.8557,-4.9287,-4.9579,-5.0058,-5.0629,-5.0907,-5.0961,-5.0906,-5.0836,0.0,0.0,0.0,0.0,-5.0827,0.0,0.0,0.0,0.0,0.0,0.0,0.0,0.0,0.0,0.0,0.0,0.0,0.0,0.0,0.0,0.0,0.0,0.0,0.0,0.0,0.0,0.0,0.0,0.0,0.0,0.0,0.0,0.0,0.0,0.0,0.0,0.0,-5.6255,-5.6367,-5.623,-5.6211,-5.6367,-5.6387,-5.6445,-5.6601,-5.8183,-5.9043,-5.9219,-6.0898,-6.1699,-6.1699,-6.1699,-6.1656,-6.16,-6.1594,-6.1569,-6.1489,-6.1493,-6.146,-6.1393,-6.1393,-6.1393,-6.1393,-6.1393,-6.1393,-6.1393,0.0,0.0,0.0,0.0,0.0,0.0,0.0,0.0,0.0,0.0,0.0,0.0,0.0,0.0,0.0,0.0,0.0,0.0,0.0,0.0,0.0,0.0,-5.301,-5.3433,-5.3203,-5.2462,-5.1625,-5.0712,0.0,0.0,0.0,0.0,0.0,-5.0856,0.0,0.0,0.0,0.0,0.0,0.0,-4.6707,-4.65,-4.6777,-4.829,-4.8891,-4.9101,-5.05,-5.099,-5.0961,-5.0833,-5.0801,0.0,0.0,0.0,0.0,0.0,0.0,0.0,0.0,0.0,0.0,0.0,0.0,0.0,0.0,0.0,0.0,0.0,0.0,0.0,0.0,0.0,0.0,0.0,0.0,0.0,0.0,0.0,0.0,0.0,0.0,0.0,0.0,0.0,0.0,0.0,-5.5758,-5.5397,-5.5469,-5.4765,-5.4687,-5.5449,-5.5469,-5.584,-5.6582,-5.7578,-5.8457,-5.9219,-6.0898,-6.1699,-6.1699,-6.1633,-6.1603,-6.1598,-6.1607,-6.1549,-6.1504,-6.1441,-6.1407,-6.1393,-6.1393,-6.1393,-6.1393,-6.1393,-6.1393,-6.1393,0.0,0.0,0.0,0.0,0.0,0.0,0.0,0.0,0.0,0.0,0.0,0.0,0.0,0.0,0.0,0.0,0.0,0.0,0.0,0.0,0.0,0.0,-5.2731,-5.2972,-5.2481,-5.2096,-5.151,0.0,0.0,0.0,0.0,-5.0375,-5.0317,0.0,0.0,0.0,0.0,0.0,0.0,0.0,0.0,0.0,0.0,-4.8576,-4.9542,-5.075,-5.1011,-5.1114,-5.1095,-5.0906,-5.0869,-5.0748,-5.0163,0.0,0.0,0.0,0.0,0.0,0.0,0.0,0.0,0.0,0.0,0.0,0.0,0.0,0.0,0.0,0.0,0.0,0.0,0.0,0.0,0.0,0.0,0.0,0.0,0.0,0.0,0.0,0.0,0.0,0.0,0.0,0.0,0.0,-5.5638,-5.5224,-5.5293,-5.4473,-5.4394,-5.5273,-5.5293,-5.5723,-5.6582,-5.7949,-5.9297,-6.0605,-6.1348,-6.1699,-6.168,-6.1162,-6.1163,-6.1607,-6.1553,-6.1519,-6.1447,-6.1414,-6.1393,-6.1393,-6.1393,-6.1393,-6.1393,-6.1393,-6.1393,-6.1393,0.0,0.0,0.0,0.0,0.0,0.0,0.0,0.0,0.0,0.0,0.0,0.0,0.0,0.0,0.0,0.0,0.0,0.0,0.0,0.0,0.0,0.0,0.0,-5.226,-5.1606,-5.1606,0.0,0.0,0.0,0.0,-5.0346,-4.9471,-4.9183,0.0,-4.8518,0.0,0.0,0.0,0.0,0.0,0.0,0.0,0.0,0.0,0.0,-5.2344,-5.1733,-5.1494,-5.1431,-5.1036,-5.0898,-5.0758,-4.9979,0.0,0.0,0.0,0.0,0.0,0.0,0.0,0.0,0.0,0.0,0.0,0.0,0.0,0.0,0.0,0.0,0.0,0.0,0.0,0.0,0.0,0.0,0.0,0.0,0.0,0.0,0.0,0.0,0.0,0.0,0.0,0.0,0.0,-5.5413,-5.4889,-5.494,-5.3926,-5.3848,-5.4941,-5.4961,-5.5605,-5.6914,-5.8633,-6.0039,-6.1074,-6.1269,-6.1367,-6.1347,-6.0694,-6.0846,-6.1573,-6.1281,-6.1264,-6.1393,-6.1393,-6.1393,-6.1393,-6.1393,-6.1393,-6.1393,-6.1393,-6.1393,-6.1393,0.0,0.0,0.0,0.0,0.0,0.0,0.0,0.0,0.0,0.0,0.0,0.0,-5.1003,-5.0844,-5.0801,-5.0793,0.0,0.0,0.0,0.0,0.0,0.0,0.0,0.0,0.0,0.0,0.0,0.0,0.0,0.0,-4.9452,-4.8586,-4.8606,-4.9365,-4.8561,-4.8234,-4.8217,0.0,0.0,0.0,0.0,0.0,0.0,0.0,0.0,0.0,0.0,-5.2348,-5.2194,-5.123,-5.0898,-5.0874,0.0,0.0,0.0,0.0,0.0,0.0,0.0,0.0,0.0,0.0,0.0,0.0,0.0,0.0,0.0,0.0,0.0,0.0,0.0,0.0,0.0,0.0,0.0,0.0,0.0,0.0,0.0,0.0,0.0,0.0,0.0,0.0,0.0,0.0,-5.4881,-5.3964,-5.3966,-5.2419,-5.2305,-5.4004,-5.4062,-5.5273,-5.7812,-5.9492,-6.0,-5.9336,-6.0098,-6.0469,-6.0469,-6.0419,-6.0837,-6.1555,-6.0659,-6.07,-6.1393,-6.1393,-6.1393,-6.1393,-6.1393,-6.1393,-6.1393,-6.1393,-6.1393,-6.1393,0.0,0.0,0.0,0.0,0.0,0.0,0.0,0.0,0.0,0.0,0.0,0.0,0.0,-5.1011,-5.0958,-5.0875,-5.0766,0.0,0.0,0.0,0.0,0.0,0.0,0.0,0.0,0.0,0.0,0.0,0.0,-4.8836,-5.0183,-4.824,-4.8392,-5.0247,-4.8827,-4.7982,-4.7563,-4.6512,0.0,0.0,0.0,0.0,0.0,0.0,0.0,0.0,0.0,0.0,0.0,0.0,0.0,0.0,0.0,0.0,0.0,0.0,0.0,0.0,0.0,0.0,0.0,0.0,0.0,0.0,0.0,0.0,0.0,0.0,0.0,0.0,0.0,0.0,0.0,0.0,0.0,0.0,0.0,0.0,0.0,0.0,0.0,0.0,0.0,0.0,0.0,0.0,0.0,-5.3904,-5.3904,-5.2301,-5.2207,-5.3945,-5.3961,-5.5161,-5.7742,-5.8969,-5.9424,-5.9133,-5.9472,-5.9629,-5.9609,-5.9013,-5.9198,-5.9937,-5.9001,-5.9689,-6.1458,-6.1428,-6.1393,-6.1393,-6.1393,-6.1393,-6.1393,-6.1393,-6.1393,-6.1393,0.0,0.0,0.0,0.0,0.0,0.0,0.0,0.0,0.0,-5.1335,0.0,0.0,0.0,0.0,-5.1075,-5.0903,-5.0799,-5.0731,-5.0693,0.0,0.0,0.0,0.0,0.0,0.0,0.0,0.0,0.0,0.0,0.0,0.0,-4.7971,-4.7987,-4.9867,-4.8485,-4.794,0.0,0.0,0.0,-4.6795,0.0,0.0,-5.0992,0.0,0.0,0.0,0.0,0.0,0.0,0.0,0.0,0.0,0.0,0.0,0.0,0.0,0.0,0.0,0.0,0.0,0.0,0.0,0.0,0.0,0.0,0.0,0.0,0.0,0.0,0.0,0.0,0.0,0.0,0.0,0.0,0.0,0.0,0.0,0.0,0.0,0.0,0.0,0.0,0.0,0.0,0.0,0.0,0.0,-5.3908,-5.2314,-5.2187,-5.3904,-5.4745,-5.5994,-5.7718,-5.8642,-5.8969,-5.8703,-5.8749,-5.8769,-5.873,-5.8121,-5.8308,-5.906,-5.8415,-5.9256,-6.1056,-6.1012,-6.1155,-6.1393,-6.1393,-6.1393,-6.1393,-6.1393,-6.1393,-6.1393,0.0,0.0,0.0,0.0,0.0,0.0,0.0,0.0,-5.1333,-5.1387,0.0,0.0,0.0,0.0,0.0,-5.0918,-5.0839,-5.0776,-5.0702,-5.0693,0.0,0.0,0.0,0.0,0.0,0.0,0.0,0.0,0.0,0.0,0.0,0.0,-4.7342,-4.8169,-4.7475,-4.8146,-4.9664,0.0,-4.6698,-4.7659,0.0,-5.0175,-5.0454,0.0,0.0,0.0,-5.3891,-5.3858,0.0,-5.3821,0.0,0.0,0.0,0.0,0.0,0.0,0.0,0.0,0.0,0.0,0.0,0.0,0.0,0.0,0.0,0.0,0.0,0.0,0.0,0.0,0.0,0.0,0.0,0.0,0.0,0.0,0.0,0.0,0.0,0.0,0.0,0.0,0.0,0.0,0.0,0.0,-5.4663,-5.3821,-5.3897,-5.2368,-5.2225,-5.3886,-5.6389,-5.7716,-5.7752,-5.8613,-5.8643,-5.7851,-5.7851,-5.7851,-5.7851,-5.7851,-5.8298,-5.9023,-5.8967,-5.9377,-6.0126,-6.018,-6.0668,-6.1393,-6.14,-6.14,-6.1393,-6.14,-6.14,-6.1393,0.0,0.0,0.0,0.0,0.0,0.0,0.0,-5.1677,-5.1382,0.0,0.0,0.0,-5.1377,-5.1268,-5.1165,-5.1053,-5.089,-5.0793,-5.0766,-5.0731,-5.0712,-5.0712,-5.0712,0.0,0.0,0.0,0.0,0.0,0.0,0.0,0.0,0.0,0.0,0.0,-4.6882,-4.6971,-4.8083,-4.6766,0.0,0.0,-5.0652,-5.1849,0.0,0.0,0.0,0.0,0.0,-5.3022,-5.3118,0.0,-5.2633,-5.1141,0.0,0.0,0.0,0.0,0.0,0.0,-4.6318,0.0,0.0,0.0,0.0,0.0,0.0,0.0,0.0,0.0,0.0,0.0,0.0,0.0,0.0,0.0,0.0,0.0,0.0,0.0,0.0,0.0,0.0,0.0,0.0,0.0,0.0,0.0,-5.4621,-5.3784,-5.3897,-5.3453,-5.3695,-5.4725,-5.6625,-5.7364,-5.6781,-5.7658,-5.7675,-5.6885,-5.6932,-5.6953,-5.6953,-5.6953,-5.709,-5.7283,-5.7261,-5.7684,-5.8476,-5.9655,-6.0631,-6.1407,-6.1446,-6.1447,-6.1414,-6.1519,-6.1487,-6.1407,0.0,0.0,0.0,0.0,0.0,0.0,0.0,-5.2176,-5.1803,0.0,0.0,0.0,-5.14,-5.1332,-5.1255,-5.1152,-5.1017,-5.0894,-5.081,-5.0767,-5.073,-5.073,-5.0712,-5.0712,0.0,0.0,0.0,0.0,0.0,0.0,0.0,0.0,0.0,0.0,0.0,0.0,0.0,0.0,0.0,0.0,-5.0776,0.0,0.0,-5.4323,-5.5472,0.0,0.0,0.0,-5.5488,-5.5954,-5.4385,0.0,0.0,0.0,0.0,0.0,0.0,0.0,0.0,0.0,0.0,0.0,0.0,0.0,-5.0279,-5.2337,0.0,0.0,0.0,0.0,0.0,0.0,0.0,0.0,0.0,0.0,0.0,0.0,0.0,0.0,0.0,0.0,0.0,-5.5866,-5.5923,-5.601,-5.4895,-5.4102,-5.392,-5.3905,-5.4265,-5.5074,-5.6373,-5.6855,-5.6394,-5.6897,-5.6946,-5.6536,-5.6581,-5.6601,-5.6601,-5.6601,-5.6581,-5.6559,-5.6559,-5.699,-5.7762,-5.872,-5.9805,-6.0909,-6.0965,-6.1178,-6.1446,-6.156,-6.1529,-6.144,0.0,0.0,0.0,0.0,0.0,0.0,0.0,-5.3258,-5.2454,0.0,-5.1597,-5.1516,-5.1406,-5.14,-5.1353,-5.1225,-5.1156,-5.1023,-5.085,-5.0825,-5.0769,-5.0675,-5.0691,-5.071,-5.0675,0.0,0.0,0.0,0.0,0.0,0.0,0.0,0.0,0.0,0.0,0.0,0.0,0.0,0.0,-4.7994,-5.0232,-5.1352,0.0,0.0,-5.5302,-5.5683,-5.6465,-5.7676,-5.8887,-5.8691,-5.7165,0.0,0.0,0.0,0.0,0.0,-4.8567,0.0,0.0,0.0,0.0,0.0,0.0,0.0,-5.0642,-5.1057,-5.147,0.0,0.0,0.0,0.0,0.0,0.0,0.0,0.0,0.0,0.0,0.0,0.0,0.0,0.0,0.0,-5.5934,-5.5951,-5.6001,-5.5914,-5.5296,-5.4657,-5.4079,-5.4036,-5.4411,-5.5211,-5.5939,-5.6322,-5.6404,-5.6404,-5.6469,-5.6601,-5.6601,-5.6601,-5.6601,-5.6601,-5.656,-5.6507,-5.6507,-5.6901,-5.7564,-5.7567,-5.855,-6.0069,-6.0254,-6.075,-6.1398,-6.1552,-6.1573,-6.152,0.0,0.0,0.0,0.0,0.0,0.0,0.0,0.0,-5.289,-5.3418,-5.2871,-5.2187,-5.1484,-5.14,-5.1387,-5.1357,-5.1258,-5.1147,-5.106,-5.0979,-5.062,-4.9877,-5.0491,-5.0529,-4.9858,-5.0471,0.0,0.0,0.0,0.0,0.0,0.0,0.0,0.0,0.0,0.0,0.0,0.0,0.0,-4.9705,-5.0035,0.0,-5.338,-5.4632,-5.6014,-5.7333,-5.7577,-5.7402,-5.6894,-5.5488,-5.5563,-5.5843,0.0,0.0,0.0,0.0,0.0,0.0,0.0,0.0,0.0,0.0,0.0,0.0,-4.7021,-4.8114,-4.9155,0.0,0.0,0.0,0.0,0.0,0.0,0.0,0.0,0.0,0.0,0.0,0.0,0.0,0.0,0.0,-5.683,-5.6774,-5.6528,-5.5943,-5.5326,-5.4974,-5.4944,-5.4895,-5.525,-5.6111,-5.6255,-5.6322,-5.6404,-5.6404,-5.6469,-5.6601,-5.6601,-5.6601,-5.6601,-5.6601,-5.6582,-5.6581,-5.6581,-5.6634,-5.6731,-5.6789,-5.7766,-5.9318,-6.0073,-6.0433,-6.0632,-6.1391,-6.1631,-6.1588,0.0,0.0,0.0,0.0,0.0,0.0,0.0,0.0,-5.3848,-5.3418,-5.2598,-5.1894,-5.1445,-5.1405,-5.1399,-5.139,-5.1347,-5.1262,-5.1156,-5.1092,-5.0835,-5.0371,-5.0725,-5.0757,-5.0352,-5.0325,0.0,0.0,0.0,0.0,0.0,0.0,0.0,0.0,0.0,0.0,0.0,0.0,-4.8359,-4.9648,-5.0836,0.0,-5.4637,-5.596,-5.7303,-5.855,-5.8984,-5.914,-5.8945,-5.7637,-5.662,0.0,0.0,-5.4003,-5.2994,0.0,-5.1291,-5.0703,0.0,0.0,0.0,-4.6255,0.0,0.0,0.0,-4.79,-4.8735,0.0,0.0,0.0,0.0,0.0,0.0,0.0,0.0,0.0,0.0,0.0,0.0,0.0,0.0,0.0,-5.7723,-5.7272,-5.6701,-5.6009,-5.5333,-5.5208,-5.5763,-5.5345,-5.5503,-5.6365,-5.6333,-5.6322,-5.6404,-5.6404,-5.6469,-5.6601,-5.6601,-5.6601,-5.6601,-5.6601,-5.6601,-5.6601,-5.6601,-5.6581,-5.6558,-5.6582,-5.7086,-5.7947,-5.9288,-6.0022,-6.0468,-6.1364,-6.1652,-6.1601,0.0,0.0,0.0,0.0,0.0,0.0,0.0,0.0,0.0,-5.2656,-5.2129,-5.1894,-5.1894,-5.1894,-5.203,-5.2374,-5.2099,-5.1849,-5.1726,-5.1518,-5.1249,-5.0899,-5.0994,-5.1009,-5.0899,-5.0359,-4.996,0.0,0.0,0.0,0.0,0.0,0.0,0.0,0.0,0.0,0.0,0.0,0.0,-4.957,0.0,-5.343,-5.4726,-5.6242,-5.7593,-5.8867,-6.0176,-6.1094,-6.1484,-6.0137,-5.7832,-5.5527,-5.541,-5.4373,0.0,0.0,0.0,0.0,0.0,0.0,0.0,0.0,0.0,-4.6726,0.0,0.0,0.0,0.0,0.0,0.0,0.0,0.0,0.0,0.0,0.0,0.0,0.0,0.0,0.0,0.0,0.0,0.0,-5.8187,-5.7118,-5.6433,-5.6265,-5.5262,-5.5151,-5.6338,-5.5735,-5.5675,-5.637,-5.6322,-5.6322,-5.6404,-5.6404,-5.6469,-5.6601,-5.6601,-5.6601,-5.6601,-5.6601,-5.6601,-5.6601,-5.6601,-5.6601,-5.6601,-5.6601,-5.6601,-5.6777,-5.8515,-5.9607,-6.0281,-6.1327,-6.1677,-6.163,-5.4202,-5.4877,0.0,0.0,0.0,0.0,0.0,0.0,0.0,0.0,0.0,0.0,0.0,0.0,0.0,0.0,0.0,0.0,-5.3592,0.0,-5.1796,-5.0192,-5.0869,-5.0908,-5.0134,-5.0723,-5.0665,0.0,0.0,0.0,0.0,0.0,0.0,0.0,-4.701,0.0,0.0,0.0,-4.9605,0.0,-5.2277,-5.2358,0.0,-5.291,-5.4785,-5.7305,-6.043,-6.1621,-6.1211,0.0,-5.6777,-5.5801,0.0,-5.2793,-5.4258,0.0,0.0,0.0,0.0,0.0,0.0,0.0,-4.6812,0.0,0.0,0.0,-4.744,-4.6862,0.0,0.0,0.0,0.0,0.0,0.0,0.0,0.0,0.0,0.0,0.0,0.0,0.0,0.0,0.0,-5.5756,-5.5431,-5.7039,-5.5035,-5.4523,-5.6319,-5.6313,-5.6305,-5.6407,-5.6333,-5.6322,-5.6404,-5.6404,-5.6469,-5.6601,-5.6601,-5.6601,-5.6601,-5.6601,-5.6601,-5.6601,-5.6601,-5.6601,-5.6601,-5.6601,-5.6601,-5.6777,-5.8515,-5.9258,-5.9531,-6.1113,-6.1699,-6.1699,0.0,-5.4276,0.0,0.0,0.0,0.0,0.0,0.0,0.0,0.0,0.0,0.0,0.0,0.0,0.0,0.0,0.0,-5.3984,0.0,0.0,0.0,0.0,0.0,0.0,-5.0826,-5.0697,-5.042,-5.0013,-4.9084,0.0,0.0,0.0,0.0,0.0,-4.7849,0.0,-4.8672,0.0,0.0,0.0,0.0,0.0,0.0,-5.5176,-5.7441,-5.8984,-6.043,-6.0957,-6.0723,0.0,-5.7148,0.0,0.0,0.0,0.0,0.0,0.0,0.0,0.0,0.0,0.0,0.0,0.0,0.0,-4.739,0.0,-4.7249,0.0,0.0,0.0,0.0,0.0,0.0,0.0,0.0,0.0,0.0,0.0,0.0,0.0,0.0,0.0,0.0,0.0,0.0,0.0,-5.5948,-5.5498,-5.6344,-5.636,-5.6355,-5.6393,-5.6306,-5.6285,-5.6404,-5.6433,-5.6506,-5.6601,-5.6601,-5.6601,-5.6601,-5.6601,-5.6601,-5.6601,-5.6601,-5.6601,-5.6601,-5.6601,-5.6601,-5.6719,-5.7969,-5.875,-5.9336,-6.0508,-6.1269,-6.1699,0.0,0.0,0.0,0.0,0.0,0.0,0.0,0.0,0.0,0.0,0.0,0.0,-5.0527,-5.1172,0.0,0.0,-5.4922,-5.543,0.0,0.0,-5.3859,0.0,0.0,0.0,0.0,0.0,-5.0507,0.0,0.0,0.0,0.0,0.0,0.0,0.0,0.0,-4.9333,-5.0293,0.0,0.0,-5.2519,-5.3024,-5.3227,-5.3535,-5.6875,-5.9082,-6.0371,-6.0156,-6.0078,-5.9961,-5.9238,-5.6933,0.0,-5.6484,0.0,0.0,0.0,0.0,0.0,-4.8789,0.0,0.0,0.0,0.0,0.0,0.0,0.0,0.0,0.0,0.0,0.0,0.0,0.0,0.0,0.0,0.0,0.0,0.0,0.0,0.0,0.0,0.0,0.0,0.0,0.0,0.0,-5.6961,-5.6259,-5.6098,-5.6696,-5.6684,-5.6781,-5.7074,-5.6978,-5.6977,-5.7106,-5.6938,-5.6886,-5.6953,-5.6719,-5.6601,-5.6601,-5.6601,-5.6601,-5.6601,-5.6601,-5.6601,-5.6601,-5.6601,-5.6601,-5.666,-5.7305,-5.8223,-5.9297,-6.0098,-6.0957,-6.1699,-5.1484,-5.2168,0.0,0.0,0.0,0.0,0.0,0.0,0.0,0.0,0.0,0.0,0.0,0.0,0.0,0.0,0.0,-5.9023,-5.9023,0.0,-5.5605,0.0,0.0,-5.2187,0.0,0.0,0.0,0.0,0.0,0.0,0.0,0.0,0.0,0.0,0.0,-4.9375,-5.0312,-5.1984,-5.3647,-5.5176,-5.5129,-5.6147,-5.7539,0.0,-5.75,-6.0293,-5.9512,0.0,0.0,-5.6328,-5.5371,0.0,0.0,0.0,0.0,0.0,0.0,0.0,0.0,0.0,0.0,-4.6777,0.0,0.0,0.0,0.0,-4.8613,0.0,0.0,0.0,0.0,0.0,-4.8599,-4.856,0.0,0.0,0.0,0.0,0.0,0.0,0.0,0.0,0.0,0.0,-5.5026,-5.5975,-5.5366,-5.5712,-5.7477,-5.7558,-5.7946,-5.8788,-5.8748,-5.8787,-5.8923,-5.8148,-5.7784,-5.7851,-5.6992,-5.6601,-5.6601,-5.6601,-5.6601,-5.6601,-5.6601,-5.6601,-5.6601,-5.6601,-5.6601,-5.6601,-5.6621,-5.7695,-5.9297,-6.0098,-6.0957,-6.1699,0.0,0.0,0.0,0.0,0.0,0.0,0.0,-5.082,0.0,0.0,0.0,0.0,0.0,-5.4696,-5.5947,0.0,0.0,-5.9155,-5.9199,-5.7285,0.0,0.0,0.0,-5.2226,0.0,0.0,0.0,0.0,0.0,0.0,0.0,0.0,0.0,0.0,0.0,-5.0547,0.0,0.0,0.0,0.0,0.0,-5.5624,-5.6172,0.0,-5.7598,-5.9492,-5.8633,-5.834,0.0,-5.7988,-5.6348,-5.459,-5.543,-5.4334,-5.2766,-5.3046,-5.2928,-5.2395,0.0,0.0,-5.2441,-4.959,0.0,0.0,0.0,0.0,0.0,0.0,0.0,0.0,0.0,0.0,-4.8761,-4.8738,-4.8389,0.0,0.0,0.0,0.0,0.0,0.0,0.0,0.0,0.0,0.0,-5.7468,-5.6405,-5.6222,-5.7467,-5.7528,-5.7681,-5.8024,-5.8588,-5.8918,-5.9001,-5.8245,-5.789,-5.789,-5.7012,-5.6601,-5.6601,-5.6601,-5.6601,-5.6601,-5.6601,-5.6601,-5.6601,-5.6601,-5.6601,-5.666,-5.7246,-5.8164,-5.9238,-5.9512,-6.0488,-6.1699,-5.1465,0.0,0.0,0.0,0.0,0.0,0.0,0.0,0.0,0.0,-5.2772,0.0,-5.4548,0.0,-5.6209,0.0,-5.8879,-5.9322,-5.8746,-5.7968,0.0,-5.707,-5.4609,0.0,0.0,0.0,0.0,0.0,0.0,-4.9297,0.0,0.0,0.0,0.0,0.0,0.0,0.0,0.0,-5.6593,0.0,0.0,-5.5762,0.0,0.0,-5.7109,-5.7773,0.0,-5.7441,-5.7519,-5.8086,-5.6777,-5.5173,-5.6872,-5.5455,-5.3403,-5.4517,-5.4066,-5.3089,-5.2456,-5.3534,0.0,-5.1326,-5.1853,0.0,-4.8806,0.0,0.0,0.0,0.0,0.0,0.0,0.0,0.0,-5.0514,-4.9786,0.0,0.0,-4.7567,0.0,0.0,0.0,0.0,0.0,0.0,-5.5595,-5.7419,-5.6645,-5.6516,0.0,-5.781,-5.8169,-5.8586,-5.936,-5.9829,-5.9926,-5.8881,-5.8359,-5.8359,-5.7168,-5.6601,-5.6601,-5.6601,-5.6601,-5.6601,-5.6601,-5.6601,-5.6601,-5.6601,-5.6777,-5.7129,-5.7676,-5.8613,-5.9629,-5.9629,-6.0508,-6.1699,0.0,0.0,0.0,0.0,-4.9512,0.0,0.0,0.0,-4.9961,0.0,-5.2137,-5.2314,-5.3975,-5.5564,-5.6842,-5.768,-5.9368,-5.9683,-5.8022,-5.8707,0.0,0.0,-5.7129,-5.7422,-5.916,0.0,0.0,0.0,0.0,0.0,0.0,0.0,0.0,0.0,-4.7266,0.0,-5.4062,-5.498,-5.6875,-5.9101,-5.7363,-5.6601,-5.6543,-5.6582,-5.6035,-5.5351,-5.6269,-5.6601,-5.6601,-5.6601,-5.6518,-5.6444,-5.6483,-5.6458,-5.64,-5.6404,-5.6455,-5.6128,-5.4468,-5.4075,-5.371,-5.1955,-5.1519,0.0,0.0,0.0,-5.051,0.0,0.0,0.0,0.0,0.0,0.0,0.0,0.0,0.0,0.0,0.0,0.0,0.0,0.0,0.0,0.0,-5.2872,-5.4051,-5.5849,-5.6009,0.0,0.0,-5.832,-5.9232,-6.029,-6.1022,-6.1467,-6.16,-5.9998,-5.9199,-5.918,-5.7422,-5.6601,-5.6601,-5.6601,-5.6601,-5.6601,-5.6601,-5.6601,-5.6601,-5.6601,-5.7109,-5.789,-5.7949,-5.8984,-6.0469,-6.0469,-6.0996,-6.1719,-5.1445,-5.0918,-5.0429,0.0,-4.9978,-4.9726,0.0,0.0,0.0,0.0,-5.4921,-5.6314,-5.749,-5.7955,-5.8286,-5.8574,-5.9557,0.0,0.0,0.0,0.0,-6.0534,-5.8023,-5.7422,-5.916,-5.5781,0.0,-5.2695,0.0,0.0,-4.7578,0.0,0.0,0.0,0.0,0.0,-5.4101,-5.5625,-5.7754,-5.9941,-5.8242,-5.6797,0.0,0.0,-5.5664,-5.4531,-5.6055,-5.6601,-5.6582,-5.6536,-5.6079,-5.564,-5.6238,-5.6409,-5.6409,-5.6393,-5.6406,-5.6336,-5.5886,-5.5767,-5.5382,-5.3688,-5.3256,-5.2807,0.0,0.0,0.0,0.0,0.0,0.0,0.0,0.0,0.0,0.0,0.0,0.0,0.0,0.0,0.0,0.0,0.0,0.0,-5.2155,-5.2865,-5.4033,-5.5788,-5.5384,0.0,0.0,0.0,-5.8386,-5.9392,-6.0812,-6.1573,-6.16,-5.9998,-5.9199,-5.918,-5.7422,-5.6601,-5.6601,-5.6601,-5.6601,-5.6601,-5.6601,-5.6601,-5.6601,-5.6601,-5.7109,-5.7969,-5.8613,-5.9883,-6.1367,-6.1367,-6.1504,-6.1797,-5.0975,0.0,0.0,-4.9955,0.0,0.0,-5.0438,-5.0345,0.0,-5.3462,-5.4587,0.0,-5.6973,-5.7735,-5.8316,-5.8719,-5.8869,0.0,-5.7828,0.0,0.0,-5.9276,-5.8907,-5.9205,-6.0273,-5.7244,0.0,-5.3262,0.0,0.0,-4.7012,0.0,0.0,0.0,0.0,-5.0019,0.0,-5.5937,-5.7558,-5.8144,-5.7969,0.0,0.0,-5.6406,-5.5976,-5.5172,-5.5778,-5.5993,-5.6031,-5.6372,-5.5899,-5.5298,-5.6145,-5.6383,-5.6367,-5.6369,-5.6105,-5.5833,-5.5833,-5.5571,-5.5175,-5.4578,-5.4414,-5.406,-5.2707,-5.3155,-5.3966,0.0,-5.4937,-5.5643,0.0,0.0,0.0,0.0,0.0,0.0,0.0,0.0,0.0,0.0,0.0,0.0,-5.1849,-5.3151,-5.4409,-5.5387,-5.5031,0.0,0.0,0.0,-5.8281,-5.8567,-6.0536,-6.1607,-6.1633,-6.037,-5.9551,-5.918,-5.7812,-5.6973,-5.6601,-5.6601,-5.6601,-5.6601,-5.6601,-5.6601,-5.6621,-5.7012,-5.7676,-5.8594,-5.9824,-6.0879,-6.1699,-6.1699,-6.1699,-6.1816,0.0,0.0,0.0,0.0,0.0,0.0,0.0,-5.0244,0.0,-5.3142,0.0,-5.3434,-5.4808,-5.6241,-5.7424,-5.8196,0.0,-5.6725,-5.5203,-5.815,-5.9045,-5.6939,-5.9774,-6.1485,-6.1678,-5.9129,-5.6611,0.0,0.0,0.0,0.0,0.0,0.0,0.0,0.0,0.0,0.0,-5.6269,-5.7207,-5.5937,-5.7461,-5.7539,-5.6738,-5.6621,-5.6557,-5.6382,-5.5622,-5.5292,-5.5292,-5.5929,-5.5685,-5.522,-5.5989,-5.6189,-5.6136,-5.6136,-5.5555,-5.4918,-5.4918,-5.4418,-5.4079,-5.4874,-5.5088,-5.4913,-5.428,-5.4193,-5.448,-5.5248,-5.4948,-5.5652,-5.9334,0.0,0.0,0.0,0.0,0.0,0.0,0.0,0.0,0.0,0.0,0.0,0.0,-5.3312,-5.4573,0.0,0.0,0.0,0.0,0.0,-5.8413,-5.8086,-6.0362,-6.1631,-6.1699,-6.084,-6.0058,-5.9355,-5.8379,-5.75,-5.6777,-5.664,-5.6601,-5.6601,-5.6601,-5.666,-5.6836,-5.7598,-5.8476,-5.9512,-6.1094,-6.1699,-6.1699,-6.1699,-6.1699,-6.1836,0.0,0.0,0.0,0.0,0.0,-5.0722,-5.2829,-5.3855,-5.4209,-5.3598,-5.5069,-5.6078,-5.5825,-5.5998,-5.6222,-5.6429,-5.6887,0.0,0.0,0.0,0.0,-5.9211,-6.0614,-6.1436,-6.152,-5.9074,-5.6904,0.0,0.0,0.0,0.0,0.0,0.0,0.0,0.0,0.0,-5.3789,-5.7422,0.0,-5.8535,-5.8848,-5.8416,-5.7506,-5.6783,-5.6474,-5.64,-5.6244,-5.5759,-5.5112,-5.448,-5.4639,-5.5113,-5.5213,-5.5236,-5.5223,-5.5223,-5.4614,-5.3952,-5.3952,-5.3847,-5.3936,-5.4807,-5.5015,-5.517,-5.5734,-5.633,-5.682,-5.6977,-5.7495,-5.7962,-5.8006,0.0,0.0,0.0,0.0,0.0,0.0,0.0,0.0,0.0,0.0,0.0,0.0,0.0,0.0,0.0,0.0,0.0,0.0,0.0,-5.748,0.0,-6.0674,0.0,0.0,0.0,-6.0332,-6.0176,-5.8633,-5.7812,-5.7656,-5.6933,-5.6601,-5.6601,-5.6601,-5.7012,-5.7676,-5.7832,-5.8808,-6.0293,-6.1308,-6.1699,-6.1699,-6.1699,-6.1699,-6.1933,0.0,0.0,0.0,0.0,0.0,0.0,0.0,-5.5769,-5.6223,-5.3672,-5.4323,-5.4725,-5.3957,-5.5027,-5.5807,-5.5837,-5.6183,-5.6384,-5.6384,-5.7602,-5.8384,-5.8449,-5.9782,0.0,-6.0821,-5.9189,-5.7113,-5.4629,0.0,0.0,0.0,0.0,0.0,0.0,0.0,-5.0332,0.0,0.0,0.0,-5.6576,-5.7895,-5.7881,-5.7024,-5.6614,-5.643,-5.6344,-5.5896,-5.5446,-5.5103,-5.5142,-5.5098,-5.503,-5.5002,-5.532,-5.5592,-5.5126,-5.4699,-5.4271,-5.3831,-5.3364,-5.3125,-5.3553,-5.365,-5.3987,-5.5274,-5.586,-5.6203,-5.659,-5.7723,-5.8549,-5.8223,-5.7221,0.0,0.0,0.0,0.0,0.0,0.0,0.0,0.0,0.0,0.0,0.0,0.0,0.0,0.0,0.0,0.0,0.0,0.0,-5.7557,0.0,0.0,0.0,-6.1699,0.0,-6.0859,-6.039,-5.916,-5.834,-5.7871,-5.6992,-5.6601,-5.6601,-5.6601,-5.709,-5.7969,-5.8848,-5.9941,-6.1113,-6.1543,-6.1699,-6.1699,-6.1699,-6.1992,-6.2558,0.0,-4.7949,0.0,0.0,-5.2627,0.0,-5.4395,-5.6357,-5.678,-5.4087,-5.3741,-5.3472,-5.2769,-5.4491,-5.5703,-5.5703,-5.5703,-5.5703,-5.5703,-5.6522,-5.705,-5.7153,-5.879,-5.9838,-6.0134,-5.942,-5.7664,0.0,0.0,0.0,0.0,0.0,0.0,0.0,0.0,0.0,0.0,0.0,-5.5972,-5.4888,-5.689,-5.7157,-5.6356,-5.6356,-5.6348,-5.6228,-5.5547,-5.5267,-5.5326,-5.6069,-5.5732,-5.4971,-5.4776,-5.532,-5.5845,-5.4971,-5.4718,-5.4563,-5.3889,-5.3048,-5.2445,-5.2602,-5.2524,-5.2777,-5.4253,-5.4719,-5.4998,-5.5589,-5.7184,-5.848,-5.8476,-5.7918,0.0,0.0,0.0,0.0,0.0,0.0,0.0,0.0,0.0,0.0,0.0,0.0,0.0,0.0,0.0,-5.3666,-5.3886,-5.6225,-5.7572,0.0,0.0,-6.1348,-6.1172,0.0,-6.1367,-6.0664,-5.9844,-5.9004,-5.8144,-5.7461,-5.7051,-5.6894,-5.707,-5.7637,-5.8555,-6.0058,-6.1074,-6.1699,-6.1699,-6.1699,-6.1719,-6.1914,-6.2402,-6.3144,0.0,0.0,0.0,0.0,0.0,0.0,-5.4491,-5.5318,-5.5818,-5.5511,-5.5472,-5.5434,-5.5357,-5.5549,-5.5703,-5.5703,-5.5703,-5.5703,-5.5703,-5.6522,-5.7014,-5.7026,-5.8748,-5.9774,-5.9929,-5.9899,-5.9099,0.0,0.0,-5.1573,0.0,0.0,0.0,0.0,0.0,0.0,0.0,-5.6875,-5.7541,-5.7366,-5.76,-5.7115,-5.6228,-5.6228,-5.6149,-5.6035,-5.5957,-5.591,-5.5921,-5.6007,-5.5586,-5.4854,-5.4058,-5.4427,-5.4951,-5.4077,-5.3831,-5.3811,-5.3714,-5.3048,-5.2589,-5.3307,-5.2879,-5.2547,-5.3422,-5.4151,-5.464,-5.4708,-5.6696,-5.822,-5.7559,-5.9357,-6.0469,0.0,0.0,0.0,0.0,0.0,0.0,0.0,0.0,0.0,0.0,-5.5444,0.0,0.0,-5.3627,-5.3121,-5.3867,-5.57,-5.6718,-5.6719,-5.9199,-6.0176,-5.9433,-6.0937,-6.166,-6.1562,-6.0703,-5.9863,-5.9082,-5.8984,-5.8535,-5.7812,-5.8613,-5.9414,-6.0234,-6.1191,-6.1621,-6.1699,-6.1699,-6.1699,-6.1797,-6.2598,-6.293,-6.3242,0.0,0.0,0.0,0.0,0.0,0.0,0.0,-5.6272,-5.6291,-5.5761,-5.5703,-5.5703,-5.5703,-5.5703,-5.5703,-5.5703,-5.5703,-5.5703,-5.5703,-5.603,-5.6233,-5.6233,-5.7412,-5.8143,-5.8285,-5.8308,-5.758,0.0,0.0,0.0,0.0,0.0,0.0,0.0,0.0,-5.4332,-5.5853,-5.7566,-5.827,-5.8192,-5.7671,-5.7215,-5.6792,-5.6276,-5.6048,-5.6012,-5.6012,-5.6012,-5.6012,-5.6012,-5.5862,-5.5525,-5.4671,-5.5055,-5.5612,-5.4737,-5.4854,-5.5145,-5.4621,-5.3819,-5.3061,-5.2879,-5.2131,-5.1664,-5.2473,-5.325,-5.3957,-5.4438,-5.6566,-5.8585,-5.937,-5.9665,-6.0263,-6.1784,0.0,0.0,0.0,0.0,0.0,0.0,0.0,0.0,0.0,0.0,0.0,0.0,0.0,-5.3557,-5.3888,-5.6111,-5.7383,-5.7383,0.0,-6.1035,-6.0703,-6.1367,-6.1699,-6.1699,-6.082,-6.0234,-5.9902,-5.9414,-5.9004,-5.873,-5.9551,-6.0098,-6.0469,-6.1348,-6.1699,-6.1699,-6.1699,-6.2012,-6.2519,-6.2871,-6.332,-6.3945,-5.1741,0.0,-5.2606,0.0,-5.5415,-5.5626,-5.683,-5.6791,-5.6406,-5.578,-5.5703,-5.5703,-5.5703,-5.5703,-5.5703,-5.5703,-5.5703,-5.5703,-5.5703,-5.5703,-5.5703,-5.5703,-5.6541,0.0,-5.7232,-5.745,-5.692,-5.5669,-5.3375,0.0,0.0,0.0,0.0,0.0,-5.4493,-5.5847,-5.6931,-5.8374,-5.8963,-5.8858,-5.7749,-5.7281,-5.7147,-5.6297,-5.595,-5.5903,-5.5903,-5.5903,-5.5903,-5.5903,-5.5975,-5.5896,-5.5087,-5.5295,-5.5648,-5.4814,-5.4989,-5.5345,-5.4737,-5.3887,-5.3049,-5.2399,-5.1552,-5.1015,-5.1556,-5.2521,-5.3639,-5.4955,-5.6876,-5.877,-6.0278,-5.9956,-6.03,-6.2859,0.0,0.0,0.0,0.0,0.0,0.0,-6.1388,-5.9827,-5.9509,0.0,0.0,0.0,0.0,0.0,0.0,-5.7108,0.0,0.0,0.0,0.0,-6.1328,-6.1836,-6.1953,-6.1699,-6.1074,-6.0644,-6.0371,-5.9805,-5.9687,-5.9961,-6.0547,-6.0781,-6.082,-6.1445,-6.1699,-6.1699,-6.1699,-6.2226,-6.3027,-6.3281,-6.3926,-6.4805,-5.3953,-5.4453,-5.5261,-5.7819,-5.753,-5.6983,-5.7003,-5.6272,-5.5703,-5.5703,-5.5703,-5.5703,-5.5703,-5.5703,-5.5703,-5.5703,-5.5703,-5.5703,-5.5703,-5.5703,-5.5703,0.0,0.0,-5.7089,-5.7288,-5.8008,-5.8088,-5.7474,0.0,0.0,-5.351,0.0,-5.19,-5.3666,-5.5339,-5.7003,-5.8624,-5.9517,-5.9847,-5.9639,-5.7976,-5.7225,-5.7014,-5.6223,-5.5826,-5.5695,-5.5695,-5.5695,-5.5695,-5.5695,-5.5787,-5.576,-5.4961,-5.4705,-5.4559,-5.3757,-5.3533,-5.3533,-5.3514,-5.2875,-5.2205,-5.2121,-5.1457,-5.0794,-5.0731,-5.201,-5.3914,-5.6445,-5.7684,-5.855,-5.9358,-6.0489,-6.1289,-6.1328,0.0,0.0,0.0,0.0,0.0,0.0,-6.0036,-5.931,-6.029,0.0,0.0,0.0,0.0,0.0,0.0,0.0,0.0,-5.918,-6.166,0.0,-6.043,-6.2129,-6.2558,-6.1699,-6.1699,-6.123,-6.039,-6.039,-6.0859,-6.168,-6.168,-6.168,-6.1699,-6.1699,-6.1699,-6.1699,-6.1699,-6.2226,-6.3105,-6.3965,-6.4844,-6.5703,-5.5164,-5.5318,-5.5568,-5.6395,-5.6214,-5.6019,-5.6096,-5.5791,-5.5596,-5.5692,-5.5703,-5.5703,-5.5703,-5.5703,-5.5703,0.0,-5.5703,-5.5703,0.0,-5.5703,-5.5703,-5.5703,-5.5972,-5.615,-5.6222,-5.6431,-5.6482,-5.6269,0.0,0.0,0.0,-5.4617,-5.5254,-5.691,-5.7949,-5.8713,-5.9271,-6.015,-6.0505,-6.0335,-5.8659,-5.7963,-5.7758,-5.6314,-5.5735,-5.5703,-5.5703,-5.5703,-5.5703,-5.5703,-5.5735,-5.5728,-5.545,-5.5064,-5.4531,-5.3738,-5.3494,-5.3494,-5.3494,-5.2826,-5.2129,-5.2103,-5.1827,-5.1549,-5.151,-5.2856,-5.4645,-5.6599,-5.7684,-5.855,-5.9358,-6.0449,-6.1432,-6.2022,-6.2796,0.0,-6.3673,0.0,0.0,0.0,-6.1248,-6.0633,-6.0925,-5.9966,0.0,0.0,0.0,0.0,0.0,0.0,0.0,0.0,-6.2539,0.0,-6.3066,-6.3613,-6.3457,-6.2598,-6.2598,-6.2129,-6.1289,-6.1289,-6.1445,-6.1699,-6.1699,-6.1699,-6.1699,-6.1699,-6.2051,-6.2598,-6.2598,-6.3476,-6.4805,-6.5078,-6.5742,-6.6523,-5.6195,-5.5915,-5.5673,-5.5629,-5.5551,-5.5516,-5.5539,-5.5527,-5.5527,-5.5607,-5.5682,-5.5703,-5.5703,-5.5703,0.0,-5.5703,-5.5703,-5.5703,-5.5703,-5.5703,-5.5703,-5.5703,-5.5703,-5.5724,-5.5766,-5.5724,0.0,-5.5776,-5.5596,-5.5806,-5.639,-5.6666,-5.7351,-5.8398,-5.9161,-5.9492,-5.9569,-6.0435,-6.0608,-6.0185,-5.8838,-5.8107,-5.7665,-5.6242,-5.5703,-5.5703,-5.5703,-5.5703,-5.5703,-5.5703,-5.5703,-5.5588,-5.4953,-5.4477,-5.4041,-5.3539,-5.294,-5.2447,-5.2447,-5.2017,-5.1654,-5.1953,-5.1963,-5.2077,-5.2741,-5.3722,-5.4972,-5.6656,-5.7684,-5.855,-5.9358,-6.0403,-6.1322,-6.1923,-6.2457,-6.2844,-6.3024,0.0,0.0,0.0,0.0,0.0,0.0,-6.0177,-5.9735,0.0,0.0,0.0,0.0,0.0,-6.1539,-6.2217,-6.4218,-6.5117,-6.4785,-6.4785,-6.4355,-6.3476,-6.3164,-6.2539,-6.1699,-6.1699,-6.1699,-6.1699,-6.1699,-6.1894,-6.2187,-6.2187,-6.2695,-6.3496,-6.3496,-6.4355,-6.5605,-6.5605,-6.6152,-6.6894,-5.7011,-5.6327,-5.5737,-5.5612,-5.5519,-5.5451,-5.5396,-5.5446,-5.5492,-5.5504,-5.5607,-5.5703,-5.5703,-5.5703,-5.5703,-5.5703,0.0,0.0,-5.5703,-5.5703,-5.5703,-5.5703,-5.5703,-5.5756,-5.5876,-5.5766,-5.5794,-5.5982,-5.6671,-5.706,-5.7195,-5.7992,-5.8415,-5.8511,-5.9261,-5.9588,-5.9646,-6.0396,-6.0242,-5.9415,-5.8569,-5.7723,-5.6907,-5.603,-5.5703,-5.5703,-5.5703,-5.5703,-5.5703,-5.5703,-5.5703,-5.5415,-5.3799,-5.3299,-5.326,-5.3087,-5.1914,-5.0712,-5.077,-5.0789,-5.0971,-5.1788,-5.2038,-5.2519,-5.4203,-5.4587,-5.503,-5.6676,-5.7684,-5.855,-5.9358,-6.0315,-6.1034,-6.1166,-6.191,-6.2199,-6.1318,-6.1885,0.0,0.0,0.0,0.0,-6.1084,-5.9791,-5.989,0.0,0.0,0.0,0.0,0.0,-6.1996,-6.5192,-6.6337,-6.6504,-6.5703,-6.5683,-6.5254,-6.4375,-6.3515,-6.2676,-6.1875,-6.1875,-6.1875,-6.1875,-6.1875,-6.2344,-6.3086,-6.3086,-6.3594,-6.4394,-6.4394,-6.4922,-6.5683,-6.5683,-6.6191,-6.6894,0.0,0.0,-5.6513,-5.6365,-5.5708,-5.5426,-5.6179,-5.574,-5.5383,-5.5492,-5.5607,-5.5703,-5.5703,-5.5703,-5.5703,-5.5703,-5.5703,-5.5703,-5.5703,-5.5703,-5.5703,-5.5703,-5.5703,-5.5705,-5.5745,-5.5724,-5.6051,-5.6738,-5.6917,-5.7657,-5.8915,-5.9127,-5.9569,-6.0223,-6.0416,-6.0492,-6.0454,-5.9992,-5.9685,-5.9377,-5.7896,-5.7176,-5.6907,-5.603,-5.5703,-5.5703,-5.5703,-5.5703,-5.5703,-5.5703,-5.5703,-5.5511,-5.4511,-5.4184,-5.3818,-5.1856,-5.102,-5.0827,-5.1452,-5.1625,-5.1818,-5.2683,-5.3395,-5.4145,-5.5184,-5.5415,-5.5722,-5.6791,-5.7684,-5.855,-5.9358,-6.028,-6.0924,-6.0963,-6.1233,-6.115,-6.0278,-6.0882,-6.1002,0.0,-6.0661,-6.145,-6.1852,-6.2157,-6.2046,0.0,0.0,-6.1746,-6.2355,-6.2099,-6.2955,-6.5224,-6.6185,-6.6643,-6.6582,-6.6582,-6.6152,-6.5273,-6.4414,-6.3887,-6.3672,-6.3672,-6.3672,-6.3672,-6.3672,-6.3808,-6.3984,-6.3984,-6.4512,-6.5293,-6.5293,-6.582,-6.6582,-6.6582,-6.6719,-6.6894,-5.7443,-5.7245,-5.7111,-5.6603,-5.6063,-5.5855,-5.6345,-5.5788,-5.532,-5.5408,-5.5573,-5.5703,-5.5703,-5.5703,-5.5703,-5.5703,-5.5703,-5.5703,-5.5703,-5.5703,-5.5703,-5.5703,-5.5703,-5.5703,-5.5703,-5.5703,-5.5934,-5.6406,-5.681,-5.7464,-5.8357,-5.8761,-5.9204,-5.9665,-5.9665,-5.9435,-5.9061,-5.8973,-5.828,-5.7165,-5.6607,-5.5953,-5.5203,-5.4741,-5.4799,-5.5145,-5.5145,-5.5395,-5.5703,-5.5703,-5.5703,-5.5549,-5.4741,-5.4491,-5.4145,-5.2375,-5.1837,-5.1933,-5.2375,-5.2481,-5.2692,-5.3587,-5.4434,-5.5164,-5.5588,-5.5703,-5.6049,-5.7319,-5.7973,-5.8665,-5.9877,-6.0511,-6.0856,-6.0899,-6.0315,-5.9969,-6.0249,-6.0046,-5.9949,-6.0181,-6.1365,-6.2275,-6.262,-6.311,-6.3221,-6.2741,-6.276,0.0,-6.3388,-6.3806,-6.4582,-6.5777,-6.6323,-6.6709,-6.6894,-6.6894,-6.6465,-6.5586,-6.5117,-6.4667,-6.4253,-6.4253,-6.4253,-6.4253,-6.4253,-6.449,-6.4883,-6.4883,-6.541,-6.6191,-6.6191,-6.6484,-6.6894,-6.6894,-6.6894,-6.6894,-5.7764,-5.7693,-5.7505,-5.6692,-5.6454,-5.6373,-5.6391,-5.5769,-5.5294,-5.5294,-5.5539,-5.5703,-5.5703,-5.5703,-5.5703,-5.5703,-5.5703,-5.5703,-5.5703,-5.5703,-5.5703,-5.5703,-5.5703,-5.5703,-5.5703,-5.5703,-5.5703,-5.5703,-5.6445,-5.6868,-5.7022,-5.7761,-5.8165,-5.83,-5.83,-5.7819,-5.7041,-5.7646,-5.6588,-5.4549,-5.5107,-5.4549,-5.3395,-5.3395,-5.3933,-5.4684,-5.4684,-5.5126,-5.5703,-5.5703,-5.5703,-5.5549,-5.4741,-5.4587,-5.4511,-5.3645,-5.3491,-5.3549,-5.3433,-5.3491,-5.376,-5.4491,-5.5184,-5.5703,-5.5703,-5.5703,-5.6165,-5.7761,-5.8204,-5.8781,-6.0319,-6.0704,-6.0681,-6.0357,-5.9433,-5.9086,-5.9982,0.0,-5.9228,-6.0466,-6.1589,-6.2551,-6.3243,-6.3538,-6.401,-6.481,-6.4929,-6.4949,-6.4879,-6.5573,-6.6108,-6.636,-6.6488,-6.6667,-6.6872,-6.6873,-6.6502,-6.5779,-6.5779,-6.5343,-6.4579,-6.4579,-6.4579,-6.4579,-6.4585,-6.5049,-6.5781,-6.5781,-6.623,-6.6894,-6.6894,-6.6894,-6.6894,-6.6894,-6.6894,-6.6894,-5.6815,-5.7154,-5.7553,-5.7275,-5.6691,-5.6448,-5.7099,-5.6116,-5.5294,-5.5294,-5.5539,-5.5703,-5.5703,-5.5703,-5.5703,-5.5703,-5.5703,-5.5703,-5.5703,-5.5703,-5.5703,-5.5703,-5.5703,-5.5703,-5.5703,-5.5703,-5.5703,-5.5703,-5.5838,-5.6291,-5.7003,-5.7137,-5.7588,-5.83,-5.83,-5.7819,-5.6964,-5.6357,-5.5472,-5.4453,-5.3837,-5.3876,-5.4299,-5.4299,-5.4799,-5.5511,-5.5511,-5.5588,-5.5703,-5.5703,-5.5703,-5.5549,-5.4741,-5.4972,-5.5338,-5.453,-5.478,-5.5164,-5.4472,-5.478,-5.5338,-5.5472,-5.5607,-5.5703,-5.5703,-5.5703,-5.5992,-5.7003,-5.778,-5.8588,-5.9531,-6.03,-6.01,-5.7948,-5.9199,-5.9507,-5.689,0.0,-6.0246,-5.9762,-6.1723,-6.3166,-6.3288,-6.4628,-6.5564,-6.5692,-6.5723,-6.5723,-6.5723,-6.5839,-6.5994,-6.6136,-6.6275,-6.6464,-6.673,-6.673,-6.6652,-6.6535,-6.6535,-6.6453,-6.631,-6.631,-6.631,-6.631,-6.6371,-6.6485,-6.6626,-6.6679,-6.6777,-6.6894,-6.6894,-6.6894,-6.6894,-6.6894,-6.6894,-6.6894,-5.6458,-5.6937,-5.7343,-5.6831,-5.6455,-5.6323,-5.6702,-5.594,-5.5294,-5.5294,-5.5539,-5.5703,-5.5703,-5.5703,-5.5703,-5.5703,-5.5703,-5.5703,-5.5703,-5.5703,-5.5703,-5.5703,-5.5703,-5.5703,-5.5703,-5.5703,-5.5703,-5.5703,-5.5703,-5.5915,-5.631,-5.631,-5.6511,-5.6896,-5.6896,-5.6434,-5.5626,-5.5222,-5.4299,-5.3106,-5.3164,-5.3164,-5.3145,-5.3626,-5.4318,-5.5049,-5.5049,-5.5318,-5.5703,-5.5703,-5.5703,-5.5645,-5.5261,-5.5395,-5.5626,-5.5261,-5.5415,-5.5607,-5.5241,-5.5415,-5.5703,-5.5703,-5.5703,-5.5703,-5.5703,-5.5703,-5.5953,-5.683,-5.7684,-5.855,-5.9358,-6.0204,-6.0416,-5.9254,-5.9281,-5.9223,-5.8531,-5.9031,-5.98,-6.0781,-6.232,-6.3481,-6.3955,-6.5147,-6.5897,-6.5897,-6.5897,-6.5897,-6.5897,-6.5897,-6.5933,-6.5997,-6.6251,-6.6476,-6.659,-6.6654,-6.6705,-6.6705,-6.6705,-6.6689,-6.6649,-6.6649,-6.6649,-6.6654,-6.672,-6.6776,-6.6817,-6.6873,-6.6894,-6.6894,-6.6894,-6.6894,-6.6894,-6.6894,-6.6894,-6.6894,-5.6019,-5.655,-5.6929,-5.6304,-5.619,-5.619,-5.619,-5.5692,-5.5294,-5.5294,-5.5539,-5.5703,-5.5703,-5.5703,-5.5703,-5.5703,-5.5703,-5.5703,-5.5703,-5.5703,-5.5703,-5.5703,-5.5703,-5.5703,-5.5703,-5.5703,-5.5703,-5.5703,-5.5703,-5.5703,-5.5703,-5.5703,-5.5703,-5.5703,-5.5703,-5.5145,-5.4203,-5.4203,-5.3318,-5.1962,-5.2635,-5.2741,-5.2577,-5.326,-5.403,-5.478,-5.478,-5.5184,-5.5703,-5.5703,-5.5703,-5.5703,-5.5703,-5.5703,-5.5703,-5.5703,-5.5703,-5.5703,-5.5703,-5.5703,-5.5703,-5.5703,-5.5703,-5.5703,-5.5703,-5.5857,-5.6126,-5.6599,-5.7703,-5.8704,-5.9146,-6.0089,-6.0608,-6.0012,0.0,-5.9127,-5.9819,-5.9319,-5.9608,-6.1581,-6.2685,-6.357,-6.4224,-6.5263,-6.5897,-6.5897,-6.5897,-6.5897,-6.5897,-6.5897,-6.5897,-6.5897,-6.6237,-6.6444,-6.6493,-6.6595,-6.6658,-6.6658,-6.6658,-6.6624,-6.6581,-6.6581,-6.6581,-6.6587,-6.6654,-6.6713,-6.6753,-6.6823,-6.685,-6.685,-6.6873,-6.6874,-6.6874,-6.6894,-6.6894,-6.6894,-5.5015,-5.5697,-5.6266,-5.6209,-5.619,-5.619,-5.619,-5.5692,-5.5294,-5.5294,-5.5539,-5.5703,-5.5703,-5.5703,-5.5703,-5.5703,-5.5703,-5.5703,-5.5703,-5.5703,-5.5703,-5.5703,-5.5703,-5.5703,-5.5703,-5.5703,-5.5703,-5.5703,-5.5703,-5.5703,-5.5703,-5.5703,-5.5703,-5.5703,-5.5703,-5.4799,-5.3299,-5.3299,-5.276,-5.1904,-5.1962,-5.2933,-5.4318,-5.4376,-5.4914,-5.5607,-5.5607,-5.5645,-5.5703,-5.5703,-5.5703,-5.5703,-5.5703,-5.5703,-5.5703,-5.5703,-5.5703,-5.5703,-5.5703,-5.5703,-5.5703,-5.5703,-5.5703,-5.5703,-5.5703,-5.6329,-5.6695,-5.5953,-5.7723,-5.9204,-5.8511,-5.9704,-6.0031,-5.7654,0.0,0.0,-5.7599,-5.9204,-6.0685,-6.0858,-6.232,-6.3339,-6.3397,-6.4916,-6.5897,-6.5897,-6.5897,-6.5897,-6.5897,-6.5897,-6.5897,-6.5897,-6.6102,-6.63,-6.6504,-6.6512,-6.6512,-6.6512,-6.6512,-6.6512,-6.6504,-6.6504,-6.6504,-6.6512,-6.6581,-6.6608,-6.6618,-6.6693,-6.6716,-6.6723,-6.6785,-6.6817,-6.68,-6.6874,-6.6894,-6.6894,-5.4901,-5.5166,-5.5394,-5.5394,-5.5394,-5.5424,-5.5508,-5.5385,-5.5333,-5.542,-5.5585,-5.5703,-5.5703,-5.5703,-5.5703,-5.5703,-5.5703,-5.5703,-5.5703,-5.5703,-5.5703,-5.5703,-5.5703,-5.5703,-5.5703,-5.5703,-5.5703,-5.5703,-5.5703,-5.5703,-5.5703,-5.5703,-5.5703,-5.5703,-5.5703,-5.5338,-5.4722,-5.4222,-5.3818,-5.351,-5.351,-5.3914,-5.4549,-5.5049,-5.5434,-5.5703,-5.5703,-5.5703,-5.5703,-5.5703,-5.5703,-5.5703,-5.5703,-5.5703,-5.5703,-5.5703,-5.5703,-5.5703,-5.5703,-5.5703,-5.5703,-5.5703,-5.5703,-5.5703,-5.5703,-5.6368,-5.6753,-5.5876,-5.7723,-5.9088,-5.7742,-5.93,-6.03,-5.88,0.0,-6.0454,-5.9492,-6.0185,-6.0993,-6.1543,-6.2166,-6.2954,-6.4012,-6.4705,-6.532,-6.5859,-6.5897,-6.5897,-6.5897,-6.5397,-6.5358,-6.5931,-6.5553,-6.5601,-6.6186,-6.6273,-6.6338,-6.637,-6.637,-6.6422,-6.6508,-6.6508,-6.6508,-6.6497,-6.6568,-6.6596,-6.6602,-6.6677,-6.6705,-6.6709,-6.673,-6.6756,-6.6795,-6.6824,-6.6853,-6.6894,-5.4901,-5.4901,-5.4901,-5.4901,-5.4901,-5.496,-5.508,-5.5216,-5.5345,-5.548,-5.5607,-5.5703,-5.5703,-5.5703,-5.5703,-5.5703,-5.5703,-5.5703,-5.5703,-5.5703,-5.5703,-5.5703,-5.5703,-5.5703,-5.5703,-5.5703,-5.5703,-5.5703,-5.5703,-5.5703,-5.5703,-5.5703,-5.5703,-5.5703,-5.5703,-5.5549,-5.528,-5.4722,-5.4491,-5.4491,-5.4491,-5.4645,-5.4934,-5.5491,-5.5703,-5.5703,-5.5703,-5.5703,-5.5703,-5.5703,-5.5703,-5.5703,-5.5703,-5.5703,-5.5703,-5.5703,-5.5703,-5.5703,-5.5703,-5.5703,-5.5703,-5.5703,-5.5703,-5.5703,-5.5703,-5.6588,-5.7069,-5.5934,-5.7934,-5.93,-5.7368,-5.908,-6.0512,-5.9646,-6.0223,-6.08,-6.08,-6.08,-6.1012,-6.162,-6.1928,-6.2563,-6.3705,-6.4282,-6.4859,-6.5455,-6.5743,-6.5897,-6.5897,-6.532,-6.53,-6.5943,-6.5435,-6.5415,-6.5955,-6.6112,-6.6225,-6.6273,-6.629,-6.6353,-6.6431,-6.6474,-6.6508,-6.6489,-6.6555,-6.6568,-6.6575,-6.6613,-6.6639,-6.6639,-6.6668,-6.6705,-6.6739,-6.6753,-6.6793,-6.6846,-5.4901,-5.4901,-5.4901,-5.4901,-5.4901,-5.496,-5.508,-5.5216,-5.5345,-5.548,-5.5607,-5.5703,-5.5703,-5.5703,-5.5703,-5.5703,-5.5703,-5.5703,-5.5703,-5.5703,-5.5703,-5.5703,-5.5703,-5.5703,-5.5703,-5.5703,-5.5703,-5.5703,-5.5703,-5.5703,-5.5703,-5.5703,-5.5703,-5.5684,-5.5684,-5.5241,-5.4491,-5.4491,-5.4491,-5.4511,-5.4511,-5.4991,-5.5703,-5.5703,-5.5703,-5.5703,-5.5703,-5.5703,-5.5703,-5.5703,-5.5703,-5.5703,-5.5703,-5.5703,-5.5703,-5.5703,-5.5703,-5.5703,-5.5703,-5.5703,-5.5703,-5.5703,-5.5703,-5.5703,-5.5703,-5.7049,-5.78,-5.6049,-5.8415,-6.0012,-5.7464,-5.908,-6.0512,-5.9646,-6.0223,-6.08,-6.08,-6.08,-6.08,-6.08,-6.1562,-6.2101,-6.2101,-6.3608,-6.4589,-6.4609,-6.5397,-6.5878,-6.5878,-6.5878,-6.5878,-6.5878,-6.5878,-6.5878,-6.5897,-6.6088,-6.6205,-6.6205,-6.6273,-6.6299,-6.6308,-6.6431,-6.6508,-6.6508,-6.6508,-6.6508,-6.6508,-6.6508,-6.6508,-6.6497,-6.6575,-6.6591,-6.6602,-6.6661,-6.6705,-6.6705,-5.4901,-5.4901,-5.4901,-5.4901,-5.4901,-5.496,-5.508,-5.5216,-5.5345,-5.548,-5.5607,-5.5703,-5.5703,-5.5703,-5.5703,-5.5703,-5.5703,-5.5703,-5.5703,-5.5703,-5.5703,-5.5703,-5.5703,-5.5703,-5.5703,-5.5703,-5.5703,-5.5703,-5.5703,-5.5703,-5.5703,-5.5703,-5.5395,-5.4857,-5.4857,-5.4722,-5.4491,-5.4491,-5.4818,-5.5338,-5.5338,-5.5491,-5.5703,-5.5703,-5.5703,-5.5703,-5.5703,-5.5703,-5.5703,-5.5703,-5.5703,-5.5703,-5.5703,-5.5703,-5.5703,-5.5703,-5.5703,-5.5703,-5.5703,-5.5703,-5.5703,-5.5703,-5.5703,-5.5703,-5.5703,-5.6569,-5.708,-5.5934,-5.7934,-5.93,-5.7368,-5.908,-6.0512,-5.9646,-6.0223,-6.08,-6.08,-6.08,-6.08,-6.08,-6.1031,-6.1416,-6.2043,-6.3051,-6.3935,-6.4551,-6.4839,-6.4724,-6.4109,-6.4089,-6.4359,-6.4974,-6.4993,-6.5282,-6.5878,-6.5965,-6.5998,-6.6058,-6.6082,-6.6135,-6.6235,-6.6264,-6.632,-6.6362,-6.6362,-6.6414,-6.6481,-6.6406,-6.6362,-6.6362,-6.6336,-6.6348,-6.6388,-6.6404,-6.6445,-6.6485,-5.4901,-5.4901,-5.4901,-5.4901,-5.4901,-5.496,-5.508,-5.5216,-5.5345,-5.548,-5.5607,-5.5703,-5.5703,-5.5703,-5.5703,-5.5703,-5.5703,-5.5703,-5.5703,-5.5703,-5.5703,-5.5703,-5.5703,-5.5703,-5.5703,-5.5703,-5.5703,-5.5703,-5.5703,-5.5703,-5.5703,-5.5703,-5.5261,-5.4511,-5.4818,-5.4799,-5.4511,-5.4838,-5.5261,-5.5703,-5.5703,-5.5703,-5.5703,-5.5703,-5.5703,-5.5703,-5.5703,-5.5703,-5.5703,-5.5703,-5.5703,-5.5703,-5.5703,-5.5703,-5.5703,-5.5703,-5.5703,-5.5703,-5.5703,-5.5703,-5.5703,-5.5703,-5.5703,-5.5703,-5.5703,-5.6368,-5.6753,-5.5876,-5.7473,-5.8511,-5.681,-5.8569,-6.0012,-5.9165,-6.0012,-6.08,-6.08,-6.08,-6.08,-6.08,-6.08,-6.1012,-6.1543,-6.2627,-6.3666,-6.4532,-6.4609,-6.4378,-6.3839,-6.382,-6.4205,-6.5089,-6.5109,-6.5378,-6.5878,-6.5897,-6.5916,-6.595,-6.5978,-6.6047,-6.6123,-6.6184,-6.6225,-6.6263,-6.6263,-6.632,-6.6383,-6.6291,-6.6263,-6.6254,-6.6215,-6.6225,-6.6262,-6.6262,-6.6295,-6.6311,-5.4901,-5.4901,-5.4901,-5.4901,-5.4901,-5.4927,-5.5052,-5.5189,-5.5333,-5.5468,-5.5596,-5.5692,-5.5703,-5.5703,-5.5703,-5.5703,-5.5703,-5.5703,-5.5703,-5.5703,-5.5703,-5.5703,-5.5703,-5.5703,-5.5703,-5.5703,-5.5703,-5.5703,-5.5703,-5.5665,-5.5588,-5.5588,-5.5164,-5.4414,-5.5145,-5.5107,-5.4549,-5.528,-5.5626,-5.5703,-5.5703,-5.5703,-5.5703,-5.5703,-5.5703,-5.5703,-5.5703,-5.5703,-5.5703,-5.5703,-5.5703,-5.5703,-5.5703,-5.5703,-5.5703,-5.5703,-5.5703,-5.5703,-5.5703,-5.5703,-5.5703,-5.5703,-5.5703,-5.5703,-5.5703,-5.6368,-5.6772,-5.5972,-5.7203,-5.7915,-5.6319,-5.7992,-5.9377,-5.8646,-5.98,-6.08,-6.08,-6.08,-6.08,-6.08,-6.08,-6.08,-6.08,-6.2243,-6.3589,-6.4532,-6.4532,-6.4474,-6.4474,-6.457,-6.4955,-6.5763,-6.5859,-6.5897,-6.5897,-6.5897,-6.5897,-6.5897,-6.5962,-6.599,-6.599,-6.6132,-6.6184,-6.6175,-6.6175,-6.6194,-6.6205,-6.6194,-6.6175,-6.6184,-6.6184,-6.6174,-6.6174,-6.6174,-6.6174,-6.6174,-5.4901,-5.4901,-5.4901,-5.4901,-5.4901,-5.4916,-5.4946,-5.5071,-5.5189,-5.5333,-5.5468,-5.5585,-5.5692,-5.5703,-5.5703,-5.5703,-5.5703,-5.5703,-5.5703,-5.5703,-5.5703,-5.5703,-5.5703,-5.5703,-5.5703,-5.5703,-5.5703,-5.5703,-5.5703,-5.5376,-5.4761,-5.4761,-5.4299,-5.3491,-5.3664,-5.403,-5.4511,-5.4684,-5.5126,-5.5703,-5.5703,-5.5703,-5.5703,-5.5703,-5.5703,-5.5703,-5.5703,-5.5703,-5.5703,-5.5703,-5.5703,-5.5703,-5.5703,-5.5703,-5.5703,-5.5703,-5.5703,-5.5703,-5.5703,-5.5703,-5.5703,-5.5703,-5.5703,-5.5703,-5.5703,-5.6368,-5.6945,-5.6772,-5.805,-5.9127,-5.8742,-5.9685,-6.0454,-6.0281,-6.055,-6.08,-6.08,-6.08,-6.08,-6.08,-6.08,-6.08,-6.08,-6.1743,-6.2974,-6.4493,-6.3974,-6.3589,-6.3589,-6.4224,-6.4686,-6.4878,-6.5532,-6.5897,-6.5897,-6.5897,-6.5897,-6.5897,-6.5903,-6.5928,-6.5928,-6.5953,-6.5993,-6.6047,-6.6047,-6.6102,-6.6194,-6.6091,-6.6047,-6.6036,-6.5982,-6.5965,-6.5965,-6.5965,-6.5965,-6.5958,-5.4901,-5.4901,-5.4901,-5.4901,-5.4901,-5.4901,-5.4901,-5.5014,-5.5149,-5.5281,-5.5358,-5.548,-5.5692,-5.564,-5.5629,-5.5684,-5.5703,-5.5703,-5.5703,-5.5703,-5.5703,-5.5703,-5.5703,-5.5703,-5.5703,-5.5703,-5.5703,-5.5703,-5.5703,-5.528,-5.4491,-5.4491,-5.403,-5.3222,-5.3626,-5.4068,-5.453,-5.4914,-5.5318,-5.5703,-5.5703,-5.5703,-5.5703,-5.5703,-5.5703,-5.5703,-5.5703,-5.5703,-5.5703,-5.5703,-5.5703,-5.5703,-5.5703,-5.5703,-5.5703,-5.5703,-5.5703,-5.5703,-5.5703,-5.5948,-5.6211,-5.6211,-5.6472,-5.6633,-5.6374,-5.6676,-5.7118,-5.753,-5.8319,-5.8934,-5.8934,-5.9608,-6.0185,-6.0185,-6.0531,-6.08,-6.08,-6.08,-6.08,-6.08,-6.08,-6.1108,-6.1916,-6.2781,-6.3666,-6.4532,-6.4185,-6.3916,-6.3916,-6.4359,-6.4782,-6.5205,-6.5647,-6.5897,-6.5897,-6.5897,-6.5897,-6.5897,-6.5897,-6.5897,-6.5897,-6.5897,-6.5916,-6.5938,-6.5938,-6.5993,-6.6052,-6.5993,-6.5938,-6.5958,-6.5903,-6.5897,-6.5897,-6.5897,-6.5897,-6.591,-5.4901,-5.4901,-5.4901,-5.4901,-5.4871,-5.4856,-5.4886,-5.4908,-5.5004,-5.5242,-5.5229,-5.5314,-5.5629,-5.5585,-5.5573,-5.5703,-5.5703,-5.5703,-5.5703,-5.5703,-5.5703,-5.5703,-5.5703,-5.5703,-5.5703,-5.5703,-5.5703,-5.5703,-5.5703,-5.5203,-5.428,-5.4434,-5.403,-5.3241,-5.4107,-5.4587,-5.4741,-5.5415,-5.5703,-5.5703,-5.5703,-5.5703,-5.5703,-5.5703,-5.5703,-5.5703,-5.5703,-5.5703,-5.5703,-5.5703,-5.5703,-5.5703,-5.5703,-5.5703,-5.5703,-5.5703,-5.5703,-5.5722,-5.5855,-5.6322,-5.6834,-5.6944,-5.7398,-5.7729,-5.747,-5.7393,-5.7604,-5.8346,-5.8627,-5.8723,-5.8723,-5.9281,-5.9723,-5.9723,-6.0319,-6.08,-6.08,-6.08,-6.08,-6.08,-6.0935,-6.1685,-6.3358,-6.4051,-6.4493,-6.4801,-6.4686,-6.4666,-6.4801,-6.482,-6.5147,-6.5878,-6.5897,-6.5897,-6.5897,-6.5897,-6.5897,-6.5897,-6.5897,-6.5897,-6.5897,-6.5897,-6.5897,-6.5897,-6.5897,-6.5897,-6.5897,-6.5897,-6.5897,-6.5897,-6.5897,-6.5897,-6.5897,-6.5897,-6.5897,-6.5897,-5.4901,-5.4901,-5.4901,-5.4901,-5.4714,-5.4635,-5.4871,-5.4482,-5.4395,-5.5033,-5.4928,-5.4966,-5.5461,-5.5607,-5.5692,-5.5703,-5.5703,-5.5703,-5.5703,-5.5703,-5.5703,-5.5703,-5.5703,-5.5703,-5.5703,-5.5703,-5.5703,-5.5703,-5.5703,-5.4895,-5.3395,-5.4145,-5.403,-5.3241,-5.4107,-5.4895,-5.553,-5.5645,-5.5703,-5.5703,-5.5703,-5.5703,-5.5703,-5.5703,-5.5703,-5.5703,-5.5703,-5.5703,-5.5703,-5.5703,-5.5703,-5.5703,-5.5703,-5.5703,-5.5703,-5.5703,-5.5703,-5.5835,-5.6472,-5.6712,-5.6944,-5.7525,-5.772,-5.8009,-5.8796,-5.8987,-5.9062,-5.9296,-5.9935,-6.0454,-6.0454,-6.055,-6.0608,-6.0608,-6.0723,-6.08,-6.08,-6.08,-6.08,-6.08,-6.1466,-6.257,-6.4262,-6.3858,-6.4109,-6.5609,-6.5032,-6.4936,-6.5686,-6.5724,-6.5782,-6.5897,-6.5897,-6.5897,-6.5897,-6.5897,-6.5897,-6.5897,-6.5897,-6.5897,-6.5897,-6.5897,-6.5897,-6.5897,-6.5897,-6.5897,-6.5897,-6.5897,-6.5897,-6.5897,-6.5897,-6.5897,-6.5897,-6.5897,-6.5897,-6.5897,-5.4901,-5.4776,-5.4683,-5.4683,-5.4418,-5.4264,-5.4382,-5.4176,-5.4138,-5.4554,-5.4425,-5.4522,-5.5086,-5.5425,-5.5585,-5.5585,-5.5671,-5.5703,-5.5703,-5.5703,-5.5703,-5.5703,-5.5703,-5.5703,-5.5703,-5.5489,-5.5356,-5.5356,-5.5059,-5.4331,-5.3222,-5.3524,-5.3505,-5.3241,-5.4107,-5.4953,-5.5703,-5.5703,-5.5703,-5.5703,-5.5703,-5.5703,-5.5703,-5.5703,-5.5703,-5.5703,-5.5607,-5.5585,-5.5585,-5.5585,-5.5629,-5.5703,-5.5703,-5.5703,-5.5651,-5.5423,-5.5466,-5.5712,-5.6255,-5.6826,-5.7431,-5.822,-5.8686,-5.9109,-5.9631,-5.9736,-5.9833,-6.0164,-6.0531,-6.08,-6.08,-6.08,-6.08,-6.08,-6.08,-6.08,-6.08,-6.08,-6.0973,-6.1466,-6.2262,-6.3243,-6.4474,-6.4686,-6.507,-6.584,-6.5532,-6.5493,-6.5878,-6.5897,-6.5897,-6.5897,-6.5897,-6.5897,-6.5897,-6.5897,-6.5897,-6.5897,-6.5897,-6.5897,-6.5897,-6.5897,-6.5897,-6.5897,-6.5897,-6.5897,-6.5897,-6.5897,-6.5897,-6.5897,-6.5897,-6.5897,-6.5897,-6.5897,-6.5897,-6.5897]},{"header":{"parameterUnit":"m.s-1","parameterCategory":1,"la1":30.6,"la2":28.766,"lo1":-90.7593,"lo2":-88.6598,"dy":0.0162,"dx":0.0183,"nx":116,"ny":114,"refTime":"2023-03-01T06:00:00:Z","depth":0,"parameterNumber":3,"parameterNumberName":"V-component_of_WINDS"},"data":[0.0,0.0,0.0,0.0,0.0,0.0,0.0,0.0,0.0,0.0,0.0,0.0,0.0,0.0,0.0,0.0,0.0,0.0,0.0,0.0,0.0,0.0,0.0,0.0,0.0,0.0,0.0,0.0,0.0,0.0,0.0,0.0,0.0,0.0,0.0,0.0,0.0,0.0,0.0,0.0,0.0,0.0,0.0,0.0,0.0,0.0,0.0,0.0,0.0,0.0,0.0,0.0,0.0,0.0,0.0,0.0,0.0,0.0,0.0,0.0,0.0,0.0,0.0,0.0,0.0,0.0,0.0,0.0,0.0,0.0,0.0,0.0,0.0,0.0,0.0,0.0,0.0,0.0,0.0,0.0,0.0,0.0,0.0,0.0,0.0,0.0,0.0,0.0,0.0,0.0,0.0,0.0,0.0,0.0,0.0,0.0,0.0,0.0,0.0,0.0,0.0,0.0,0.0,0.0,0.0,0.0,0.0,0.0,0.0,0.0,0.0,0.0,0.0,0.0,0.0,0.0,0.0,0.0,0.0,0.0,0.0,0.0,0.0,0.0,0.0,0.0,0.0,0.0,0.0,0.0,0.0,0.0,0.0,0.0,0.0,0.0,0.0,0.0,0.0,0.0,0.0,0.0,0.0,0.0,0.0,0.0,0.0,0.0,0.0,0.0,0.0,0.0,0.0,0.0,0.0,0.0,0.0,0.0,0.0,0.0,0.0,0.0,0.0,0.0,0.0,0.0,0.0,0.0,0.0,0.0,0.0,0.0,0.0,0.0,0.0,0.0,0.0,0.0,0.0,0.0,0.0,0.0,0.0,0.0,0.0,0.0,0.0,0.0,0.0,0.0,0.0,0.0,0.0,0.0,0.0,0.0,0.0,0.0,0.0,0.0,0.0,0.0,0.0,0.0,0.0,0.0,0.0,0.0,0.0,0.0,0.0,0.0,0.0,0.0,0.0,0.0,0.0,0.0,0.0,0.0,0.0,0.0,0.0,0.0,0.0,0.0,0.0,0.0,0.0,0.0,0.0,0.0,0.0,0.0,0.0,0.0,0.0,0.0,0.0,0.0,0.0,0.0,0.0,0.0,0.0,0.0,0.0,0.0,0.0,0.0,0.0,0.0,0.0,0.0,0.0,0.0,0.0,0.0,0.0,0.0,0.0,0.0,0.0,0.0,0.0,0.0,0.0,0.0,0.0,0.0,0.0,0.0,0.0,0.0,0.0,0.0,0.0,0.0,0.0,0.0,0.0,0.0,0.0,0.0,0.0,0.0,0.0,0.0,0.0,0.0,0.0,0.0,0.0,0.0,0.0,0.0,0.0,0.0,0.0,0.0,0.0,0.0,0.0,0.0,0.0,0.0,0.0,0.0,0.0,0.0,0.0,0.0,0.0,0.0,0.0,0.0,0.0,0.0,0.0,0.0,0.0,0.0,0.0,0.0,0.0,0.0,0.0,0.0,0.0,0.0,0.0,0.0,0.0,0.0,0.0,0.0,0.0,0.0,0.0,0.0,0.0,0.0,0.0,0.0,0.0,0.0,0.0,0.0,0.0,0.0,0.0,0.0,0.0,0.0,0.0,0.0,0.0,0.0,0.0,0.0,0.0,0.0,0.0,0.0,0.0,0.0,0.0,0.0,0.0,0.0,0.0,0.0,0.0,0.0,0.0,0.0,0.0,0.0,0.0,0.0,0.0,0.0,0.0,0.0,0.0,0.0,0.0,0.0,0.0,0.0,0.0,0.0,0.0,0.0,0.0,0.0,0.0,0.0,0.0,0.0,0.0,0.0,0.0,0.0,0.0,0.0,0.0,0.0,0.0,0.0,0.0,0.0,0.0,0.0,0.0,0.0,0.0,0.0,0.0,0.0,0.0,0.0,0.0,0.0,0.0,0.0,0.0,0.0,0.0,0.0,0.0,0.0,0.0,0.0,0.0,0.0,0.0,0.0,0.0,0.0,0.0,0.0,0.0,0.0,0.0,0.0,0.0,0.0,0.0,0.0,0.0,0.0,0.0,0.0,0.0,0.0,0.0,0.0,0.0,0.0,0.0,0.0,0.0,0.0,0.0,0.0,0.0,0.0,0.0,0.0,0.0,0.0,0.0,0.0,0.0,0.0,0.0,0.0,0.0,0.0,0.0,0.0,0.0,0.0,0.0,0.0,0.0,0.0,0.0,0.0,0.0,0.0,0.0,0.0,0.0,0.0,0.0,0.0,0.0,0.0,0.0,0.0,0.0,0.0,0.0,0.0,0.0,0.0,0.0,0.0,0.0,0.0,0.0,0.0,0.0,0.0,0.0,0.0,0.0,0.0,0.0,0.0,0.0,0.0,0.0,0.0,0.0,0.0,0.0,0.0,0.0,0.0,0.0,0.0,0.0,0.0,0.0,0.0,0.0,0.0,0.0,0.0,0.0,0.0,0.0,0.0,0.0,0.0,0.0,0.0,0.0,0.0,0.0,0.0,0.0,0.0,0.0,0.0,0.0,0.0,0.0,0.0,0.0,0.0,0.0,0.0,0.0,0.0,0.0,0.0,0.0,0.0,0.0,0.0,0.0,0.0,0.0,0.0,0.0,0.0,0.0,0.0,0.0,0.0,0.0,0.0,0.0,0.0,0.0,0.0,0.0,0.0,0.0,0.0,0.0,0.0,0.0,0.0,0.0,0.0,0.0,0.0,0.0,0.0,0.0,0.0,0.0,0.0,0.0,0.0,0.0,0.0,0.0,0.0,0.0,0.0,0.0,0.0,0.0,0.0,0.0,0.0,0.0,0.0,0.0,0.0,0.0,0.0,0.0,0.0,0.0,0.0,0.0,0.0,0.0,0.0,0.0,0.0,0.0,0.0,0.0,0.0,0.0,0.0,0.0,0.0,0.0,0.0,0.0,0.0,0.0,0.0,0.0,0.0,0.0,0.0,0.0,0.0,0.0,0.0,0.0,0.0,0.0,0.0,0.0,0.0,0.0,0.0,0.0,0.0,0.0,0.0,0.0,0.0,0.0,0.0,0.0,0.0,0.0,0.0,0.0,0.0,0.0,0.0,0.0,0.0,0.0,0.0,0.0,0.0,0.0,0.0,0.0,0.0,0.0,0.0,0.0,0.0,0.0,0.0,0.0,0.0,0.0,0.0,0.0,0.0,0.0,0.0,0.0,0.0,0.0,0.0,0.0,0.0,0.0,0.0,0.0,0.0,0.0,0.0,0.0,0.0,0.0,0.0,0.0,0.0,0.0,0.0,0.0,0.0,0.0,0.0,0.0,0.0,0.0,0.0,0.0,0.0,0.0,0.0,0.0,0.0,0.0,0.0,0.0,0.0,0.0,0.0,0.0,0.0,0.0,0.0,0.0,0.0,0.0,0.0,0.0,0.0,0.0,0.0,0.0,0.0,0.0,0.0,0.0,0.0,0.0,0.0,0.0,0.0,0.0,0.0,0.0,0.0,0.0,0.0,0.0,0.0,0.0,0.0,0.0,0.0,0.0,0.0,0.0,0.0,0.0,0.0,0.0,0.0,0.0,0.0,0.0,0.0,0.0,0.0,0.0,0.0,0.0,0.0,0.0,0.0,0.0,0.0,0.0,0.0,0.0,0.0,0.0,0.0,0.0,0.0,0.0,0.0,0.0,0.0,0.0,0.0,0.0,0.0,0.0,0.0,0.0,0.0,0.0,0.0,0.0,0.0,0.0,0.0,0.0,0.0,0.0,0.0,0.0,0.0,0.0,0.0,0.0,0.0,0.0,0.0,0.0,0.0,0.0,0.0,0.0,0.0,0.0,0.0,0.0,0.0,0.0,0.0,0.0,0.0,0.0,0.0,0.0,0.0,0.0,0.0,0.0,0.0,0.0,0.0,0.0,0.0,0.0,0.0,0.0,0.0,0.0,0.0,0.0,0.0,0.0,0.0,0.0,0.0,0.0,0.0,0.0,0.0,0.0,0.0,0.0,0.0,0.0,0.0,0.0,0.0,0.0,0.0,0.0,0.0,0.0,0.0,0.0,0.0,0.0,0.0,0.0,0.0,0.0,0.0,0.0,0.0,0.0,0.0,0.0,0.0,0.0,0.0,0.0,0.0,0.0,0.0,0.0,0.0,0.0,0.0,0.0,0.0,0.0,0.0,0.0,0.0,0.0,0.0,0.0,0.0,0.0,0.0,0.0,0.0,0.0,0.0,0.0,0.0,0.0,0.0,0.0,0.0,0.0,0.0,0.0,0.0,0.0,0.0,0.0,0.0,0.0,0.0,0.0,0.0,0.0,0.0,0.0,0.0,0.0,0.0,0.0,0.0,0.0,0.0,0.0,0.0,0.0,0.0,0.0,0.0,0.0,0.0,0.0,0.0,0.0,0.0,0.0,0.0,0.0,0.0,0.0,0.0,0.0,0.0,0.0,0.0,0.0,0.0,0.0,0.0,0.0,0.0,0.0,0.0,0.0,0.0,0.0,0.0,0.0,0.0,0.0,0.0,0.0,0.0,0.0,0.0,0.0,0.0,0.0,0.0,0.0,0.0,0.0,0.0,0.0,0.0,0.0,0.0,0.0,0.0,0.0,0.0,0.0,0.0,0.0,0.0,0.0,0.0,0.0,0.0,0.0,0.0,0.0,0.0,0.0,0.0,0.0,0.0,0.0,0.0,0.0,0.0,0.0,0.0,0.0,0.0,0.0,0.0,0.0,0.0,0.0,0.0,0.0,0.0,0.0,0.0,0.0,0.0,0.0,0.0,0.0,0.0,0.0,0.0,0.0,0.0,0.0,0.0,0.0,0.0,0.0,0.0,0.0,0.0,0.0,0.0,0.0,0.0,0.0,0.0,0.0,0.0,0.0,0.0,0.0,0.0,0.0,0.0,0.0,0.0,0.0,0.0,0.0,0.0,0.0,0.0,0.0,0.0,0.0,0.0,0.0,0.0,0.0,0.0,0.0,0.0,0.0,0.0,0.0,0.0,0.0,0.0,0.0,0.0,0.0,0.0,0.0,0.0,0.0,0.0,0.0,0.0,0.0,0.0,0.0,0.0,0.0,0.0,0.0,0.0,0.0,0.0,0.0,0.0,0.0,0.0,0.0,0.0,0.0,0.0,0.0,0.0,0.0,0.0,0.0,0.0,0.0,0.0,0.0,0.0,0.0,0.0,0.0,0.0,0.0,0.0,0.0,0.0,0.0,0.0,0.0,0.0,0.0,0.0,0.0,0.0,0.0,0.0,0.0,0.0,0.0,0.0,0.0,0.0,0.0,0.0,0.0,0.0,0.0,0.0,0.0,0.0,0.0,0.0,0.0,0.0,0.0,0.0,0.0,0.0,0.0,0.0,0.0,0.0,0.0,0.0,0.0,0.0,0.0,0.0,0.0,0.0,0.0,0.0,0.0,0.0,0.0,0.0,0.0,0.0,0.0,0.0,0.0,0.0,0.0,0.0,0.0,0.0,0.0,0.0,0.0,0.0,0.0,0.0,0.0,0.0,0.0,0.0,0.0,0.0,0.0,0.0,0.0,0.0,0.0,0.0,0.0,0.0,0.0,0.0,0.0,0.0,0.0,0.0,0.0,0.0,0.0,0.0,0.0,0.0,0.0,0.0,0.0,0.0,0.0,0.0,0.0,0.0,0.0,0.0,0.0,0.0,0.0,0.0,0.0,0.0,0.0,0.0,0.0,0.0,0.0,0.0,0.0,0.0,0.0,0.0,0.0,0.0,0.0,0.0,0.0,0.0,0.0,0.0,0.0,0.0,0.0,0.0,0.0,0.0,0.0,0.0,0.0,0.0,0.0,0.0,0.0,0.0,0.0,0.0,0.0,0.0,0.0,0.0,0.0,0.0,0.0,0.0,0.0,0.0,0.0,0.0,0.0,0.0,0.0,0.0,0.0,0.0,0.0,0.0,0.0,0.0,0.0,0.0,0.0,0.0,0.0,0.0,0.0,0.0,0.0,0.0,0.0,0.0,0.0,0.0,0.0,0.0,0.0,0.0,0.0,0.0,0.0,0.0,0.0,0.0,0.0,0.0,0.0,0.0,0.0,0.0,0.0,0.0,0.0,0.0,0.0,0.0,0.0,0.0,0.0,0.0,0.0,0.0,0.0,0.0,0.0,0.0,0.0,0.0,0.0,0.0,0.0,0.0,0.0,0.0,0.0,0.0,-1.4934,0.0,0.0,0.0,0.0,0.0,0.0,0.0,0.0,0.0,0.0,0.0,0.0,0.0,0.0,0.0,0.0,0.0,0.0,0.0,0.0,0.0,0.0,0.0,0.0,0.0,0.0,0.0,0.0,0.0,0.0,0.0,0.0,0.0,0.0,0.0,0.0,0.0,0.0,0.0,0.0,0.0,0.0,0.0,0.0,0.0,0.0,0.0,0.0,0.0,0.0,0.0,0.0,0.0,0.0,0.0,0.0,0.0,0.0,0.0,0.0,0.0,0.0,0.0,0.0,0.0,0.0,0.0,0.0,0.0,0.0,0.0,0.0,0.0,0.0,0.0,0.0,0.0,0.0,0.0,0.0,0.0,0.0,0.0,0.0,0.0,0.0,0.0,0.0,0.0,0.0,0.0,0.0,0.0,0.0,0.0,0.0,0.0,0.0,0.0,0.0,0.0,0.0,0.0,0.0,0.0,0.0,0.0,0.0,0.0,0.0,0.0,0.0,0.0,0.0,0.0,0.0,-1.3367,0.0,0.0,0.0,0.0,0.0,0.0,0.0,0.0,0.0,0.0,0.0,0.0,0.0,0.0,0.0,0.0,0.0,0.0,0.0,0.0,0.0,0.0,0.0,0.0,0.0,0.0,0.0,0.0,0.0,0.0,0.0,0.0,0.0,0.0,0.0,0.0,0.0,0.0,0.0,0.0,0.0,0.0,0.0,0.0,0.0,0.0,0.0,0.0,0.0,0.0,0.0,0.0,0.0,0.0,0.0,0.0,0.0,0.0,0.0,0.0,0.0,0.0,0.0,0.0,0.0,0.0,0.0,0.0,0.0,0.0,0.0,0.0,0.0,0.0,0.0,0.0,0.0,0.0,0.0,0.0,0.0,0.0,0.0,0.0,0.0,0.0,0.0,0.0,0.0,0.0,0.0,0.0,0.0,0.0,0.0,0.0,0.0,0.0,0.0,0.0,0.0,0.0,0.0,0.0,0.0,0.0,0.0,0.0,-0.9445,-0.9523,-0.9646,-0.9618,-0.9608,-0.9651,-1.0677,-1.1798,-1.2817,-1.1844,0.0,0.0,0.0,0.0,0.0,0.0,0.0,0.0,0.0,0.0,0.0,0.0,0.0,0.0,0.0,0.0,0.0,0.0,0.0,0.0,0.0,0.0,0.0,0.0,0.0,0.0,0.0,0.0,0.0,0.0,0.0,0.0,0.0,0.0,0.0,0.0,0.0,0.0,0.0,0.0,0.0,0.0,0.0,0.0,0.0,0.0,0.0,0.0,0.0,0.0,0.0,0.0,0.0,0.0,0.0,0.0,0.0,0.0,0.0,0.0,0.0,0.0,0.0,0.0,0.0,0.0,0.0,0.0,0.0,0.0,0.0,0.0,0.0,0.0,0.0,0.0,0.0,0.0,0.0,0.0,0.0,0.0,0.0,0.0,0.0,0.0,-0.7385,-0.6911,0.0,0.0,0.0,0.0,0.0,0.0,0.0,0.0,0.0,0.0,0.0,0.0,0.0,-0.8913,-0.9578,-0.9581,-0.9581,-0.9581,-0.9703,-0.9774,-0.9788,-0.9666,-0.9608,-0.9598,-0.9655,0.0,-0.9867,-1.0769,0.0,0.0,0.0,0.0,0.0,0.0,0.0,0.0,0.0,0.0,0.0,0.0,0.0,0.0,0.0,0.0,0.0,0.0,0.0,0.0,0.0,0.0,0.0,0.0,0.0,0.0,0.0,0.0,0.0,0.0,0.0,0.0,0.0,0.0,0.0,0.0,0.0,0.0,0.0,0.0,0.0,0.0,0.0,0.0,0.0,0.0,0.0,0.0,0.0,0.0,0.0,0.0,0.0,0.0,0.0,0.0,0.0,0.0,0.0,0.0,0.0,0.0,0.0,0.0,0.0,0.0,0.0,0.0,0.0,0.0,0.0,0.0,0.0,0.0,0.0,0.0,0.0,0.0,0.0,0.0,0.0,0.0,0.0,0.0,0.0,-0.8314,-0.6577,-0.6136,-0.5906,-0.597,0.0,0.0,0.0,0.0,0.0,0.0,0.0,0.0,0.0,-0.7739,-0.7751,-0.8379,-0.9727,-0.9815,-0.9795,-0.9798,-1.0008,-1.008,-1.0073,-0.9924,-0.9795,-0.9842,-0.9612,-0.9422,-0.9326,-0.9841,-1.0092,-1.0314,0.0,0.0,0.0,0.0,-1.5211,-1.5355,0.0,0.0,0.0,0.0,0.0,0.0,0.0,0.0,0.0,0.0,0.0,0.0,0.0,0.0,0.0,-0.9209,0.0,0.0,0.0,0.0,0.0,0.0,0.0,0.0,0.0,0.0,0.0,0.0,0.0,0.0,0.0,0.0,0.0,0.0,0.0,0.0,0.0,0.0,0.0,0.0,0.0,0.0,0.0,0.0,0.0,0.0,0.0,0.0,0.0,0.0,0.0,0.0,0.0,0.0,0.0,0.0,0.0,0.0,0.0,0.0,0.0,0.0,0.0,0.0,0.0,0.0,0.0,0.0,0.0,0.0,0.0,0.0,0.0,0.0,0.0,0.0,0.0,-0.7238,-0.5656,-0.5127,-0.4486,-0.4356,0.0,0.0,0.0,0.0,0.0,0.0,-0.4095,-0.4022,-0.4941,-0.6858,-0.6924,-0.7889,-0.9937,-1.0053,-1.0107,-1.011,-1.0226,-1.028,-1.0276,-1.012,-0.9987,-0.9974,-0.9778,-0.9598,-0.9476,-0.9306,-0.9187,-0.9198,-1.0181,-1.0676,-1.1126,-1.3297,-1.3839,-1.3644,0.0,0.0,0.0,0.0,0.0,0.0,0.0,0.0,0.0,0.0,0.0,0.0,0.0,0.0,-0.895,-0.8895,-1.1063,-1.2679,0.0,0.0,0.0,0.0,0.0,0.0,0.0,0.0,0.0,0.0,0.0,0.0,0.0,0.0,0.0,0.0,0.0,0.0,0.0,0.0,0.0,0.0,0.0,0.0,0.0,0.0,0.0,0.0,0.0,0.0,0.0,0.0,0.0,0.0,0.0,0.0,0.0,0.0,0.0,0.0,0.0,0.0,0.0,0.0,0.0,0.0,0.0,0.0,0.0,0.0,0.0,0.0,0.0,0.0,0.0,0.0,0.0,0.0,0.0,0.0,0.0,-0.3117,-0.2573,0.0,0.0,0.0,0.0,-0.3779,-0.3598,-0.3322,-0.2823,-0.2728,-0.3901,-0.6456,-0.6525,-0.7707,-1.0256,-1.0263,-1.0266,-1.027,-1.0276,-1.028,-1.0276,-1.012,-0.9987,-0.9977,-0.988,-0.9805,-0.9764,-0.9334,-0.9072,-0.8947,-0.8995,-0.9541,-1.0363,-1.1413,-1.1857,-1.2064,0.0,0.0,0.0,0.0,0.0,0.0,0.0,0.0,0.0,0.0,0.0,0.0,0.0,0.0,0.0,0.0,0.0,0.0,0.0,0.0,0.0,0.0,0.0,0.0,0.0,0.0,0.0,0.0,0.0,0.0,0.0,0.0,0.0,0.0,0.0,0.0,0.0,0.0,0.0,0.0,0.0,0.0,0.0,0.0,0.0,0.0,0.0,0.0,0.0,0.0,0.0,0.0,0.0,0.0,0.0,0.0,0.0,0.0,0.0,0.0,0.0,0.0,0.0,0.0,0.0,0.0,0.0,0.0,0.0,0.0,0.0,0.0,0.0,0.0,0.0,0.0,0.0,0.0,0.0,-0.2473,-0.188,0.0,-0.163,-0.2645,-0.2991,-0.217,-0.2127,-0.1837,-0.1029,-0.0953,-0.2423,-0.5699,-0.5782,-0.7384,-1.0641,-1.0612,-1.0612,-1.0711,-1.0612,-1.0565,-1.0555,-1.031,-1.0198,-1.0185,-0.993,-0.9771,-0.9673,-0.9513,-0.9415,-0.9351,-0.9154,-0.9633,-1.0464,-1.0803,-1.1342,-1.1919,0.0,0.0,0.0,0.0,0.0,0.0,0.0,0.0,0.0,0.0,0.0,0.0,0.0,0.0,0.0,0.0,0.0,0.0,0.0,0.0,0.0,0.0,0.0,0.0,0.0,0.0,0.0,0.0,0.0,0.0,0.0,0.0,0.0,0.0,0.0,0.0,0.0,0.0,0.0,0.0,0.0,0.0,-1.3879,0.0,0.0,0.0,0.0,0.0,0.0,0.0,0.0,0.0,0.0,0.0,0.0,0.0,0.0,0.0,0.0,0.0,0.0,0.0,0.0,0.0,0.0,0.0,0.0,0.0,0.0,0.0,0.0,0.0,0.0,0.0,0.0,0.0,0.0,0.0,-0.2267,-0.1914,-0.1224,-0.0785,-0.088,-0.1415,-0.1501,-0.091,-0.0922,-0.0733,-0.0067,0.0,-0.1672,-0.5366,-0.5455,-0.7233,-1.0951,-1.0921,-1.0897,-1.088,-1.0779,-1.0768,-1.0711,-1.0415,-1.028,-1.0263,-0.9954,-0.9768,-0.968,-0.968,-0.968,-0.9652,-0.9694,-1.0046,-1.0554,-1.1229,-1.1453,-1.1422,0.0,0.0,0.0,0.0,0.0,0.0,0.0,0.0,0.0,0.0,0.0,0.0,0.0,0.0,0.0,0.0,0.0,0.0,0.0,0.0,0.0,0.0,0.0,0.0,0.0,0.0,0.0,0.0,0.0,0.0,0.0,0.0,0.0,0.0,0.0,0.0,0.0,0.0,0.0,0.0,0.0,0.0,-1.3342,0.0,0.0,0.0,0.0,0.0,0.0,0.0,0.0,0.0,0.0,0.0,0.0,0.0,0.0,0.0,0.0,0.0,0.0,0.0,0.0,0.0,0.0,0.0,0.0,0.0,0.0,0.0,0.0,0.0,0.0,0.0,0.0,0.0,-0.3651,-0.2732,-0.1914,-0.1305,-0.0534,0.0,0.0,0.0,0.0,0.0,0.0,0.0,0.0,0.0,-0.175,-0.5515,-0.5583,-0.7393,-1.1168,-1.1231,-1.1087,-1.0887,-1.0877,-1.0796,-1.0711,-1.0419,-1.0283,-1.0263,-0.9961,-0.9825,-0.9822,-0.9822,-0.9822,-0.9852,-1.0493,-1.0665,-1.0739,-1.2464,-1.1953,-1.0348,0.0,0.0,0.0,0.0,0.0,0.0,0.0,0.0,0.0,0.0,0.0,0.0,0.0,0.0,0.0,0.0,0.0,0.0,0.0,0.0,0.0,0.0,0.0,0.0,0.0,0.0,0.0,0.0,0.0,0.0,0.0,0.0,0.0,0.0,0.0,0.0,0.0,0.0,0.0,0.0,0.0,0.0,-1.2573,0.0,0.0,0.0,0.0,0.0,0.0,0.0,0.0,0.0,0.0,0.0,0.0,0.0,0.0,0.0,0.0,0.0,0.0,0.0,0.0,0.0,0.0,0.0,0.0,0.0,0.0,0.0,0.0,0.0,0.0,0.0,0.0,-0.2745,-0.2591,-0.147,-0.0528,-0.0406,-0.014,0.0,0.0,0.0,0.0,0.0,0.0,0.0,0.0,0.0,-0.1688,-0.545,-0.5611,-0.7427,-1.1328,-1.1114,-1.104,-1.1101,-1.0887,-1.0761,-1.0714,-1.0521,-1.0378,-1.027,-1.0073,-0.9862,-0.9822,-0.9822,-0.9822,-0.9802,-0.9916,-1.0277,-1.0732,-1.0425,-0.9864,-0.9335,0.0,0.0,0.0,0.0,0.0,0.0,0.0,0.0,0.0,0.0,0.0,0.0,0.0,0.0,0.0,0.0,0.0,0.0,0.0,0.0,0.0,0.0,0.0,0.0,0.0,0.0,0.0,0.0,0.0,0.0,0.0,0.0,0.0,0.0,0.0,0.0,0.0,0.0,0.0,0.0,0.0,0.0,-1.2714,-1.4465,-1.5771,-1.6691,-1.684,-1.6594,-1.6017,-1.4931,0.0,0.0,0.0,0.0,0.0,0.0,0.0,0.0,0.0,0.0,0.0,0.0,0.0,0.0,0.0,0.0,0.0,0.0,0.0,0.0,0.0,0.0,0.0,0.0,-0.3146,-0.1978,-0.1369,-0.0531,0.0,0.0,0.0,0.0,0.0,0.0,0.0,0.0,0.0,0.0,0.0,0.0,-0.1714,-0.5599,-0.5699,-0.7546,-1.1484,-1.1314,-1.1206,-1.1231,-1.0989,-1.0839,-1.0714,-1.0561,-1.0415,-1.0273,-1.0117,-0.9903,-0.9822,-0.9822,-0.9822,0.0,0.0,0.0,0.0,0.0,-0.9565,-0.9375,0.0,0.0,0.0,0.0,0.0,0.0,0.0,0.0,0.0,0.0,0.0,0.0,0.0,0.0,0.0,0.0,0.0,0.0,0.0,0.0,0.0,0.0,0.0,0.0,0.0,0.0,0.0,0.0,0.0,0.0,0.0,0.0,0.0,0.0,0.0,0.0,0.0,0.0,0.0,0.0,0.0,0.0,-1.3411,-1.4064,-1.5517,-1.7058,-1.6342,-1.598,-1.558,-1.3948,0.0,0.0,0.0,0.0,0.0,0.0,0.0,0.0,0.0,0.0,0.0,0.0,0.0,0.0,0.0,0.0,0.0,0.0,0.0,0.0,0.0,0.0,0.0,0.0,-0.3173,-0.1471,-0.0207,0.0,0.0,0.0,0.0,0.0,0.0,0.0,0.0,0.0,0.0,0.0,0.0,0.0,0.0,0.0,0.0,-0.7693,-1.1548,-1.1603,-1.145,-1.1231,-1.1148,-1.0992,-1.0714,-1.0578,-1.0429,-1.0273,-1.0134,-0.9916,-0.9822,-0.9822,-0.9812,-0.9859,-1.0763,-1.0869,-1.049,-1.0174,-1.0048,-0.9923,0.0,0.0,0.0,0.0,0.0,0.0,0.0,0.0,0.0,0.0,0.0,0.0,0.0,0.0,0.0,0.0,0.0,0.0,0.0,0.0,0.0,0.0,0.0,0.0,0.0,0.0,0.0,0.0,0.0,0.0,0.0,0.0,0.0,0.0,0.0,0.0,0.0,0.0,0.0,0.0,0.0,0.0,-1.3771,-1.5074,-1.6066,-1.6858,-1.7167,-1.6535,-1.5427,-1.4363,-1.2578,-1.0627,-0.9584,0.0,0.0,0.0,0.0,0.0,0.0,0.0,0.0,0.0,0.0,0.0,0.0,0.0,0.0,0.0,0.0,0.0,0.0,0.0,0.0,-0.4712,-0.2319,-0.0345,-0.0072,0.0,0.0,0.0,0.0,0.0,0.0,0.0,0.0,0.0,0.0,0.0,0.0,0.0,-0.1748,-0.5665,-0.581,-0.7693,-1.1548,-1.1497,-1.1345,-1.1231,0.0,0.0,-1.0717,-1.069,-1.0531,-1.028,-1.0249,-1.008,-0.9822,-0.9822,-0.9754,-0.9649,-0.9828,-0.9835,-0.9647,-0.9461,-0.9314,-0.9103,0.0,0.0,0.0,0.0,0.0,0.0,0.0,0.0,0.0,0.0,0.0,0.0,0.0,0.0,0.0,0.0,0.0,0.0,0.0,0.0,0.0,0.0,0.0,0.0,0.0,0.0,0.0,0.0,0.0,0.0,0.0,0.0,0.0,0.0,0.0,0.0,0.0,0.0,0.0,0.0,0.0,0.0,-1.5689,-1.6143,-1.6624,-1.7173,-1.7323,-1.675,-1.5636,-1.4125,-1.2196,-1.0076,-0.813,-0.7104,-0.6422,0.0,0.0,0.0,0.0,0.0,0.0,0.0,0.0,0.0,0.0,0.0,0.0,0.0,0.0,-0.9564,0.0,0.0,-0.4759,-0.4994,-0.2211,0.0,0.0,0.0,0.0,0.0,0.0,0.0,0.0,0.0,0.0,0.0,0.0,0.0,0.0,0.0,-0.1748,-0.5665,-0.581,-0.7693,-1.1548,-1.1545,-1.1389,-1.1231,-1.109,-1.0938,-1.0721,-1.0721,-1.0561,-1.028,-1.028,-1.0107,-0.9822,-0.9822,-0.9778,-0.9707,-0.9639,-0.9469,-0.9306,-0.91,-0.9001,-0.8885,0.0,0.0,0.0,0.0,0.0,0.0,0.0,0.0,0.0,0.0,0.0,0.0,0.0,0.0,0.0,0.0,0.0,0.0,0.0,0.0,0.0,0.0,0.0,0.0,0.0,0.0,0.0,0.0,0.0,0.0,0.0,0.0,0.0,0.0,0.0,0.0,0.0,0.0,0.0,0.0,0.0,0.0,-1.765,-1.7201,-1.7329,-1.7736,-1.7536,-1.6928,-1.5924,-1.3928,-1.1947,-0.9891,-0.7123,-0.6083,-0.5578,-0.4313,-0.5201,0.0,0.0,0.0,0.0,0.0,0.0,0.0,0.0,0.0,-0.9295,-0.9717,-0.9781,-0.991,-1.0334,-0.7365,-0.491,-0.5073,-0.201,0.0368,0.0298,0.0377,0.0304,0.0,0.0,0.0,0.0,0.0,0.0,0.0,0.0,0.0,0.0,-0.0219,-0.1966,-0.5448,-0.581,-0.7695,-1.1329,-1.1374,-1.1295,-1.1231,-1.1134,-1.0978,-1.0721,-1.0721,-1.0561,-1.0276,-1.0215,-1.0049,-0.9822,-0.9822,-0.9805,-0.9768,-0.9652,-0.9442,-0.9234,-0.9032,-0.8981,-0.8977,0.0,0.0,0.0,0.0,0.0,0.0,0.0,0.0,0.0,0.0,0.0,0.0,0.0,0.0,0.0,0.0,0.0,0.0,0.0,0.0,0.0,0.0,0.0,0.0,0.0,0.0,0.0,0.0,0.0,0.0,0.0,0.0,0.0,0.0,0.0,0.0,0.0,0.0,0.0,0.0,0.0,0.0,-1.8076,-1.8226,-1.8335,-1.8397,-1.8375,-1.7482,-1.604,-1.4368,-1.2223,-0.9923,-0.8341,-0.7011,-0.5934,-0.5683,0.0,-0.5766,-0.5858,-0.587,-0.5715,-0.5162,-0.5622,-0.6397,0.0,0.0,-0.928,-1.0203,-1.0392,-1.049,-1.0749,-0.7815,-0.5005,-0.4099,-0.0799,0.1638,0.1509,0.1603,0.1236,0.0156,0.0,0.0,0.0,0.0,0.0,0.0,0.0,0.0,0.0,-0.0948,-0.2548,-0.4723,-0.5812,-0.7697,-1.0599,-1.0485,-1.063,-1.1231,-1.1033,-1.0884,-1.0721,-1.0721,-1.0561,-1.0263,-0.9992,-0.9852,-0.9822,-0.9822,-0.9747,-0.9632,-0.9615,-0.9507,-0.9337,-0.9241,-0.9187,-0.9166,0.0,0.0,0.0,0.0,0.0,0.0,0.0,0.0,0.0,0.0,0.0,0.0,0.0,0.0,0.0,0.0,0.0,0.0,0.0,0.0,0.0,0.0,0.0,0.0,0.0,0.0,0.0,0.0,0.0,0.0,0.0,0.0,0.0,0.0,0.0,0.0,0.0,0.0,0.0,0.0,0.0,0.0,-1.9305,-1.9429,-1.9292,-1.8931,-1.8417,-1.7373,0.0,0.0,-1.2235,-0.9861,-0.7793,-0.6681,-0.5952,-0.504,-0.5271,0.0,-0.5337,-0.416,0.0,0.0,-0.4189,-0.5596,-0.6269,-0.8215,-1.0382,-1.2057,-1.214,-1.2086,-1.2723,-0.9388,-0.5955,0.0,-0.0595,0.1901,0.1834,0.1932,0.1479,0.0155,-0.0693,-0.0841,-0.0077,0.0,0.0,0.0,0.0,0.0,0.0,-0.1094,-0.2621,-0.4651,-0.5812,-0.7697,-1.0452,-1.0327,-1.0544,-1.1231,-1.1016,-1.0799,-1.0721,-1.0721,-1.0605,-1.0385,-1.0086,-0.9893,-0.9886,-0.9859,-0.9785,-0.9734,-0.9734,-0.9693,-0.9598,-0.933,-0.921,-0.92,0.0,0.0,0.0,0.0,0.0,0.0,0.0,0.0,0.0,0.0,0.0,0.0,0.0,0.0,0.0,0.0,0.0,0.0,0.0,0.0,0.0,0.0,0.0,0.0,0.0,0.0,0.0,0.0,0.0,0.0,0.0,0.0,0.0,0.0,0.0,0.0,0.0,0.0,0.0,0.0,0.0,0.0,-2.0327,-2.0087,-1.9733,-1.9272,-1.8551,-1.7239,0.0,0.0,-1.2007,-0.9637,-0.7535,-0.6701,-0.6249,-0.5147,-0.5234,-0.5363,-0.4101,0.0,0.0,-0.16,-0.3245,-0.4981,-0.5761,-0.8511,-1.1471,-1.3486,-1.3665,-1.3612,-1.4121,-1.0456,-0.6463,-0.3895,-0.0075,0.2456,0.2386,0.2406,0.1867,0.0232,-0.0845,-0.1152,-0.0616,-0.054,-0.0382,0.0,0.0,0.0,0.0,-0.1385,-0.284,-0.429,-0.5815,-0.763,-0.9804,-0.9862,-1.0226,-1.0882,-1.0839,-1.0759,-1.0717,-1.0677,-1.0599,-1.0477,-1.0178,-0.9987,-0.9974,-0.9883,-0.9822,-0.9822,-0.9822,-0.9822,-0.9771,-0.9364,-0.9299,-0.9323,0.0,0.0,0.0,0.0,0.0,0.0,0.0,0.0,0.0,0.0,0.0,0.0,0.0,0.0,0.0,0.0,0.0,0.0,0.0,0.0,0.0,0.0,0.0,0.0,0.0,0.0,0.0,0.0,0.0,0.0,0.0,0.0,0.0,0.0,0.0,0.0,0.0,0.0,0.0,0.0,0.0,0.0,-2.0568,-1.9779,-1.9379,-1.9325,-1.9011,0.0,0.0,0.0,-1.1496,-0.9106,-0.8381,-0.7627,0.0,-0.7,-0.5947,0.0,0.0,0.0,-0.1366,-0.16,-0.3123,-0.499,-0.683,-0.9576,-1.22,-1.3886,-1.4497,-1.464,-1.4461,-1.0603,-0.6311,-0.2792,0.1122,0.3724,0.3535,0.3696,0.285,0.0308,0.0,-0.0533,0.0,-0.1849,-0.1303,-0.0076,0.0,0.0,0.0,-0.2186,-0.3496,-0.3568,-0.5751,-0.7349,-0.814,-0.8719,-0.9301,-1.0052,-1.0463,-1.0724,-1.0714,-1.0565,-1.0497,-1.0477,-1.0178,-0.9987,-0.9974,-0.9883,-0.9822,-0.9822,-0.9822,-0.9822,-0.9785,-0.9486,-0.9469,-0.9554,0.0,0.0,0.0,0.0,0.0,0.0,0.0,0.0,0.0,0.0,0.0,0.0,0.0,0.0,0.0,0.0,0.0,0.0,0.0,0.0,0.0,0.0,0.0,0.0,0.0,0.0,0.0,0.0,0.0,0.0,0.0,0.0,0.0,0.0,0.0,0.0,0.0,0.0,0.0,0.0,0.0,0.0,-2.0909,-2.0421,-1.9633,-1.8652,0.0,0.0,0.0,0.0,0.0,0.0,-0.8369,0.0,0.0,-0.5991,0.0,0.0,0.0,0.0,-0.0781,-0.216,-0.4042,-0.5996,-0.7914,-1.1253,-1.4453,-1.6093,-1.6386,-1.6284,-1.5929,-1.2122,-0.7479,-0.2502,0.0818,0.2995,0.3655,0.3818,0.2867,0.0306,-0.0759,0.0,0.0,0.0,0.0,-0.2422,-0.2093,-0.2067,-0.2333,-0.3059,-0.386,-0.4587,-0.6188,-0.7321,-0.8043,-0.8115,-0.8767,-0.9918,-1.0478,-1.0721,-1.0717,-1.0666,-1.0643,-1.0626,-1.0331,-1.0202,-1.0181,-0.9927,-0.9822,-0.9822,-0.9822,-0.9764,-0.9669,-0.9568,-0.9564,-0.9581,0.0,0.0,0.0,0.0,0.0,0.0,0.0,0.0,0.0,0.0,0.0,0.0,0.0,0.0,0.0,0.0,0.0,0.0,0.0,0.0,0.0,0.0,0.0,0.0,0.0,0.0,0.0,0.0,0.0,0.0,0.0,0.0,0.0,0.0,0.0,0.0,0.0,0.0,0.0,0.0,0.0,0.0,-2.0588,-2.0087,-1.919,0.0,0.0,0.0,0.0,0.0,0.0,0.0,0.0,0.0,0.0,0.0,0.0,0.0,0.0,-0.122,-0.1415,-0.3141,-0.5309,-0.7471,-0.9155,-1.2721,-1.5962,-1.6908,-1.7477,-1.7481,-1.6369,-1.27,-0.8127,-0.2953,-0.0072,0.1861,0.297,0.3185,0.2416,0.0227,-0.0752,0.0,0.0,0.0,0.0,-0.2931,-0.2609,-0.2804,-0.3498,-0.3496,-0.4005,-0.5168,-0.6378,-0.72,-0.7638,-0.7708,-0.8476,-0.9844,-1.0428,-1.0721,-1.0721,-1.0721,-1.069,-1.0626,-1.0385,-1.0249,-1.0178,-0.9924,-0.9822,-0.9822,-0.9822,-0.9764,-0.968,-0.9629,-0.9642,-0.9663,0.0,0.0,0.0,0.0,0.0,0.0,0.0,0.0,0.0,0.0,0.0,0.0,0.0,0.0,0.0,0.0,0.0,0.0,0.0,0.0,0.0,0.0,0.0,0.0,0.0,0.0,0.0,0.0,0.0,0.0,0.0,0.0,0.0,0.0,0.0,0.0,0.0,0.0,0.0,0.0,0.0,0.0,-1.9686,-1.8838,0.0,0.0,0.0,0.0,0.0,0.0,0.0,0.0,0.0,0.0,0.0,0.0,0.0,-0.3758,-0.2219,-0.24,-0.332,-0.461,-0.6902,-0.9244,-1.0437,-1.3834,-1.6616,-1.6381,-1.7579,-1.8028,0.0,0.0,-0.8338,-0.3996,-0.1347,0.0629,0.1745,0.1933,0.1436,0.0,0.0,0.0,0.0,0.0,0.0,-0.178,0.0,-0.2362,-0.3498,-0.3568,-0.4077,-0.5242,-0.6325,-0.6923,-0.6918,-0.7426,-0.8358,-0.9649,-1.0386,-1.0721,-1.0721,-1.0711,-1.0629,-1.0483,-1.0334,-1.0185,-0.9974,-0.9883,-0.9822,-0.9822,-0.9822,-0.9815,-0.9795,-0.9666,-0.97,-0.9791,0.0,0.0,0.0,0.0,0.0,0.0,0.0,0.0,0.0,0.0,0.0,0.0,0.0,0.0,0.0,0.0,0.0,0.0,0.0,0.0,0.0,0.0,0.0,0.0,0.0,0.0,0.0,0.0,0.0,0.0,0.0,0.0,0.0,0.0,0.0,0.0,0.0,0.0,0.0,0.0,0.0,0.0,-1.9426,0.0,0.0,0.0,0.0,0.0,0.0,0.0,0.0,0.0,0.0,0.0,-0.8496,0.0,0.0,-0.526,-0.4936,-0.4583,-0.4887,-0.7223,-0.8389,-0.9391,-1.1094,-1.3621,-1.5549,-1.5547,-1.5724,-1.5508,0.0,0.0,0.0,-0.353,-0.1823,0.0,0.1591,0.1904,0.0,0.0,0.0,-0.0151,-0.0447,-0.1407,0.0,0.0,-0.3072,-0.416,-0.4734,-0.4732,-0.5313,-0.648,-0.6757,-0.6823,-0.676,-0.7801,-0.855,-0.892,-1.012,-1.0721,-1.0717,-1.0602,-1.0527,-1.0477,-1.0219,-1.0024,-0.9974,-0.9883,-0.9822,-0.9822,-0.9822,-0.9754,-0.9673,-0.9741,-0.9724,-0.9673,0.0,0.0,0.0,0.0,0.0,0.0,0.0,0.0,0.0,0.0,0.0,0.0,0.0,0.0,0.0,0.0,0.0,0.0,0.0,0.0,0.0,0.0,0.0,0.0,0.0,0.0,0.0,0.0,0.0,0.0,0.0,0.0,0.0,0.0,0.0,0.0,0.0,0.0,0.0,0.0,0.0,0.0,0.0,0.0,0.0,0.0,0.0,0.0,0.0,0.0,0.0,-0.9588,-0.9829,-0.9612,-0.9239,-0.874,0.0,-0.6738,-0.6684,-0.6694,-0.7094,-0.8632,-0.9692,-1.0614,-1.189,-1.3558,-1.477,-1.4549,-1.4546,0.0,0.0,0.0,0.0,0.0,0.0,0.0,0.0074,0.0751,0.0834,0.0,0.0,0.0,0.0,-0.0592,-0.0956,0.0,-0.2984,-0.451,-0.5168,-0.5168,-0.5751,-0.6988,-0.69,-0.6792,-0.6668,-0.7603,-0.8251,-0.8587,-0.9718,-1.0452,-1.0714,-1.0238,-1.0201,-1.0385,0.0,-0.9699,-0.9879,-0.9856,-0.9822,-0.9822,-0.9822,-0.9771,-0.971,-0.9791,-0.9771,-0.9713,0.0,0.0,0.0,0.0,0.0,0.0,0.0,0.0,0.0,0.0,0.0,0.0,0.0,0.0,0.0,0.0,0.0,0.0,0.0,0.0,0.0,0.0,0.0,0.0,0.0,0.0,0.0,0.0,0.0,0.0,0.0,0.0,0.0,0.0,0.0,0.0,0.0,0.0,0.0,0.0,0.0,0.0,0.0,0.0,0.0,0.0,0.0,0.0,0.0,0.0,-1.0164,-1.0162,-1.0378,-1.0378,-1.0266,-1.0063,-0.9305,-0.842,-0.8285,-0.8864,-0.9529,-0.9591,-1.0847,-1.2206,-1.2585,-1.335,-1.3793,-1.3397,0.0,0.0,-1.1273,0.0,-0.8331,-0.6334,0.0,-0.3057,-0.186,-0.072,0.0,0.0,0.0,0.0,0.0,0.0,0.0,0.0,-0.2186,-0.3931,-0.495,-0.5242,-0.5887,-0.6956,-0.6878,-0.6751,-0.6574,-0.7226,-0.7848,-0.8454,-0.9183,-0.9851,-1.0382,-0.9695,-0.9623,-1.0139,-0.9403,-0.9325,-0.9822,-0.9822,-0.9822,-0.9822,-0.9822,-0.9822,-0.9822,-0.9822,-0.9822,-0.9822,0.0,0.0,0.0,0.0,0.0,0.0,0.0,0.0,0.0,0.0,-1.5493,-1.6082,0.0,0.0,0.0,0.0,0.0,0.0,0.0,0.0,0.0,0.0,0.0,0.0,0.0,0.0,0.0,0.0,0.0,0.0,0.0,0.0,0.0,0.0,0.0,0.0,0.0,0.0,0.0,0.0,0.0,0.0,0.0,0.0,0.0,0.0,0.0,0.0,0.0,0.0,-1.0768,-1.0995,-1.1148,-1.1436,-1.1752,-1.1807,-1.1289,-1.0875,-1.1479,-1.1306,-1.1084,-1.1587,-1.183,-1.197,-1.241,-1.1992,0.0,0.0,0.0,-1.0387,-1.0372,-0.9367,0.0,-0.6426,0.0,0.0,0.0,0.0,0.0,0.0,0.0,0.0,0.0,0.0,0.0,0.0,0.0,-0.3568,-0.3787,-0.5606,-0.6705,-0.6776,-0.6758,-0.6662,-0.6547,-0.7192,-0.7581,-0.7715,-0.8451,-0.8853,-0.8978,-0.8615,-0.8756,-0.9364,-0.8992,0.0,-0.9822,-0.9822,-0.9822,-0.9822,-0.9822,-0.9822,-0.9822,-0.9822,-0.9822,-0.9822,0.0,0.0,0.0,0.0,0.0,0.0,0.0,-1.3776,-1.3917,-1.5406,-1.5928,-1.6251,-1.6643,-1.7265,0.0,0.0,0.0,0.0,0.0,0.0,0.0,0.0,0.0,0.0,0.0,0.0,0.0,0.0,0.0,0.0,0.0,0.0,0.0,0.0,0.0,0.0,0.0,0.0,0.0,0.0,0.0,0.0,0.0,0.0,0.0,0.0,0.0,0.0,0.0,0.0,-1.0945,-1.1538,-1.1691,-1.1887,-1.2166,-1.2244,-1.2083,-1.2037,-1.2424,-1.2248,-1.2119,-1.236,-1.2172,-1.1987,-1.2175,0.0,0.0,0.0,0.0,-0.9281,-0.9417,0.0,0.0,0.0,0.0,0.0,0.0,0.0,0.0,0.0,0.0,0.0,0.0,0.0,0.0,0.0,0.0,-0.2841,-0.3496,-0.5097,-0.599,-0.5948,-0.5833,-0.5757,-0.571,-0.6,-0.6309,-0.6642,-0.7042,-0.7379,-0.7774,-0.7747,-0.8288,-0.9173,-0.8605,-0.8916,-0.9822,-0.9822,-0.9822,-0.9822,-0.9822,-0.9822,-0.9822,-0.9822,-0.9822,-0.9822,0.0,0.0,0.0,0.0,0.0,0.0,0.0,-1.3965,-1.4194,-1.5982,-1.6108,-1.6169,-1.6655,-1.7265,-1.7259,0.0,0.0,0.0,0.0,0.0,0.0,0.0,0.0,0.0,0.0,0.0,0.0,0.0,0.0,0.0,0.0,0.0,0.0,0.0,0.0,0.0,0.0,0.0,0.0,0.0,0.0,0.0,0.0,0.0,0.0,0.0,0.0,0.0,0.0,0.0,-1.087,-1.1582,-1.1799,-1.2023,-1.2216,-1.2274,-1.2437,-1.26,-1.26,-1.2688,-1.2742,-1.2589,-1.2305,-1.2115,-1.1996,-1.1135,0.0,0.0,0.0,0.0,0.0,0.0,0.0,0.0,0.0,0.0,0.0,0.0,0.0,0.0,0.0,0.0,0.0,0.0,0.0,0.0,0.0,0.0,-0.3423,-0.4357,-0.4828,-0.4836,-0.4701,-0.4639,-0.4648,-0.453,-0.4771,-0.53,-0.557,-0.5971,-0.6571,-0.6949,-0.7762,-0.873,-0.8229,-0.8603,-0.9579,-0.9761,-0.9822,-0.9822,-0.9822,-0.9822,-0.9822,-0.9822,-0.9822,-0.9822,0.0,0.0,0.0,0.0,0.0,0.0,0.0,-1.3421,-1.3491,-1.5873,-1.5548,-1.5505,-1.6596,-1.7265,-1.7041,0.0,0.0,0.0,0.0,0.0,0.0,0.0,0.0,0.0,0.0,0.0,0.0,0.0,0.0,0.0,0.0,0.0,0.0,0.0,0.0,0.0,0.0,0.0,0.0,0.0,0.0,0.0,0.0,0.0,0.0,0.0,0.0,0.0,0.0,0.0,0.0,-1.069,-1.1111,-1.1901,-1.262,-1.2366,0.0,0.0,-1.2918,-1.2929,-1.2901,-1.2749,-1.2383,-1.2115,-1.1996,0.0,0.0,0.0,0.0,0.0,0.0,0.0,0.0,0.0,0.0,0.0,0.0,0.0,0.0,0.0,0.0,0.0,0.0,0.0,0.0,0.0,0.0,0.0,-0.3423,-0.36,-0.3626,-0.3577,-0.3528,-0.3482,-0.337,-0.3365,-0.3362,-0.3429,-0.4435,-0.4906,-0.5037,-0.596,-0.6788,-0.7392,-0.7851,-0.8355,0.0,-0.9579,-0.9822,-0.9822,-0.9822,-0.9822,-0.9822,-0.9822,-0.9822,-0.9822,0.0,0.0,0.0,0.0,0.0,0.0,-1.4245,-1.4029,-1.4344,-1.5698,-1.5952,-1.5961,-1.58,-1.5921,-1.5539,0.0,0.0,0.0,0.0,0.0,0.0,0.0,0.0,0.0,0.0,0.0,0.0,0.0,0.0,0.0,0.0,0.0,0.0,0.0,0.0,0.0,0.0,0.0,0.0,0.0,0.0,0.0,0.0,0.0,0.0,0.0,0.0,0.0,0.0,0.0,0.0,0.0,-1.0385,-1.0955,0.0,0.0,-1.2345,-1.2617,-1.2888,-1.3024,-1.303,-1.279,-1.226,-1.1678,-1.1284,0.0,0.0,0.0,-0.9158,-0.8885,-0.8885,0.0,0.0,0.0,0.0,0.0,0.0,0.0,0.0,0.0,0.0,0.0,0.0,0.0,0.0,0.0,0.0,0.0,-0.1385,-0.2015,-0.2414,-0.2382,-0.2349,-0.2317,-0.2219,-0.2218,-0.2218,-0.2218,-0.2688,-0.3226,-0.39,-0.4945,-0.6251,-0.7781,-0.7991,-0.8551,0.0,-0.97,-0.9822,-0.9822,-0.9822,-0.9822,-0.9822,-0.9822,-0.9822,-0.9822,0.0,0.0,0.0,0.0,0.0,-1.3475,-1.4099,-1.4292,-1.4548,-1.5166,-1.5658,-1.5596,-1.4516,-1.4084,-1.3598,-1.2795,0.0,0.0,0.0,0.0,0.0,0.0,0.0,0.0,0.0,0.0,0.0,0.0,0.0,0.0,0.0,0.0,0.0,0.0,0.0,0.0,0.0,0.0,0.0,0.0,0.0,0.0,0.0,0.0,0.0,0.0,0.0,0.0,0.0,0.0,0.0,0.0,0.0,0.0,0.0,0.0,-1.1864,-1.2244,-1.2654,-1.2898,-1.3003,-1.2837,-1.2206,-1.146,0.0,0.0,0.0,-0.9096,-0.8912,-0.8895,-0.8994,0.0,0.0,0.0,0.0,0.0,0.0,0.0,0.0,0.0,0.0,0.0,0.0,0.0,0.0,0.0,0.0,0.0,-0.0073,-0.0788,-0.1203,-0.1192,-0.1171,-0.1155,-0.1143,-0.1143,-0.1143,-0.1143,-0.1479,-0.2151,-0.3228,-0.4303,-0.5888,-0.785,-0.8042,-0.866,0.0,-0.97,-0.9822,-0.9822,-0.9822,-0.9822,-0.9822,-0.9822,-0.9822,-0.9822,0.0,0.0,0.0,0.0,0.0,0.0,-1.4051,-1.3787,-1.3676,-1.4033,-1.4182,-1.3845,-1.2715,-1.1991,-1.1272,-1.0607,0.0,0.0,0.0,0.0,0.0,0.0,0.0,0.0,0.0,0.0,-1.1714,-1.0253,-1.0198,0.0,0.0,0.0,0.0,0.0,0.0,0.0,0.0,0.0,0.0,0.0,0.0,0.0,0.0,0.0,0.0,0.0,0.0,0.0,0.0,0.0,0.0,0.0,0.0,0.0,0.0,0.0,-1.1138,-1.1904,-1.2213,-1.2511,-1.2769,-1.2922,-1.2284,-1.146,0.0,0.0,0.0,0.0,-0.9035,-0.8981,0.0,0.0,0.0,0.0,0.0,0.0,0.0,0.0,0.0,0.0,0.0,0.0,0.0,0.0,0.0,0.0,0.0,0.0,0.0,0.0,0.0,0.0,0.0,0.0,0.0,0.0,0.0,0.0,-0.1076,-0.2151,-0.3228,-0.4303,-0.569,-0.7271,-0.785,-0.8349,0.0,-0.9518,-0.9822,-0.9822,-0.9822,-0.9822,-0.9822,-0.9822,-0.9822,-0.9822,0.0,0.0,0.0,0.0,0.0,0.0,0.0,-1.252,-1.2491,-1.2455,-1.2785,-1.2616,-1.1496,-1.1073,-1.0554,-0.9659,0.0,0.0,0.0,0.0,0.0,0.0,0.0,0.0,0.0,0.0,-1.0684,-1.0198,-0.9757,-0.9557,-0.9659,0.0,0.0,0.0,0.0,0.0,0.0,0.0,0.0,0.0,0.0,0.0,0.0,0.0,0.0,0.0,0.0,0.0,0.0,0.0,0.0,0.0,0.0,0.0,0.0,0.0,0.0,0.0,-1.1436,-1.1664,-1.1779,-1.1626,-1.1141,-1.0467,-0.9633,0.0,0.0,0.0,0.0,0.0,0.0,0.0,0.0,0.0,0.0,0.0,0.0,0.0,0.0,0.0,0.0,0.0,0.0,0.0,0.0,0.0,0.0,0.0,-0.0071,0.0,0.0,0.0,0.0,0.0,0.0,0.0,0.0,0.0,-0.0336,-0.148,-0.3227,-0.3528,-0.5178,0.0,-0.7954,-0.8578,-0.9518,-0.97,-0.9518,-0.9095,-0.9095,-0.9095,-0.9095,-0.9095,-0.9396,-0.9822,0.0,0.0,0.0,0.0,0.0,0.0,0.0,-1.1717,-1.1472,-1.1033,-1.1334,-1.1173,-1.0201,-1.0029,-0.9789,-0.9343,0.0,0.0,0.0,0.0,0.0,0.0,0.0,0.0,0.0,-1.1013,-1.0276,-0.985,-0.9388,-0.9268,-0.9442,-1.2267,-1.347,0.0,0.0,0.0,0.0,0.0,0.0,0.0,0.0,0.0,-1.2706,0.0,0.0,0.0,0.0,0.0,0.0,0.0,0.0,0.0,0.0,0.0,0.0,0.0,0.0,0.0,0.0,-1.1145,-1.1274,-1.1148,-1.0535,0.0,0.0,0.0,0.0,0.0,0.0,0.0,0.0,0.0,0.0,0.0,0.0,0.0,0.0,0.0,0.0,0.0,0.0,0.0,0.0,0.0,0.0,0.0,0.0,0.0,-0.007,0.0,0.0,0.0,0.0,0.0,0.0,0.0,0.0,0.0,0.0,-0.094,-0.2602,-0.2579,-0.4034,-0.6565,-0.6569,-0.7041,0.0,-0.8349,-0.8291,-0.7933,-0.8354,-0.8468,-0.8491,-0.848,-0.8772,-0.9089,0.0,0.0,0.0,0.0,0.0,0.0,0.0,0.0,-1.0543,-0.9779,-0.9818,-0.9608,-0.8958,-0.8875,-0.9052,-0.934,0.0,0.0,0.0,0.0,0.0,0.0,0.0,0.0,-1.0198,-1.0688,-1.039,-0.921,-0.9231,-0.933,-0.9664,-1.1943,-1.2989,-1.2965,-1.516,0.0,0.0,0.0,0.0,0.0,0.0,-1.2294,0.0,0.0,0.0,0.0,0.0,0.0,0.0,0.0,0.0,0.0,0.0,0.0,0.0,0.0,0.0,0.0,0.0,0.0,0.0,0.0,0.0,0.0,0.0,0.0,0.0,0.0,0.0,0.0,0.0,0.0,0.0,0.0,0.0,0.0,0.0,0.0,0.0,0.0,0.0,0.0,0.0,0.0,0.0,0.0,0.0,0.0,0.0,0.0,0.0,0.0,0.0,0.0,0.0,0.0,0.0,0.0,0.0,-0.0534,-0.1582,-0.1582,-0.2528,0.0,-0.4096,-0.4373,-0.4986,-0.5978,-0.635,-0.6423,-0.7518,-0.7932,-0.7849,-0.79,-0.793,-0.8019,0.0,0.0,0.0,0.0,0.0,0.0,0.0,0.0,0.0,0.0,-0.8825,-0.8803,-0.8747,-0.8814,-0.9011,0.0,0.0,0.0,0.0,0.0,0.0,0.0,0.0,0.0,-1.0198,-0.982,-0.9507,-0.921,-0.9388,-0.954,-0.9668,-1.2013,-1.3063,-1.2965,-1.4783,-1.4718,0.0,0.0,0.0,0.0,-1.1616,-1.1036,0.0,0.0,0.0,0.0,-0.9659,-0.973,0.0,0.0,0.0,0.0,0.0,0.0,0.0,0.0,-0.9659,0.0,0.0,0.0,0.0,0.0,0.0,0.0,0.0,0.0,0.0,0.0,0.0,0.0,0.0,0.0,0.0,0.0,0.0,0.0,0.0,0.0,0.0,0.0,0.0,0.0,0.0,0.0,0.0,0.0,0.0,0.0,0.0,0.0,0.0,0.0,0.0,0.0,0.0,0.0,0.0,0.0,0.0,-0.0534,-0.1582,-0.1515,-0.2463,-0.4094,-0.4013,-0.4312,-0.5001,-0.6072,-0.6168,-0.5795,-0.6967,-0.7346,-0.739,-0.7353,-0.7663,-0.8072,0.0,0.0,0.0,0.0,0.0,0.0,0.0,0.0,0.0,0.0,0.0,0.0,0.0,0.0,0.0,0.0,0.0,0.0,0.0,0.0,0.0,0.0,0.0,-0.9103,-0.9596,-0.9234,-0.9123,-0.9316,-0.9422,-0.9574,-0.9767,-1.1954,-1.2804,-1.2513,-1.3285,-1.2973,-1.1769,-1.1106,-1.0578,-1.0204,-1.0508,0.0,0.0,0.0,0.0,0.0,-0.9707,-0.9713,0.0,-0.9798,-0.968,-0.954,0.0,0.0,0.0,0.0,-0.9612,-0.9503,0.0,0.0,0.0,0.0,0.0,0.0,0.0,0.0,0.0,0.0,0.0,0.0,0.0,0.0,0.0,0.0,0.0,0.0,0.0,0.0,0.0,0.0,0.0,0.0,0.0,0.0,0.0,0.0,0.0,0.0,0.0,0.0,0.0,0.0,0.0,0.0,0.0,0.0,0.0,0.0,0.0,-0.0334,-0.0857,-0.0857,-0.1301,-0.2229,-0.2119,-0.2307,-0.2796,-0.4261,-0.471,-0.4523,-0.6055,-0.6631,-0.6635,-0.6741,-0.6949,-0.7262,0.0,0.0,0.0,0.0,0.0,0.0,0.0,0.0,0.0,0.0,0.0,0.0,0.0,0.0,0.0,0.0,0.0,0.0,0.0,0.0,0.0,0.0,0.0,-0.8895,-0.8971,-0.8971,-0.9106,-0.9381,-0.9405,-0.9544,-0.9788,-1.1619,-1.2335,-1.2012,-1.1664,-1.1141,-1.0457,-0.9741,-0.949,-0.9622,-0.9764,0.0,0.0,0.0,0.0,0.0,0.0,0.0,0.0,-0.9747,-0.9605,-0.9425,-0.9676,0.0,0.0,0.0,0.0,0.0,0.0,0.0,0.0,0.0,0.0,0.0,0.0,0.0,0.0,0.0,0.0,0.0,0.0,0.0,0.0,0.0,0.0,0.0,0.0,0.0,0.0,0.0,0.0,0.0,0.0,0.0,0.0,0.0,0.0,0.0,0.0,0.0,0.0,0.0,0.0,0.0,0.0,0.0,0.0,0.0,0.0,0.0,0.0,0.0,0.0,0.0,0.0,0.0,-0.0129,-0.2046,-0.2861,-0.3172,-0.509,-0.5916,-0.6041,-0.619,-0.6223,-0.635,0.0,0.0,0.0,0.0,0.0,0.0,0.0,0.0,0.0,0.0,0.0,0.0,0.0,0.0,0.0,0.0,0.0,0.0,0.0,0.0,0.0,0.0,-0.9001,-0.8994,-0.9173,-0.9176,-0.9262,-0.9381,-0.951,-0.9598,-0.9642,-1.0906,-1.1743,-1.2029,-1.1325,-1.0813,-1.0465,-0.9861,-0.9588,-0.9622,-0.9764,0.0,0.0,0.0,0.0,0.0,0.0,0.0,0.0,-0.9635,-0.9527,-0.9388,-0.9435,0.0,0.0,0.0,0.0,0.0,-0.9069,-0.8746,0.0,0.0,0.0,0.0,0.0,0.0,0.0,0.0,0.0,0.0,0.0,0.0,0.0,0.0,0.0,0.0,0.0,0.0,0.0,0.0,0.0,0.0,0.0,0.0,0.0,0.0,0.0,0.0,0.0,0.0,0.0,0.0,0.0,0.0,0.0,0.0,0.0,0.0,0.0,0.0,0.0,0.0,0.0,0.0,0.0,0.0,-0.0066,-0.1326,-0.2313,-0.3209,-0.4506,-0.5485,-0.6288,-0.6378,-0.6479,-0.6467,0.0,0.0,0.0,0.0,0.0,0.0,0.0,0.0,0.0,0.0,0.0,0.0,0.0,0.0,0.0,0.0,0.0,0.0,0.0,0.0,0.0,-0.921,-0.9171,-0.9171,-0.921,-0.921,-0.9326,-0.9503,-0.9574,-0.9649,-0.972,-1.0573,-1.1145,-1.1393,-1.092,-1.0417,-0.9917,-0.969,-0.9652,-0.973,0.0,0.0,0.0,0.0,0.0,0.0,0.0,0.0,0.0,0.0,-0.9452,-0.933,-0.9354,0.0,0.0,0.0,0.0,0.0,-0.9052,-0.8584,0.0,0.0,0.0,0.0,0.0,0.0,0.0,0.0,0.0,0.0,0.0,0.0,0.0,0.0,0.0,0.0,0.0,0.0,0.0,0.0,0.0,0.0,0.0,0.0,0.0,0.0,0.0,0.0,0.0,0.0,0.0,0.0,0.0,0.0,0.0,0.0,0.0,0.0,0.0,0.0,0.0,0.0,0.0,0.0,0.0,0.0,-0.0067,-0.1131,-0.2185,-0.3225,-0.4271,-0.5298,-0.6253,-0.6347,-0.6413,-0.6514,0.0,0.0,0.0,0.0,0.0,0.0,0.0,0.0,0.0,0.0,0.0,0.0,0.0,0.0,0.0,0.0,0.0,0.0,0.0,0.0,-0.919,-0.9262,-0.9344,-0.9306,-0.9316,-0.9316,-0.9391,-0.9659,-0.9696,-0.9768,-0.9869,-1.0313,-1.0492,-1.0474,-1.036,-0.9964,-0.9395,-0.9581,-0.9724,-0.9822,0.0,0.0,0.0,0.0,0.0,0.0,0.0,0.0,0.0,0.0,0.0,0.0,0.0,0.0,0.0,0.0,0.0,-0.8905,-0.9072,-0.8572,-0.7671,0.0,0.0,0.0,0.0,0.0,0.0,0.0,0.0,0.0,0.0,0.0,0.0,0.0,0.0,0.0,0.0,0.0,0.0,0.0,0.0,0.0,0.0,0.0,0.0,0.0,0.0,0.0,0.0,0.0,0.0,0.0,0.0,0.0,0.0,0.0,0.0,0.0,0.0,0.0,0.0,0.0,0.0,0.0,0.0,0.0,-0.0067,-0.0798,-0.1916,-0.3158,-0.398,-0.5074,-0.6253,-0.6323,-0.6394,-0.652,0.0,0.0,0.0,0.0,0.0,0.0,0.0,0.0,0.0,0.0,0.0,0.0,0.0,0.0,0.0,0.0,0.0,0.0,0.0,0.0,-0.9076,-0.9354,-0.9296,-0.9354,-0.9571,-0.9578,-0.9652,-0.9805,-0.9886,-0.996,-0.9967,-0.9927,-0.9761,-0.9507,-0.9775,-0.9685,-0.9401,-0.9686,-0.9812,-0.9822,-0.9822,0.0,0.0,0.0,0.0,0.0,0.0,0.0,0.0,0.0,0.0,0.0,0.0,0.0,0.0,0.0,0.0,-0.8885,-0.8895,-0.8532,-0.7912,-0.7256,0.0,0.0,0.0,0.0,0.0,0.0,0.0,0.0,0.0,0.0,0.0,0.0,0.0,0.0,0.0,0.0,0.0,0.0,0.0,0.0,0.0,0.0,0.0,0.0,0.0,0.0,0.0,0.0,0.0,0.0,0.0,0.0,0.0,0.0,0.0,0.0,0.0,0.0,0.0,0.0,0.0,0.0,0.0,0.0,0.0,-0.0067,-0.1267,-0.3098,-0.327,-0.4625,-0.6502,-0.6508,-0.6516,-0.652,0.0,0.0,0.0,0.0,0.0,0.0,0.0,0.0,0.0,0.0,0.0,0.0,0.0,0.0,0.0,0.0,0.0,0.0,0.0,0.0,-0.9164,-0.9371,-0.9415,-0.9493,-0.9608,-0.9696,-0.9863,-1.0107,-1.0066,-0.9936,-0.99,-0.9659,-0.9439,-0.9303,-0.9354,-0.9398,-0.9388,-0.95,-0.9652,-0.9815,-0.9727,-0.9741,0.0,0.0,0.0,0.0,0.0,0.0,0.0,0.0,0.0,0.0,0.0,0.0,0.0,0.0,0.0,-0.8798,-0.8798,-0.8131,0.0,0.0,0.0,0.0,0.0,0.0,0.0,0.0,0.0,0.0,0.0,0.0,0.0,0.0,0.0,0.0,0.0,0.0,0.0,0.0,0.0,0.0,0.0,0.0,0.0,0.0,0.0,0.0,0.0,0.0,0.0,0.0,0.0,0.0,0.0,0.0,0.0,0.0,0.0,0.0,0.0,0.0,0.0,0.0,0.0,0.0,0.0,0.0,-0.1274,-0.3268,-0.4584,-0.5669,-0.6514,-0.639,-0.6404,-0.652,0.0,0.0,0.0,0.0,0.0,0.0,0.0,0.0,0.0,0.0,0.0,0.0,0.0,0.0,0.0,0.0,0.0,0.0,0.0,-0.9032,-0.915,-0.9303,-0.9408,-0.9534,-0.9673,-0.9771,-0.9947,-1.0209,-1.0151,-1.0019,-0.9815,-0.9517,-0.9323,-0.9279,-0.9231,-0.9296,-0.9381,-0.9381,-0.9496,-0.968,-0.9629,-0.9639,0.0,0.0,0.0,0.0,0.0,0.0,0.0,0.0,0.0,0.0,0.0,0.0,0.0,0.0,0.0,0.0,-0.8849,-0.8139,0.0,0.0,0.0,0.0,0.0,0.0,0.0,0.0,0.0,0.0,0.0,0.0,0.0,0.0,0.0,0.0,0.0,0.0,0.0,0.0,0.0,0.0,0.0,0.0,0.0,0.0,0.0,0.0,0.0,0.0,0.0,0.0,0.0,0.0,0.0,0.0,0.0,0.0,0.0,0.0,0.0,0.0,0.0,0.0,0.0,0.0,0.0,0.0,-0.1278,-0.3426,-0.552,-0.6398,-0.6514,-0.6384,-0.64,-0.652,0.0,0.0,0.0,0.0,0.0,0.0,0.0,0.0,0.0,0.0,0.0,0.0,0.0,0.0,0.0,0.0,0.0,0.0,-0.8885,-0.8885,-0.9001,-0.9204,-0.921,-0.9361,-0.9805,-0.9815,-0.9893,-0.9987,-1.0205,-1.012,-0.9812,-0.9517,-0.9378,-0.9371,-0.9275,-0.9292,-0.9381,-0.9378,-0.9378,-0.9395,-0.9544,-0.9513,-0.9381,0.0,0.0,0.0,0.0,0.0,0.0,0.0,0.0,0.0,0.0,0.0,0.0,0.0,0.0,-0.9204,-0.9204,0.0,0.0,0.0,0.0,0.0,0.0,0.0,0.0,0.0,0.0,0.0,0.0,0.0,0.0,0.0,0.0,0.0,0.0,0.0,0.0,0.0,0.0,0.0,0.0,0.0,0.0,0.0,0.0,0.0,0.0,0.0,0.0,0.0,0.0,0.0,0.0,0.0,0.0,0.0,0.0,0.0,0.0,0.0,0.0,0.0,0.0,0.0,0.0,0.0,-0.1278,-0.343,-0.5646,-0.652,-0.652,-0.652,-0.652,-0.6587,0.0,0.0,0.0,0.0,0.0,0.0,0.0,0.0,0.0,0.0,0.0,0.0,0.0,0.0,0.0,0.0,0.0,0.0,-0.8892,-0.8885,-0.9001,-0.9204,-0.921,-0.9272,-0.9347,-0.9456,-0.9741,-1.0212,-1.0148,-0.9964,-0.9666,-0.9361,-0.9167,-0.9069,-0.9022,-0.9083,-0.9272,-0.9113,-0.896,-0.8791,-0.8682,-0.8691,-0.8784,0.0,0.0,0.0,0.0,0.0,0.0,0.0,0.0,0.0,0.0,0.0,0.0,0.0,-0.8893,-0.8818,-0.871,0.0,0.0,0.0,0.0,0.0,0.0,0.0,0.0,0.0,0.0,0.0,0.0,0.0,0.0,0.0,0.0,0.0,0.0,0.0,0.0,0.0,0.0,0.0,0.0,0.0,0.0,0.0,0.0,0.0,0.0,0.0,0.0,0.0,0.0,0.0,0.0,0.0,0.0,0.0,0.0,0.0,0.0,0.0,0.0,0.0,0.0,0.0,-0.0135,-0.1615,-0.3093,-0.4437,-0.5915,-0.652,-0.652,-0.652,-0.652,-0.6587,0.0,0.0,0.0,0.0,0.0,0.0,0.0,0.0,0.0,0.0,0.0,0.0,0.0,0.0,0.0,0.0,0.0,0.0,0.0,0.0,-0.9001,-0.9204,-0.921,-0.9238,-0.9299,-0.9449,-0.9676,-0.9924,-0.989,-0.9724,-0.9425,-0.9303,-0.9198,-0.9113,-0.9113,-0.9161,-0.9292,-0.9086,-0.8752,-0.8283,-0.8319,-0.8151,-0.7995,0.0,0.0,0.0,0.0,0.0,0.0,0.0,0.0,0.0,0.0,0.0,0.0,0.0,-0.892,-0.8818,0.0,0.0,0.0,0.0,0.0,0.0,0.0,0.0,0.0,0.0,0.0,0.0,0.0,0.0,0.0,0.0,0.0,0.0,0.0,0.0,0.0,0.0,0.0,0.0,0.0,0.0,0.0,0.0,0.0,0.0,0.0,0.0,0.0,0.0,0.0,0.0,0.0,0.0,0.0,0.0,0.0,0.0,0.0,0.0,0.0,0.0,0.0,-0.0269,-0.074,-0.2489,-0.3833,-0.4906,-0.6049,-0.652,-0.652,-0.652,-0.652,-0.6587,0.0,0.0,0.0,0.0,0.0,0.0,0.0,0.0,0.0,0.0,0.0,0.0,0.0,0.0,0.0,0.0,0.0,0.0,0.0,0.0,-0.9001,-0.9204,-0.9224,-0.9296,-0.9378,-0.9629,-0.9629,-0.9361,-0.9513,-0.9439,-0.9214,-0.9354,-0.9361,-0.9361,-0.9361,-0.9361,-0.9351,-0.9181,-0.864,-0.7925,-0.8039,-0.767,-0.708,-0.7258,0.0,0.0,0.0,0.0,0.0,0.0,0.0,0.0,0.0,0.0,0.0,-0.9096,-0.9049,0.0,0.0,0.0,0.0,0.0,0.0,0.0,0.0,0.0,0.0,0.0,0.0,0.0,0.0,0.0,0.0,0.0,0.0,0.0,0.0,0.0,0.0,0.0,0.0,0.0,0.0,0.0,0.0,0.0,0.0,0.0,-0.0126,0.0,0.0,0.0,0.0,0.0,0.0,0.0,0.0,0.0,0.0,0.0,0.0,0.0,0.0,0.0,-0.0135,-0.074,-0.1815,-0.2891,-0.3967,-0.5041,-0.6116,-0.652,-0.652,-0.652,-0.652,-0.6587,0.0,0.0,0.0,0.0,0.0,0.0,0.0,0.0,0.0,0.0,0.0,0.0,0.0,0.0,0.0,0.0,0.0,0.0,0.0,0.0,-0.9001,-0.9204,-0.9326,-0.9347,-0.9381,-0.9323,-0.9323,-0.9258,-0.9354,-0.9337,-0.921,-0.9245,-0.9258,-0.9258,-0.9258,-0.9258,-0.9184,-0.8472,-0.7798,-0.7168,-0.6673,-0.6419,-0.6248,-0.6359,-0.6712,0.0,0.0,0.0,0.0,0.0,0.0,0.0,0.0,-0.8885,-0.8888,-0.8977,0.0,0.0,0.0,0.0,0.0,0.0,0.0,0.0,0.0,0.0,0.0,0.0,0.0,0.0,0.0,0.0,0.0,0.0,0.0,0.0,0.0,0.0,0.0,0.0,0.0,0.0,0.0,0.0,0.0,0.0,0.0,0.0,-0.0124,0.0,0.0,0.0,0.0,0.0,0.0,0.0,0.0,0.0,0.0,0.0,0.0,0.0,0.0,-0.0067,-0.0874,-0.1882,-0.2959,-0.4034,-0.5109,-0.6183,-0.6386,-0.652,-0.652,-0.652,-0.652,-0.6587,0.0,0.0,0.0,0.0,0.0,0.0,0.0,0.0,0.0,0.0,0.0,0.0,0.0,0.0,0.0,0.0,0.0,0.0,0.0,0.0,0.0,-0.9309,-0.9476,-0.9527,-0.9384,-0.9361,-0.9191,-0.9052,-0.913,0.0,0.0,0.0,0.0,-0.921,-0.921,-0.9173,-0.8979,-0.8202,-0.7535,-0.6832,-0.6242,-0.5827,-0.5607,-0.566,-0.6086,-0.6738,-0.7075,0.0,0.0,0.0,0.0,0.0,0.0,0.0,-0.8898,-0.9022,0.0,0.0,0.0,0.0,0.0,0.0,0.0,0.0,0.0,0.0,0.0,0.0,0.0,0.0,0.0,0.0,0.0,0.0,0.0,0.0,0.0,0.0,0.0,0.0,0.0,0.0,0.0,0.0,0.0,0.0,0.0,-0.2095,-0.0123,0.0,0.0,0.0,0.0,0.0,0.0,0.0,0.0,0.0,0.0,0.0,0.0,0.0,-0.0269,-0.0807,-0.1345,-0.2486,-0.4034,-0.4571,-0.5444,-0.652,-0.652,-0.652,-0.652,-0.652,-0.652,-0.652,0.0,0.0,0.0,0.0,0.0,0.0,0.0,0.0,0.0,0.0,0.0,0.0,0.0,0.0,0.0,0.0,0.0,0.0,0.0,0.0,0.0,0.0,-0.9602,-0.9632,-0.9388,-0.9354,-0.9208,-0.8885,0.0,0.0,0.0,0.0,0.0,-0.9173,0.0,0.0,0.0,0.0,-0.723,-0.6398,-0.5803,-0.5318,-0.4909,-0.4938,-0.5427,-0.6104,-0.6251,-0.6596,-0.7154,-0.7768,0.0,0.0,0.0,0.0,-0.8905,0.0,0.0,0.0,0.0,0.0,0.0,0.0,0.0,0.0,0.0,0.0,0.0,0.0,0.0,0.0,0.0,0.0,0.0,0.0,0.0,0.0,0.0,0.0,0.0,0.0,0.0,0.0,0.0,0.0,0.0,0.0,0.0,-0.1964,-0.0123,0.0,0.0,0.0,0.0,0.0,0.0,0.0,0.0,0.0,0.0,0.0,0.0,-0.0202,-0.074,-0.1613,-0.1815,-0.2957,-0.4839,-0.5042,-0.5647,-0.652,-0.652,-0.652,-0.652,-0.652,-0.652,-0.652,0.0,0.0,0.0,0.0,0.0,0.0,0.0,0.0,0.0,0.0,0.0,0.0,0.0,0.0,0.0,0.0,0.0,0.0,0.0,0.0,0.0,0.0,-0.9347,-0.9422,-0.9381,-0.9309,-0.9103,-0.8885,0.0,0.0,0.0,0.0,0.0,-0.8967,0.0,0.0,0.0,0.0,0.0,0.0,-0.4189,-0.3864,-0.3835,-0.4013,-0.4546,-0.5377,-0.6033,-0.6374,-0.6596,-0.7654,-0.7989,0.0,0.0,0.0,0.0,0.0,0.0,0.0,0.0,0.0,0.0,0.0,0.0,0.0,0.0,0.0,0.0,0.0,0.0,0.0,0.0,0.0,0.0,0.0,0.0,0.0,0.0,0.0,0.0,0.0,0.0,0.0,0.0,0.0,0.0,0.0,-0.2191,-0.1209,-0.0061,0.0,0.0,0.0,0.0,0.0,0.0,0.0,0.0,0.0,0.0,0.0,0.0,-0.0941,-0.1479,-0.168,-0.2555,-0.3697,-0.4908,-0.5848,-0.6386,-0.652,-0.652,-0.652,-0.652,-0.652,-0.652,-0.652,0.0,0.0,0.0,0.0,0.0,0.0,0.0,0.0,0.0,0.0,0.0,0.0,0.0,0.0,0.0,0.0,0.0,0.0,0.0,0.0,0.0,0.0,-0.9357,-0.934,-0.9313,-0.9245,-0.9083,0.0,0.0,0.0,0.0,-0.8882,-0.8872,0.0,0.0,0.0,0.0,0.0,0.0,0.0,0.0,0.0,0.0,-0.3876,-0.4498,-0.539,-0.5699,-0.5824,-0.5991,-0.7154,-0.7546,-0.7697,-0.8507,0.0,0.0,0.0,0.0,0.0,0.0,0.0,0.0,0.0,0.0,0.0,0.0,0.0,0.0,0.0,0.0,0.0,0.0,0.0,0.0,0.0,0.0,0.0,0.0,0.0,0.0,0.0,0.0,0.0,0.0,0.0,0.0,0.0,-0.2247,-0.1084,-0.006,0.0,0.0,0.0,0.0,0.0,0.0,0.0,0.0,0.0,0.0,0.0,-0.0067,-0.1068,-0.1869,-0.2555,-0.363,-0.4707,-0.5781,-0.6319,-0.652,-0.652,-0.652,-0.652,-0.652,-0.652,-0.652,-0.652,0.0,0.0,0.0,0.0,0.0,0.0,0.0,0.0,0.0,0.0,0.0,0.0,0.0,0.0,0.0,0.0,0.0,0.0,0.0,0.0,0.0,0.0,0.0,-0.9215,-0.91,-0.91,0.0,0.0,0.0,0.0,-0.8821,-0.8723,-0.8672,0.0,-0.8391,0.0,0.0,0.0,0.0,0.0,0.0,0.0,0.0,0.0,0.0,-0.5155,-0.538,-0.5412,-0.5633,-0.6776,-0.721,-0.736,-0.842,0.0,0.0,0.0,0.0,0.0,0.0,0.0,0.0,0.0,0.0,0.0,0.0,0.0,0.0,0.0,0.0,0.0,0.0,0.0,0.0,0.0,0.0,0.0,0.0,0.0,0.0,0.0,0.0,0.0,0.0,0.0,0.0,0.0,-0.248,-0.1198,-0.042,-0.0118,0.0,0.0,0.0,0.0,0.0,0.0,0.0,0.0,0.0,0.0,-0.0067,-0.1059,-0.1992,-0.289,-0.4218,-0.5427,-0.652,-0.652,-0.652,-0.652,-0.652,-0.652,-0.652,-0.652,-0.652,-0.652,0.0,0.0,0.0,0.0,0.0,0.0,0.0,0.0,0.0,0.0,0.0,0.0,-0.7168,-0.7712,-0.7989,-0.8045,0.0,0.0,0.0,0.0,0.0,0.0,0.0,0.0,0.0,0.0,0.0,0.0,0.0,0.0,-0.872,-0.8567,-0.857,-0.8649,-0.8017,-0.694,-0.5547,0.0,0.0,0.0,0.0,0.0,0.0,0.0,0.0,0.0,0.0,-0.5502,-0.5659,-0.6801,-0.721,-0.7376,0.0,0.0,0.0,0.0,0.0,0.0,0.0,0.0,0.0,0.0,0.0,0.0,0.0,0.0,0.0,0.0,0.0,0.0,0.0,0.0,0.0,0.0,0.0,0.0,0.0,0.0,0.0,0.0,0.0,0.0,0.0,0.0,0.0,0.0,-0.2576,-0.1472,-0.1413,-0.0515,0.0,0.0,0.0,0.0,0.0,0.0,0.0,0.0,0.0,0.0,-0.0066,-0.1121,-0.1659,-0.1813,-0.3843,-0.5377,-0.652,-0.652,-0.652,-0.652,-0.652,-0.652,-0.652,-0.652,-0.652,-0.652,0.0,0.0,0.0,0.0,0.0,0.0,0.0,0.0,0.0,0.0,0.0,0.0,0.0,-0.5868,-0.6313,-0.7093,-0.8211,0.0,0.0,0.0,0.0,0.0,0.0,0.0,0.0,0.0,0.0,0.0,0.0,-0.8611,-0.8849,-0.8506,-0.8315,-0.8239,-0.7843,-0.6904,-0.5419,-0.4172,0.0,0.0,0.0,0.0,0.0,0.0,0.0,0.0,0.0,0.0,0.0,0.0,0.0,0.0,0.0,0.0,0.0,0.0,0.0,0.0,0.0,0.0,0.0,0.0,0.0,0.0,0.0,0.0,0.0,0.0,0.0,0.0,0.0,0.0,0.0,0.0,0.0,0.0,0.0,0.0,0.0,0.0,0.0,0.0,0.0,0.0,0.0,0.0,0.0,-0.1529,-0.1529,-0.0571,0.0,0.0,0.0648,0.1264,0.189,0.1351,0.1037,0.0968,0.0324,0.0,-0.0065,-0.1094,-0.155,-0.17,-0.3092,-0.4305,-0.5444,-0.6185,-0.652,-0.652,-0.652,-0.652,-0.652,-0.652,-0.652,-0.652,0.0,0.0,0.0,0.0,0.0,0.0,0.0,0.0,0.0,-0.2297,0.0,0.0,0.0,0.0,-0.5087,-0.6589,-0.7875,-0.866,-0.8881,0.0,0.0,0.0,0.0,0.0,0.0,0.0,0.0,0.0,0.0,0.0,0.0,-0.8459,-0.8138,-0.7898,-0.7246,-0.6205,0.0,0.0,0.0,-0.0357,0.0,0.0,-0.0612,0.0,0.0,0.0,0.0,0.0,0.0,0.0,0.0,0.0,0.0,0.0,0.0,0.0,0.0,0.0,0.0,0.0,0.0,0.0,0.0,0.0,0.0,0.0,0.0,0.0,0.0,0.0,0.0,0.0,0.0,0.0,0.0,0.0,0.0,0.0,0.0,0.0,0.0,0.0,0.0,0.0,0.0,0.0,0.0,0.0,-0.2,-0.1027,-0.0171,0.047,0.1493,0.2139,0.252,0.1856,0.1351,0.0961,0.032,0.0,0.0,-0.0697,-0.1209,-0.1611,-0.2678,-0.3754,-0.4872,-0.5606,-0.6158,-0.652,-0.652,-0.652,-0.652,-0.652,-0.652,-0.652,0.0,0.0,0.0,0.0,0.0,0.0,0.0,0.0,-0.2353,-0.1402,0.0,0.0,0.0,0.0,0.0,-0.6478,-0.7485,-0.8269,-0.8826,-0.8881,0.0,0.0,0.0,0.0,0.0,0.0,0.0,0.0,0.0,0.0,0.0,0.0,-0.8082,-0.7629,-0.6145,-0.4742,-0.3473,0.0,-0.0255,0.1248,0.0,0.1423,0.1211,0.0,0.0,0.0,-0.2412,-0.2705,0.0,-0.3351,0.0,0.0,0.0,0.0,0.0,0.0,0.0,0.0,0.0,0.0,0.0,0.0,0.0,0.0,0.0,0.0,0.0,0.0,0.0,0.0,0.0,0.0,0.0,0.0,0.0,0.0,0.0,0.0,0.0,0.0,0.0,0.0,0.0,0.0,0.0,0.0,-0.5324,-0.3941,-0.3061,-0.1886,-0.0342,0.147,0.2524,0.2583,0.1575,0.1535,0.1024,0.0063,0.0,0.0,0.0,0.0,-0.0509,-0.1546,-0.2575,-0.3697,-0.4732,-0.4802,-0.5508,-0.652,-0.6453,-0.6453,-0.652,-0.6453,-0.6453,-0.652,0.0,0.0,0.0,0.0,0.0,0.0,0.0,-0.1522,-0.157,0.0,0.0,0.0,-0.1738,-0.2855,-0.4083,-0.531,-0.6982,-0.8045,-0.8211,-0.866,-0.8885,-0.8885,-0.8885,0.0,0.0,0.0,0.0,0.0,0.0,0.0,0.0,0.0,0.0,0.0,-0.5186,-0.3851,-0.2783,-0.1684,0.0,0.0,0.2267,0.2604,0.0,0.0,0.0,0.0,0.0,-0.0752,-0.0869,0.0,-0.2125,-0.268,0.0,0.0,0.0,0.0,0.0,0.0,-0.7077,0.0,0.0,0.0,0.0,0.0,0.0,0.0,0.0,0.0,0.0,0.0,0.0,0.0,0.0,0.0,0.0,0.0,0.0,0.0,0.0,0.0,0.0,0.0,0.0,0.0,0.0,0.0,-0.5741,-0.441,-0.3061,-0.0641,0.1289,0.2569,0.3587,0.3948,0.3597,0.2959,0.214,0.1055,0.0373,0.0,0.0,0.0,-0.0125,-0.0437,-0.075,-0.1888,-0.3705,-0.5219,-0.6105,-0.6386,-0.5579,-0.5781,-0.6319,-0.4707,-0.5109,-0.6386,0.0,0.0,0.0,0.0,0.0,0.0,0.0,-0.1082,-0.1187,0.0,0.0,0.0,-0.0785,-0.1905,-0.3079,-0.425,-0.5813,-0.7096,-0.7934,-0.8325,-0.8546,-0.8546,-0.8771,-0.8771,0.0,0.0,0.0,0.0,0.0,0.0,0.0,0.0,0.0,0.0,0.0,0.0,0.0,0.0,0.0,0.0,0.255,0.0,0.0,0.2788,0.1998,0.0,0.0,0.0,-0.0061,-0.061,-0.1009,0.0,0.0,0.0,0.0,0.0,0.0,0.0,0.0,0.0,0.0,0.0,0.0,0.0,-0.7122,-0.7355,0.0,0.0,0.0,0.0,0.0,0.0,0.0,0.0,0.0,0.0,0.0,0.0,0.0,0.0,0.0,0.0,0.0,-0.8973,-0.8482,-0.7747,-0.6619,-0.5031,-0.3003,0.0294,0.2369,0.3007,0.4375,0.4724,0.382,0.3293,0.23,0.0863,0.0309,0.0,0.0,0.0,-0.0247,-0.0617,-0.0617,-0.1555,-0.3217,-0.4428,-0.5298,-0.5664,-0.453,-0.4815,-0.5579,-0.3833,-0.4303,-0.5646,0.0,0.0,0.0,0.0,0.0,0.0,0.0,-0.0639,-0.0858,0.0,-0.0675,-0.0843,-0.0112,-0.0785,-0.1849,-0.3245,-0.4195,-0.5588,-0.7543,-0.7709,-0.7814,-0.7913,-0.8426,-0.8429,-0.7913,0.0,0.0,0.0,0.0,0.0,0.0,0.0,0.0,0.0,0.0,0.0,0.0,0.0,0.0,0.1152,0.2468,0.2354,0.0,0.0,0.181,0.0182,0.0062,0.0,0.0,0.0,-0.0561,0.0,0.0,0.0,0.0,0.0,-0.5748,0.0,0.0,0.0,0.0,0.0,0.0,0.0,-0.678,-0.7062,-0.7348,0.0,0.0,0.0,0.0,0.0,0.0,0.0,0.0,0.0,0.0,0.0,0.0,0.0,0.0,0.0,-0.9863,-0.93,-0.887,-0.8793,-0.7341,-0.5383,-0.2953,0.0884,0.2971,0.3014,0.4894,0.4989,0.3018,0.3018,0.1972,0.0,0.0,0.0,0.0,0.0,-0.0494,-0.1356,-0.1356,-0.1925,-0.2891,-0.2828,-0.3453,-0.4464,-0.3421,-0.3649,-0.4495,-0.3293,-0.3631,-0.4437,0.0,0.0,0.0,0.0,0.0,0.0,0.0,0.0,-0.0173,0.0,-0.0173,-0.0171,0.0,-0.0785,-0.1402,-0.1737,-0.3023,-0.4306,-0.5423,-0.5977,-0.6496,-0.7176,-0.7433,-0.7439,-0.7173,-0.7825,0.0,0.0,0.0,0.0,0.0,0.0,0.0,0.0,0.0,0.0,0.0,0.0,0.0,0.038,0.2075,0.0,0.3206,0.2863,0.214,0.1126,0.0314,0.0,0.0,0.0,-0.0606,-0.134,0.0,0.0,0.0,0.0,0.0,0.0,0.0,0.0,0.0,0.0,0.0,0.0,-0.4994,-0.5588,-0.6253,0.0,0.0,0.0,0.0,0.0,0.0,0.0,0.0,0.0,0.0,0.0,0.0,0.0,0.0,0.0,-0.9957,-0.9819,-0.9523,-0.8861,-0.612,-0.3965,-0.2879,0.0898,0.3016,0.3002,0.486,0.4989,0.3018,0.3018,0.1972,0.0,0.0,0.0,0.0,0.0,-0.0123,-0.0309,-0.0309,-0.0865,-0.1733,-0.0929,-0.1765,-0.3368,-0.2295,-0.2573,-0.331,-0.134,-0.1883,-0.3362,0.0,0.0,0.0,0.0,0.0,0.0,0.0,0.0,0.0,0.0,0.0,0.0,0.0,-0.0393,-0.0841,-0.129,-0.2017,-0.2967,-0.4195,-0.492,-0.5511,-0.5962,-0.6284,-0.6345,-0.5959,-0.6179,0.0,0.0,0.0,0.0,0.0,0.0,0.0,0.0,0.0,0.0,0.0,0.0,0.0,0.0108,0.1553,0.0,0.1848,0.2015,0.1563,0.0703,0.0193,0.0,0.0,0.0,-0.0309,0.0,0.0,-0.1473,-0.2372,0.0,-0.2408,-0.2824,0.0,0.0,0.0,-0.2222,0.0,0.0,0.0,-0.5035,-0.566,0.0,0.0,0.0,0.0,0.0,0.0,0.0,0.0,0.0,0.0,0.0,0.0,0.0,0.0,0.0,-1.0178,-1.0034,-0.9552,-0.8433,-0.5877,-0.3982,-0.2922,0.0845,0.303,0.3016,0.4867,0.4989,0.3018,0.3018,0.1972,0.0,0.0,0.0,0.0,0.0,0.0,0.0,0.0,-0.0309,-0.074,-0.0185,-0.0623,-0.1581,-0.1035,-0.1441,-0.2178,-0.0602,-0.1009,-0.2218,0.0,0.0,0.0,0.0,0.0,0.0,0.0,0.0,0.0,0.0,0.0,0.0,0.0,0.0,-0.0284,-0.0971,-0.1023,-0.1641,-0.305,-0.3828,-0.4258,-0.4453,-0.491,-0.4968,-0.4453,-0.4351,-0.4646,0.0,0.0,0.0,0.0,0.0,0.0,0.0,0.0,0.0,0.0,0.0,0.0,0.0108,0.0,0.0874,0.006,0.092,0.0691,0.0,0.0,0.0,0.0,0.0,0.0,0.0,0.0,-0.0475,0.0,0.0,0.0,0.0,0.0,0.0,0.0,0.0,0.0,-0.1734,0.0,0.0,0.0,0.0,0.0,0.0,0.0,0.0,0.0,0.0,0.0,0.0,0.0,0.0,0.0,0.0,0.0,0.0,-1.0129,-1.0007,-0.938,-0.8033,-0.5991,-0.4219,-0.2768,0.0912,0.3101,0.3263,0.4989,0.4989,0.3018,0.3018,0.1972,0.0,0.0,0.0,0.0,0.0,0.0,0.0,0.0,0.0,0.0,0.0,0.0,0.0,0.0,-0.052,-0.1184,-0.0334,-0.0538,-0.1143,-0.136,-0.0778,0.0,0.0,0.0,0.0,0.0,0.0,0.0,0.0,0.0,0.0,0.0,0.0,0.0,0.0,0.0,0.0,-0.152,0.0,-0.2035,-0.285,-0.3,-0.3002,-0.2847,-0.3436,-0.3709,0.0,0.0,0.0,0.0,0.0,0.0,0.0,-0.195,0.0,0.0,0.0,0.0649,0.0,0.0912,0.0743,0.0,0.0115,0.012,0.0,0.0,0.0,0.0,0.0,0.0,0.0,0.0,-0.0058,-0.0118,0.0,0.0,0.0,0.0,0.0,0.0,0.0,-0.0664,0.0,0.0,0.0,-0.2746,-0.2918,0.0,0.0,0.0,0.0,0.0,0.0,0.0,0.0,0.0,0.0,0.0,0.0,0.0,0.0,0.0,-0.9518,-0.9214,-0.8143,-0.5906,-0.3693,-0.1782,0.129,0.3382,0.4192,0.53,0.4989,0.3018,0.3018,0.1972,0.0,0.0,0.0,0.0,0.0,0.0,0.0,0.0,0.0,0.0,0.0,0.0,0.0,0.0,-0.0065,-0.0195,-0.0067,-0.0067,-0.0135,0.0,-0.0296,0.0,0.0,0.0,0.0,0.0,0.0,0.0,0.0,0.0,0.0,0.0,0.0,0.0,0.0,0.0,-0.0177,0.0,0.0,0.0,0.0,0.0,0.0,-0.183,-0.1604,-0.1706,-0.2129,-0.2733,0.0,0.0,0.0,0.0,0.0,-0.1462,0.0,0.0106,0.0,0.0,0.0,0.0,0.0,0.0,0.0,0.0,0.0,0.0,0.0,0.0,0.0,0.0,0.0,0.0,0.0,0.0,0.0,0.0,0.0,0.0,0.0,0.0,0.0,0.0,0.0,-0.1086,0.0,-0.1856,0.0,0.0,0.0,0.0,0.0,0.0,0.0,0.0,0.0,0.0,0.0,0.0,0.0,0.0,0.0,0.0,0.0,0.0,0.0,-0.6004,-0.3759,-0.1598,0.1722,0.3817,0.4376,0.5174,0.4739,0.3018,0.2402,0.1418,0.0,0.0,0.0,0.0,0.0,0.0,0.0,0.0,0.0,0.0,0.0,0.0,0.0,0.0,0.0,0.0,0.0,0.0,0.0,0.0,0.0,0.0,0.0,0.0,0.0,0.0,0.0,0.0,0.0,0.0,0.0,0.0,0.0,0.0,0.0,0.0,0.0,0.0,0.0,-0.094,0.0,0.0,0.0,0.0,0.0,-0.0275,0.0,0.0,0.0,0.0,0.0,0.0,0.0,0.0,-0.0538,0.011,0.0,0.0,0.0115,0.1562,0.1278,0.0,0.0,0.0,0.0,0.0,0.0,0.0,0.0,0.0,0.0,0.0,0.0,0.0,0.0,0.0,0.0,0.0,0.0,0.0,0.0,0.0,0.0,0.0,0.0,0.0,0.0,0.0,0.0,0.0,0.0,0.0,0.0,0.0,0.0,0.0,0.0,0.0,0.0,0.0,0.0,0.0,0.0,0.0,-0.8132,-0.6037,-0.3861,-0.1608,0.1979,0.4157,0.4429,0.511,0.4672,0.3055,0.1988,0.0993,0.0,0.0,0.0,0.0,0.0,0.0,0.0,0.0,0.0,0.0,0.0,0.0,0.0,0.0,0.0,0.0,0.0,0.0,0.0,0.0,0.0,0.0,0.0,0.0,0.0,0.0,0.0,0.0,0.0,0.0,0.0,0.0,0.0,0.0,0.0,0.0,0.0,0.0,0.0,-0.0061,0.0,0.0,-0.0057,0.0,0.0,0.0,0.0,0.0,0.0,0.0,0.0,0.0,0.0,0.0,0.0,0.0055,0.0907,0.0761,0.006,0.0902,0.0735,0.0,0.0,0.0,0.0,0.0,0.0,0.0,0.0,0.0,0.0,0.0,0.0,0.0,0.0,0.0,0.0,0.0,0.0,0.0,0.0,0.0,0.0,0.0,0.0,-0.0053,0.0,0.0,0.0,0.0,0.0,-0.2653,-0.4302,0.0,0.0,0.0,0.0,0.0,0.0,0.0,0.0,0.0,0.0,-0.9147,-0.7991,-0.5941,-0.3774,-0.1631,0.2136,0.4306,0.4562,0.5269,0.482,0.3088,0.2031,0.1009,0.0,0.0,0.0,0.0,0.0,0.0,0.0,0.0,0.0,0.0,0.0,0.0,0.0,0.0,0.0,0.0,0.0,0.0,0.0,0.0,0.0,0.0,0.0,0.0,0.0,0.0,0.0,0.0,0.0,0.0,0.0,0.0,0.1074,0.1038,0.0,0.0,0.0774,0.0065,0.0,0.0,0.0,0.0,0.0,0.0,0.0,0.0,0.0,0.0,0.0,0.0,0.0,0.0,0.0,0.0,0.0,0.0,0.0,0.0,0.0,0.0,0.0243,0.0,0.0,0.0,0.0,0.0,0.0,0.0,0.0,0.0,0.0,0.0,0.0474,0.0863,0.0174,0.0462,0.0857,0.0,0.0,0.0,0.0,0.0,0.0,0.0,0.0,0.0,0.0,0.0,0.0,0.0,0.0,-0.165,-0.2234,-0.3225,0.0,0.0,0.0,0.0,0.0,0.0,0.0,0.0,0.0,0.0,-0.8845,-0.6988,-0.4795,-0.2446,0.113,0.3591,0.4567,0.4611,0.412,0.3092,0.1398,0.0316,0.0,0.0,0.0,0.0,0.0,0.0,0.0,0.0,0.0,0.0,0.0,0.0,0.0,0.0,0.0,0.0,0.0,0.0,0.0,0.0,0.0,0.0,0.0,0.0,0.0,0.0,0.0,0.0,0.0,0.0345,0.0,0.1547,0.0,0.2147,0.0,0.1799,0.1294,0.0641,0.019,0.0,0.0,0.0,0.0,0.0,0.0,0.0,0.0,0.0,0.0,0.0,0.0,0.0,0.0,0.0,0.0,0.0,0.0,0.0988,0.0,0.0,0.0,0.0,0.0,0.0,0.0,0.0,0.0,0.0,0.0,0.0248,0.0542,0.0558,0.121,0.1923,0.1249,0.1298,0.1332,0.0687,0.0292,0.0,0.0448,0.0509,0.0,0.0532,0.0,0.0,0.0,0.0,0.0,0.0,0.0,0.0,-0.1157,-0.1956,0.0,0.0,-0.1713,0.0,0.0,0.0,0.0,0.0,0.0,-0.9179,-0.8774,-0.7269,-0.5442,0.0,0.0568,0.2921,0.3519,0.3956,0.3659,0.2551,0.0835,0.0,0.0,0.0,0.0,0.0,0.0,0.0,0.0,0.0,0.0,0.0,0.0,0.0,0.0,0.0,0.0,0.0,0.0,0.0,0.0,0.0,0.0,0.0,0.0,0.0054,0.0,0.0,0.0,0.0109,0.0,0.1081,0.177,0.1767,0.2608,0.3228,0.3275,0.2333,0.1693,0.1709,0.0704,0.0,0.0,0.0062,0.0,0.0,0.0,0.0,0.0,0.0,0.0,0.0,0.0,0.0,0.0,0.0,0.0,0.0,0.0,0.0,0.0,0.0,0.0,0.0,0.0,0.0,0.0,0.0,0.0,0.0,0.0062,0.074,0.154,0.1541,0.228,0.3079,0.3018,0.2341,0.1654,0.1605,0.0885,0.0352,0.136,0.1574,0.0,0.0,0.0,0.1323,0.0,0.0,0.0,0.0,0.0,0.0,0.0,0.0,0.0,0.0,0.0,0.0,0.0,0.0,0.0,0.0,-0.802,-0.8319,-0.7911,-0.7001,0.0,0.0,0.0254,0.2327,0.1645,0.3332,0.3423,0.1613,0.0524,0.0,0.0,0.0,0.0,0.0,0.0,0.0,0.0,0.0,0.0,0.0,0.0,0.0,0.0,0.0,0.0,0.0,0.0,0.0,0.0,0.0,0.0,0.022,0.0,0.0436,0.0,0.0,0.0,0.0,0.0,0.2938,0.4123,0.3831,0.4434,0.4715,0.4289,0.4491,0.0,0.0,0.0,0.0,0.1982,0.0696,0.0,0.0,0.0,0.0,0.0,0.0,0.0,0.0,0.0,0.0,0.0,0.0,0.0,0.0,0.0,0.0,0.0,0.0,0.0,0.0,0.0,0.0,0.0,0.0,0.0,0.0123,0.0863,0.1285,0.1639,0.2394,0.3265,0.3883,0.3202,0.3326,0.3507,0.2807,0.2435,0.2297,0.2579,0.2616,0.2594,0.0,0.0,0.0,0.0,0.0,0.0,0.0,0.0,0.0,0.0,0.0,0.0,0.0,0.0,0.0,0.0,0.0,0.0,-0.6173,-0.7665,-0.8558,-0.8587,-0.7845,0.0,0.0,0.0,0.121,0.162,0.2855,0.289,0.1613,0.0524,0.0,0.0,0.0,0.0,0.0,0.0,0.0,0.0,0.0,0.0,0.0,0.0,0.0,0.0,0.0,0.0,0.0,0.0,0.0,0.0,0.0445,0.0,0.0,0.2126,0.0,0.0,0.1761,0.2143,0.0,0.2802,0.4416,0.0,0.5172,0.6005,0.6451,0.6172,0.6058,0.0,0.525,0.0,0.0,0.2653,0.2121,0.1292,0.0,0.0437,0.0,0.0,0.0,0.0,0.0,0.0,0.0,0.0,0.0,0.0,0.0,0.0,0.0,0.0,0.0,0.0,0.0,0.0,0.0244,0.0662,0.0608,0.055,0.0672,0.1292,0.2074,0.2838,0.3434,0.4252,0.4931,0.4436,0.4292,0.4272,0.3721,0.3216,0.2952,0.3458,0.3567,0.3602,0.3628,0.3659,0.3537,0.0,0.2639,0.2125,0.0,0.0,0.0,0.0,0.0,0.0,0.0,0.0,0.0,0.0,0.0,0.0,-0.3853,-0.6232,-0.7768,-0.7969,-0.7551,0.0,0.0,0.0,0.0064,0.0894,0.1916,0.2017,0.0941,0.0329,0.0,0.0,0.0,0.0,0.0,0.0,0.0,0.0,0.0,0.0,0.0,0.0,0.0,0.0,0.0,0.0,0.0,0.0,0.0,0.0,0.0,0.0,0.0,0.0,0.0,0.0,0.0,0.3569,0.0,0.4591,0.0,0.6502,0.6184,0.7342,0.807,0.8049,0.0,0.6777,0.6839,0.5984,0.4777,0.3233,0.3918,0.3088,0.0404,0.1161,0.105,0.0,0.0,0.0,0.0,0.0,0.0,0.0,0.0,0.0,0.0,0.0,0.0,0.0,0.0,0.0063,0.0186,0.0185,0.0802,0.1661,0.1578,0.1508,0.1508,0.177,0.2918,0.4346,0.4529,0.5163,0.59,0.59,0.5227,0.4443,0.4443,0.3805,0.3308,0.4258,0.4517,0.4503,0.457,0.4682,0.4527,0.3682,0.3481,0.316,0.2202,0.0,0.0,0.0,0.0,0.0,0.0,0.0,0.0,0.0,0.0,0.0,0.0,-0.443,-0.6519,0.0,0.0,0.0,0.0,0.0,-0.0765,0.0,0.1054,0.1076,0.0,0.0,0.0,0.0,0.0,0.0,0.0,0.0,0.0,0.0,0.0,0.0,0.0,0.0,0.0,0.0,0.0,0.0,0.0,0.0,0.0,0.0,0.0,0.0,0.0,0.0,0.0,0.5275,0.7366,0.721,0.6596,0.6107,0.7985,0.8882,0.7659,0.8244,0.8465,0.7993,0.8375,0.0,0.0,0.0,0.0,0.6877,0.5236,0.3623,0.2283,0.1805,0.1055,0.0,0.0,0.0,0.0,0.0,0.0,0.0,0.0,0.0,0.0,0.0,0.0,0.0,0.0,0.051,0.1255,0.1239,0.1849,0.2709,0.2702,0.2617,0.2647,0.3451,0.4,0.4458,0.5316,0.5684,0.5804,0.5804,0.562,0.5373,0.5373,0.5244,0.5134,0.5458,0.554,0.5555,0.5612,0.6107,0.6474,0.6303,0.5663,0.5071,0.5011,0.0,0.0,0.0,0.0,0.0,0.0,0.0,0.0,0.0,0.0,0.0,0.0,0.0,0.0,0.0,0.0,0.0,0.0,0.0,0.0,0.0,0.1059,0.0,0.0,0.0,0.0,0.0,0.0,0.0,0.0,0.0,0.0,0.0,0.0,0.0,0.0,0.0,0.0,0.0,0.0,0.0,0.0,0.0,0.0,0.0,0.0,0.0,0.0,0.0,0.0,0.0,0.0,0.9083,0.8842,0.8081,0.8969,0.9404,0.8667,0.9023,0.9214,0.8906,0.9213,0.9435,0.9435,0.9123,0.853,0.763,0.7208,0.0,0.2655,0.2843,0.1994,0.0,0.0,0.0,0.0,0.0,0.0,0.0,0.0,0.0,0.0,0.0,0.0,0.0802,0.1326,0.1832,0.2303,0.2286,0.2896,0.3693,0.3664,0.3938,0.4337,0.434,0.4639,0.5178,0.566,0.5814,0.5843,0.5794,0.5749,0.5704,0.5598,0.555,0.5584,0.5629,0.5639,0.5793,0.6237,0.6611,0.7025,0.7387,0.7151,0.6477,0.5222,0.3437,0.0,0.0,0.0,0.0,0.0,0.0,0.0,0.0,0.0,0.0,0.0,0.0,0.0,0.0,0.0,0.0,0.0,0.0,-0.044,0.0,0.0,0.0,0.0,0.0,0.0,0.0,0.0,0.0,0.0,0.0,0.0,0.0,0.0,0.0,0.0,0.0,0.0,0.0,0.0,0.0,0.0,0.0,0.0,0.0,0.0,0.6579,0.0,0.0,0.8925,0.0,0.9591,0.9937,1.0012,0.9537,0.9476,0.9429,0.9364,0.9608,0.9822,0.9822,0.9822,0.9822,0.9822,0.9903,0.9355,0.8032,0.8852,0.7546,0.348,0.422,0.3211,0.0,0.0,0.0,0.0,0.0,0.0,0.0,0.0,0.0,0.0,0.0,0.1649,0.1917,0.267,0.3183,0.3509,0.3509,0.4187,0.5167,0.5104,0.5565,0.612,0.5399,0.5428,0.5778,0.5757,0.5814,0.587,0.5778,0.5751,0.5735,0.5605,0.5576,0.5512,0.5703,0.5694,0.5897,0.6722,0.7083,0.7363,0.7936,0.8228,0.7699,0.5245,0.386,0.0,0.0,0.0,0.0,0.0,0.0,0.0,0.0,0.0,0.0,0.0,0.0,0.0,0.0,0.0,-0.3341,-0.2529,-0.1656,-0.0816,0.0,0.0,0.0,0.0,0.0,0.0,0.0,0.0,0.0,0.0,0.0,0.0,0.0,0.0,0.0,0.0,0.0,0.0,0.0,0.0,0.0,0.0,0.0,0.0,0.0,0.0,0.0,0.0,0.0,0.0,0.0,0.9608,0.9754,0.9842,0.9788,0.9781,0.9774,0.9761,0.9795,0.9822,0.9822,0.9822,0.9822,0.9822,0.9903,0.9925,0.9735,0.9502,0.8467,0.6431,0.5966,0.4327,0.0,0.0,0.0956,0.0,0.0,0.0,0.0,0.0,0.0,0.0,0.1489,0.2072,0.2944,0.2956,0.3869,0.5167,0.5167,0.6149,0.7564,0.7553,0.7609,0.7673,0.7622,0.6764,0.5765,0.5682,0.572,0.5776,0.5684,0.5598,0.5596,0.5586,0.5576,0.5643,0.625,0.6376,0.651,0.7211,0.7912,0.8471,0.8543,0.8853,0.8571,0.6876,0.5258,0.3765,0.0,0.0,0.0,0.0,0.0,0.0,0.0,0.0,0.0,0.0,-0.0786,0.0,0.0,-0.1638,-0.1565,-0.1469,-0.0608,-0.0124,0.0,0.0,0.0,0.0,0.0,0.0,0.0,0.0,0.0,0.0,0.0,0.0,0.0,0.0,0.0,0.0,0.0,0.0,0.0,0.0,0.0,0.0,0.0,0.0,0.0,0.0,0.0,0.0,0.0,0.0,0.0,0.0,0.9859,0.9862,0.9832,0.9822,0.9822,0.9822,0.9822,0.9822,0.9822,0.9822,0.9822,0.9822,0.988,0.9852,0.9852,0.9801,0.8949,0.7221,0.703,0.5798,0.0,0.0,0.0,0.0,0.0,0.0,0.0,0.0,0.3323,0.3722,0.4404,0.4906,0.5347,0.5871,0.6456,0.7036,0.691,0.7317,0.7872,0.7872,0.7872,0.7872,0.7872,0.723,0.6449,0.635,0.609,0.5845,0.5753,0.5765,0.5796,0.5741,0.5894,0.6163,0.6376,0.669,0.7089,0.7784,0.8256,0.8667,0.911,0.9529,0.941,0.7816,0.6139,0.4478,0.2968,0.0,0.0,0.0,0.0,0.0,0.0,0.0,0.0,0.0,0.0,0.0,0.0,0.0,-0.1344,-0.1411,-0.049,0.0,0.0,0.0,0.0,0.0,0.0,0.0,0.0,0.0,0.0,0.0,0.0,0.0,0.0,0.0,0.0,0.0,0.0,0.0,0.0,0.0,0.0,0.0,0.0,0.0,0.0,0.8542,0.0,0.9276,0.0,0.9771,0.9808,0.9957,0.995,0.9883,0.9836,0.9822,0.9822,0.9822,0.9822,0.9822,0.9822,0.9822,0.9822,0.9822,0.9822,0.9822,0.9822,0.9906,0.0,0.7598,0.7882,0.7115,0.5054,0.4142,0.0,0.0,0.0,0.0,0.0,0.4827,0.5255,0.5607,0.6457,0.6979,0.7357,0.7859,0.8242,0.835,0.8225,0.8299,0.848,0.848,0.848,0.848,0.848,0.7991,0.7421,0.713,0.6728,0.6402,0.6306,0.6326,0.6306,0.6297,0.6497,0.6749,0.6898,0.7188,0.7624,0.8339,0.8612,0.8916,0.9566,1.0029,0.9967,0.8941,0.6897,0.5011,0.3707,0.0,0.0,0.0,0.0,0.0,0.0,0.2144,0.2089,0.1623,0.0,0.0,0.0,0.0,0.0,0.0,-0.0374,0.0,0.0,0.0,0.0,0.0,0.0,0.0,0.0,0.0,0.0,0.0,0.0,0.0,0.0,0.0,0.0,0.0,0.0,0.0,0.0,0.0,0.0,0.0,0.0,0.0,0.0,0.9513,0.9602,0.9744,1.0195,1.0144,0.9984,0.9987,0.9859,0.9822,0.9822,0.9822,0.9822,0.9822,0.9822,0.9822,0.9822,0.9822,0.9822,0.9822,0.9822,0.9822,0.0,0.0,0.9361,0.8051,0.8799,0.797,0.5471,0.0,0.0,0.4858,0.0,0.4883,0.4872,0.5024,0.5677,0.6679,0.6781,0.7481,0.8448,0.8212,0.8489,0.9094,0.8842,0.9217,0.9758,0.9758,0.9758,0.9758,0.9758,0.9335,0.8644,0.7908,0.7627,0.7546,0.7495,0.7405,0.7405,0.7402,0.7314,0.7453,0.8022,0.8093,0.8159,0.8774,0.9171,0.9507,0.9889,1.0171,1.0324,1.0466,0.7695,0.5362,0.5366,0.0,0.0,0.0,0.0,0.0,0.0,0.3475,0.3173,0.1645,0.0,0.0,0.0,0.0,0.0,0.0,0.0,0.0,0.0,0.0,0.0,0.0,0.0,0.0,0.0,0.0,0.0,0.0,0.0,0.0,0.0,0.0,0.0,0.0,0.0,0.0,0.0,0.0,0.0,0.0,0.0,0.0,0.0,0.9727,0.9754,0.9798,0.9944,1.0292,1.0382,0.9954,1.0214,1.0304,0.9883,0.9822,0.9822,0.9822,0.9822,0.9822,0.0,0.9822,0.9822,0.0,0.9822,0.9822,0.9822,0.9869,0.9648,0.9219,0.9507,0.9199,0.841,0.0,0.0,0.0,0.6646,0.7213,0.7935,0.8531,0.8971,0.9321,0.9392,0.9651,0.9961,0.9685,0.97,0.986,0.9613,0.964,0.9822,0.9822,0.9822,0.9822,0.9822,0.964,0.9451,0.9217,0.8414,0.7603,0.7493,0.7399,0.7399,0.7399,0.7659,0.7965,0.8136,0.8499,0.8858,0.9083,0.932,0.9635,0.9916,1.0171,1.0324,1.0466,0.8294,0.6524,0.6519,0.4391,0.0,0.271,0.0,0.0,0.0,0.5157,0.5238,0.5263,0.4259,0.0,0.0,0.0,0.0,0.0,0.0,0.0,0.0,0.0,0.0,0.0,0.0,0.0,0.0,0.0,0.0,0.0,0.0,0.0,0.0,0.0,0.0,0.0,0.0,0.0,0.0,0.0,0.0,0.0,0.0,0.0,0.0,0.9845,0.9859,0.9879,1.0122,1.0547,1.0728,1.0607,1.0668,1.0668,1.0243,0.9943,0.9822,0.9822,0.9822,0.0,0.9822,0.9822,0.9822,0.9822,0.9822,0.9822,0.9822,0.9822,0.97,0.9457,0.97,0.0,0.9396,0.8806,0.834,0.7988,0.8532,0.9084,0.9707,1.0232,1.049,1.0504,1.0656,1.0687,1.0612,1.0375,1.0246,1.0168,0.9917,0.9822,0.9822,0.9822,0.9822,0.9822,0.9822,0.9822,0.9802,0.969,0.8994,0.8257,0.8181,0.8089,0.7955,0.7955,0.818,0.847,0.8577,0.8871,0.9241,0.93,0.9473,0.9693,0.9926,1.0171,1.0324,1.0466,0.8758,0.7326,0.7055,0.5464,0.4257,0.42,0.0,0.0,0.0,0.0,0.0,0.0,0.6126,0.4964,0.0,0.0,0.0,0.0,0.0,0.0671,0.1086,0.035,0.0,0.0,0.0,0.0,0.0,0.0,0.0,0.0,0.0,0.0,0.0,0.0,0.0,0.0,0.0,0.0,0.0,0.0,0.0,0.0,0.0,0.0,0.0,1.0053,0.9995,1.0079,1.0747,1.0917,1.1156,1.1712,1.1281,1.0849,1.0789,1.0243,0.9822,0.9822,0.9822,0.9822,0.9822,0.0,0.0,0.9822,0.9822,0.9822,0.9822,0.9822,0.9518,0.8912,0.9457,0.9525,0.8867,0.9611,0.9997,1.0021,1.0226,1.03,1.0317,1.0449,1.0507,1.0517,1.0649,1.0622,1.0477,1.0327,1.0178,0.997,0.988,0.9822,0.9822,0.9822,0.9822,0.9822,0.9822,0.9822,0.9771,0.9486,0.9398,0.9391,0.9361,0.9154,0.8885,0.8895,0.8898,0.8988,0.919,0.9234,0.932,0.9557,0.9625,0.9703,0.993,1.0171,1.0324,1.0466,0.9216,0.79,0.7307,0.6644,0.6126,0.6107,0.7051,0.0,0.0,0.0,0.0,0.75,0.7606,0.6956,0.0,0.0,0.0,0.0,0.0,0.2097,0.2846,0.1158,0.0145,0.0,0.0,0.0,0.0,0.0,0.0,0.0,0.0,0.0,0.0,0.0,0.0,0.0,0.0,0.0,0.0,0.0,0.0,0.0,0.0,0.0,0.0,0.0,0.0,1.0921,1.166,1.2032,1.2224,1.2069,1.1784,1.1394,1.0849,1.0243,0.9822,0.9822,0.9822,0.9822,0.9822,0.9822,0.9822,0.9822,0.9822,0.9822,0.9822,0.9822,0.9697,0.9579,0.97,0.9757,0.9686,0.9908,1.0102,1.0388,1.0426,1.0504,1.0619,1.0653,1.0666,1.066,1.0578,1.0524,1.047,1.0209,1.0017,0.997,0.988,0.9822,0.9822,0.9822,0.9822,0.9822,0.9822,0.9822,0.9788,0.9612,0.9554,0.949,0.9144,0.8939,0.8905,0.9072,0.9103,0.9137,0.9289,0.9415,0.9547,0.973,0.9771,0.9825,0.995,1.0171,1.0324,1.0466,0.9817,0.9241,0.9111,0.847,0.7915,0.7802,0.815,0.8573,0.0,0.954,0.9801,1.0004,0.9706,0.8996,0.0,0.0,0.7718,0.7725,0.6527,0.4886,0.299,0.2456,0.1527,0.0,0.0,0.0,0.0,0.0,0.0,0.0,0.0,0.0,0.0,0.0,0.0,0.0,0.0,0.0,0.0,0.0,0.0,0.0,0.0,0.0,0.0,1.1556,1.1647,1.1814,1.2419,1.2686,1.2895,1.2943,1.2304,1.1696,1.1273,1.0425,0.9822,0.9822,0.9822,0.9822,0.9822,0.9822,0.9822,0.9822,0.9822,0.9822,0.9822,0.9822,0.9822,0.9822,0.9822,0.9863,0.9883,0.9953,1.0068,1.029,1.0361,1.0439,1.0521,1.0521,1.048,1.0348,1.0399,1.0276,1.008,0.9981,0.9866,0.9734,0.9652,0.9663,0.9724,0.9724,0.9768,0.9822,0.9822,0.9822,0.9795,0.9652,0.9608,0.9547,0.9235,0.914,0.9157,0.9235,0.9313,0.935,0.9449,0.9598,0.9727,0.9802,0.9822,0.9883,1.0107,1.0222,1.0344,1.0558,1.033,1.0047,0.9782,0.9216,0.8896,0.9004,0.8907,0.916,0.9936,1.02,1.0561,1.0971,1.0773,1.0225,0.9377,0.938,0.0,0.9403,0.8967,0.7358,0.4311,0.3331,0.1965,0.0,0.0,0.0,0.0,0.0,0.0282,0.0771,0.0771,0.0771,0.0771,0.0771,0.0492,0.0,0.0,0.0,0.0,0.0,0.0,0.0,0.0,0.0,0.0,1.241,1.2461,1.2683,1.3088,1.3163,1.3339,1.3929,1.2747,1.1816,1.1816,1.0607,0.9822,0.9822,0.9822,0.9822,0.9822,0.9822,0.9822,0.9822,0.9822,0.9822,0.9822,0.9822,0.9822,0.9822,0.9822,0.9822,0.9822,0.9889,0.9963,0.999,1.0185,1.0256,1.028,1.028,1.0195,0.9994,1.0164,0.9978,0.9618,0.9717,0.9618,0.9415,0.9415,0.951,0.9642,0.9642,0.972,0.9822,0.9822,0.9822,0.9795,0.9652,0.9625,0.9612,0.9459,0.9432,0.9442,0.9422,0.9432,0.9479,0.9608,0.973,0.9822,0.9822,0.9822,0.9903,1.0185,1.0263,1.0365,1.0636,1.0704,1.0495,0.983,0.9546,0.9491,0.9702,0.0,0.9712,1.0594,1.086,1.1029,1.1151,1.1275,1.1071,1.0555,1.0429,1.0432,1.0494,1.0606,0.9291,0.6317,0.4504,0.2619,0.0584,0.0511,0.0508,0.0502,0.0502,0.1069,0.1973,0.1973,0.1973,0.1973,0.1762,0.1135,0.0215,0.0072,0.0,0.0,0.0,0.0,0.0,0.0,0.0,0.0,1.2726,1.2998,1.3353,1.4015,1.3938,1.3943,1.4237,1.2891,1.1816,1.1816,1.0607,0.9822,0.9822,0.9822,0.9822,0.9822,0.9822,0.9822,0.9822,0.9822,0.9822,0.9822,0.9822,0.9822,0.9822,0.9822,0.9822,0.9822,0.9846,0.9862,0.9987,1.0011,1.0154,1.028,1.028,1.0195,0.998,0.9937,0.9781,0.9602,0.9493,0.95,0.9574,0.9574,0.9663,0.9788,0.9788,0.9802,0.9822,0.9822,0.9822,0.9795,0.9652,0.9693,0.9758,0.9615,0.9659,0.9727,0.9605,0.9659,0.9758,0.9781,0.9805,0.9822,0.9822,0.9822,0.9873,0.9987,1.0188,1.0331,1.0497,1.0633,1.053,1.0022,1.0239,1.0292,0.9839,0.0,1.0488,1.0538,1.0884,1.1138,1.1231,1.1396,1.1487,1.1435,1.1367,1.1367,1.1367,1.1387,1.0452,0.834,0.7331,0.5596,0.2986,0.2986,0.2983,0.2978,0.2978,0.3047,0.3185,0.3185,0.3185,0.3185,0.2173,0.1596,0.1381,0.0364,0.0,0.0,0.0,0.0,0.0,0.0,0.0,0.0,1.3489,1.3669,1.3899,1.4104,1.4076,1.4043,1.4137,1.2786,1.1816,1.1816,1.0607,0.9822,0.9822,0.9822,0.9822,0.9822,0.9822,0.9822,0.9822,0.9822,0.9822,0.9822,0.9822,0.9822,0.9822,0.9822,0.9822,0.9822,0.9822,0.9859,0.9866,0.9866,0.9964,1.0032,1.0032,0.9951,0.9808,0.9737,0.9574,0.9364,0.9374,0.9374,0.9371,0.9456,0.9578,0.9707,0.9707,0.9754,0.9822,0.9822,0.9822,0.9812,0.9744,0.9768,0.9808,0.9744,0.9771,0.9805,0.9741,0.9771,0.9822,0.9822,0.9822,0.9822,0.9822,0.9822,0.9866,0.9957,1.0171,1.0324,1.0466,1.0616,1.0653,1.0381,1.0453,1.0443,1.0321,1.0409,1.0544,1.0717,1.0989,1.1265,1.1277,1.1487,1.1619,1.1619,1.1619,1.1619,1.1619,1.1619,1.1181,1.0305,0.7548,0.5451,0.4146,0.3712,0.3496,0.3496,0.3496,0.3787,0.4441,0.4441,0.4441,0.4369,0.3205,0.2332,0.1604,0.0438,0.0,0.0,0.0,0.0,0.0,0.0,0.0,0.0,1.3967,1.4099,1.4194,1.4038,1.401,1.401,1.401,1.273,1.1816,1.1816,1.0607,0.9822,0.9822,0.9822,0.9822,0.9822,0.9822,0.9822,0.9822,0.9822,0.9822,0.9822,0.9822,0.9822,0.9822,0.9822,0.9822,0.9822,0.9822,0.9822,0.9822,0.9822,0.9822,0.9822,0.9822,0.9724,0.9557,0.9557,0.9401,0.9221,0.934,0.93,0.933,0.9391,0.9527,0.9659,0.9659,0.973,0.9822,0.9822,0.9822,0.9822,0.9822,0.9822,0.9822,0.9822,0.9822,0.9822,0.9822,0.9822,0.9822,0.9822,0.9822,0.9822,0.9822,0.9849,0.9897,0.9916,1.0175,1.0351,1.0429,1.0595,1.0687,1.0582,0.0,1.0426,1.0548,1.046,1.051,1.0789,1.1053,1.1209,1.1324,1.1508,1.1619,1.1619,1.1619,1.1619,1.1619,1.1619,1.1619,1.1619,0.784,0.5594,0.5233,0.4657,0.4296,0.4296,0.4296,0.4805,0.5606,0.5606,0.5606,0.5533,0.4369,0.335,0.2404,0.1312,0.0802,0.0802,0.0511,0.0365,0.0365,0.0073,0.0,0.0,1.3717,1.3887,1.4029,1.4014,1.401,1.401,1.401,1.273,1.1816,1.1816,1.0607,0.9822,0.9822,0.9822,0.9822,0.9822,0.9822,0.9822,0.9822,0.9822,0.9822,0.9822,0.9822,0.9822,0.9822,0.9822,0.9822,0.9822,0.9822,0.9822,0.9822,0.9822,0.9822,0.9822,0.9822,0.9663,0.9398,0.9398,0.9303,0.921,0.9221,0.9334,0.9578,0.9588,0.9683,0.9805,0.9805,0.9812,0.9822,0.9822,0.9822,0.9822,0.9822,0.9822,0.9822,0.9822,0.9822,0.9822,0.9822,0.9822,0.9822,0.9822,0.9822,0.9822,0.9822,0.9869,0.9933,0.9866,1.0178,1.0439,1.0317,1.0527,1.0585,1.0231,0.0,0.0,1.0092,1.0439,1.07,1.0731,1.0989,1.1168,1.1179,1.1447,1.1619,1.1619,1.1619,1.1619,1.1619,1.1619,1.1619,1.1619,0.9879,0.8288,0.6843,0.6771,0.6771,0.6771,0.6771,0.6771,0.6843,0.6843,0.6843,0.6771,0.5606,0.5023,0.4878,0.3714,0.3278,0.3132,0.204,0.1604,0.1458,0.0365,0.0,0.0,1.3688,1.3755,1.3811,1.3811,1.3811,1.369,1.3262,1.2405,1.1635,1.1212,1.0365,0.9822,0.9822,0.9822,0.9822,0.9822,0.9822,0.9822,0.9822,0.9822,0.9822,0.9822,0.9822,0.9822,0.9822,0.9822,0.9822,0.9822,0.9822,0.9822,0.9822,0.9822,0.9822,0.9822,0.9822,0.9758,0.9649,0.9561,0.949,0.9435,0.9435,0.9507,0.9618,0.9707,0.9774,0.9822,0.9822,0.9822,0.9822,0.9822,0.9822,0.9822,0.9822,0.9822,0.9822,0.9822,0.9822,0.9822,0.9822,0.9822,0.9822,0.9822,0.9822,0.9822,0.9822,0.9876,0.9943,0.9852,1.0178,1.0419,1.0181,1.0456,1.0633,1.0368,0.0,1.066,1.049,1.0612,1.0755,1.0782,1.0962,1.1101,1.1287,1.1409,1.1518,1.1613,1.1619,1.1619,1.1619,1.1531,1.1304,1.0959,1.0236,0.9658,0.9155,0.8652,0.8145,0.7709,0.7709,0.7421,0.699,0.699,0.699,0.6916,0.5751,0.5168,0.5096,0.4005,0.3496,0.3423,0.2986,0.2331,0.1676,0.1239,0.0583,0.0,1.3688,1.3688,1.3688,1.3688,1.3688,1.3449,1.2779,1.2178,1.1575,1.091,1.0243,0.9822,0.9822,0.9822,0.9822,0.9822,0.9822,0.9822,0.9822,0.9822,0.9822,0.9822,0.9822,0.9822,0.9822,0.9822,0.9822,0.9822,0.9822,0.9822,0.9822,0.9822,0.9822,0.9822,0.9822,0.9795,0.9747,0.9649,0.9608,0.9608,0.9608,0.9635,0.9686,0.9785,0.9822,0.9822,0.9822,0.9822,0.9822,0.9822,0.9822,0.9822,0.9822,0.9822,0.9822,0.9822,0.9822,0.9822,0.9822,0.9822,0.9822,0.9822,0.9822,0.9822,0.9822,0.9978,1.0063,0.9863,1.0215,1.0456,1.0051,1.0351,1.067,1.0517,1.0619,1.0721,1.0721,1.0721,1.0758,1.0796,1.085,1.0961,1.1233,1.1335,1.1436,1.1541,1.1592,1.1619,1.1619,1.1518,1.1294,1.0887,1.073,1.0727,1.0815,0.9807,0.9013,0.8504,0.8213,0.7853,0.7349,0.7133,0.699,0.6988,0.6116,0.5751,0.5678,0.495,0.4587,0.4587,0.4151,0.3496,0.2768,0.2404,0.1749,0.1094,1.3688,1.3688,1.3688,1.3688,1.3688,1.3449,1.2779,1.2178,1.1575,1.091,1.0243,0.9822,0.9822,0.9822,0.9822,0.9822,0.9822,0.9822,0.9822,0.9822,0.9822,0.9822,0.9822,0.9822,0.9822,0.9822,0.9822,0.9822,0.9822,0.9822,0.9822,0.9822,0.9822,0.9819,0.9819,0.9741,0.9608,0.9608,0.9608,0.9612,0.9612,0.9696,0.9822,0.9822,0.9822,0.9822,0.9822,0.9822,0.9822,0.9822,0.9822,0.9822,0.9822,0.9822,0.9822,0.9822,0.9822,0.9822,0.9822,0.9822,0.9822,0.9822,0.9822,0.9822,0.9822,1.0059,1.0192,0.9883,1.03,1.0582,1.0068,1.0351,1.067,1.0517,1.0619,1.0721,1.0721,1.0721,1.0721,1.0721,1.0786,1.088,1.088,1.1216,1.1389,1.1392,1.1531,1.1616,1.1616,1.1616,1.1616,1.1616,1.1616,1.1616,1.1619,1.0098,0.9304,0.9304,0.8504,0.814,0.8068,0.7349,0.699,0.699,0.699,0.699,0.699,0.699,0.699,0.6916,0.5678,0.5241,0.5096,0.3931,0.3496,0.3496,1.3688,1.3688,1.3688,1.3688,1.3688,1.3449,1.2779,1.2178,1.1575,1.091,1.0243,0.9822,0.9822,0.9822,0.9822,0.9822,0.9822,0.9822,0.9822,0.9822,0.9822,0.9822,0.9822,0.9822,0.9822,0.9822,0.9822,0.9822,0.9822,0.9822,0.9822,0.9822,0.9768,0.9673,0.9673,0.9649,0.9608,0.9608,0.9666,0.9758,0.9758,0.9785,0.9822,0.9822,0.9822,0.9822,0.9822,0.9822,0.9822,0.9822,0.9822,0.9822,0.9822,0.9822,0.9822,0.9822,0.9822,0.9822,0.9822,0.9822,0.9822,0.9822,0.9822,0.9822,0.9822,0.9975,1.0,0.9863,1.0215,1.0456,1.0051,1.0351,1.067,1.0517,1.0619,1.0721,1.0721,1.0721,1.0721,1.0721,1.0761,1.0829,1.087,1.1118,1.1274,1.1382,1.1433,1.1413,1.1304,1.1301,1.1348,1.1457,1.146,1.1511,1.1616,1.1113,1.0675,1.0167,0.9876,0.9516,0.8941,0.8724,0.829,0.7781,0.7781,0.7494,0.7061,0.7566,0.7781,0.7781,0.7998,0.7559,0.6831,0.6467,0.5813,0.5087,1.3688,1.3688,1.3688,1.3688,1.3688,1.3449,1.2779,1.2178,1.1575,1.091,1.0243,0.9822,0.9822,0.9822,0.9822,0.9822,0.9822,0.9822,0.9822,0.9822,0.9822,0.9822,0.9822,0.9822,0.9822,0.9822,0.9822,0.9822,0.9822,0.9822,0.9822,0.9822,0.9744,0.9612,0.9666,0.9663,0.9612,0.9669,0.9744,0.9822,0.9822,0.9822,0.9822,0.9822,0.9822,0.9822,0.9822,0.9822,0.9822,0.9822,0.9822,0.9822,0.9822,0.9822,0.9822,0.9822,0.9822,0.9822,0.9822,0.9822,0.9822,0.9822,0.9822,0.9822,0.9822,0.9876,0.9943,0.9852,1.0134,1.0317,0.9953,1.0327,1.0582,1.0432,1.0582,1.0721,1.0721,1.0721,1.0721,1.0721,1.0721,1.0758,1.0782,1.1043,1.1226,1.1379,1.1392,1.1352,1.1257,1.1253,1.1321,1.1477,1.148,1.1528,1.1616,1.1619,1.14,1.0962,1.0671,1.0239,0.9735,0.9449,0.9013,0.8577,0.8577,0.829,0.793,0.836,0.8577,0.8649,0.9085,0.8866,0.8283,0.8283,0.7847,0.7189,1.3688,1.3688,1.3688,1.3688,1.3688,1.3504,1.29,1.2298,1.1635,1.097,1.0304,0.9883,0.9822,0.9822,0.9822,0.9822,0.9822,0.9822,0.9822,0.9822,0.9822,0.9822,0.9822,0.9822,0.9822,0.9822,0.9822,0.9822,0.9822,0.9815,0.9802,0.9802,0.9727,0.9595,0.9724,0.9717,0.9618,0.9747,0.9808,0.9822,0.9822,0.9822,0.9822,0.9822,0.9822,0.9822,0.9822,0.9822,0.9822,0.9822,0.9822,0.9822,0.9822,0.9822,0.9822,0.9822,0.9822,0.9822,0.9822,0.9822,0.9822,0.9822,0.9822,0.9822,0.9822,0.9876,0.9947,0.9869,1.0086,1.0212,0.993,1.0226,1.047,1.0341,1.0544,1.0721,1.0721,1.0721,1.0721,1.0721,1.0721,1.0721,1.0721,1.0975,1.1212,1.1379,1.1379,1.1369,1.1369,1.1385,1.1453,1.1596,1.1613,1.1619,1.1619,1.1619,1.1619,1.1619,1.089,1.0599,1.0599,0.981,0.9449,0.9374,0.9374,0.9377,0.9304,0.9377,0.9374,0.9449,0.9449,0.9521,0.9521,0.9521,0.9521,0.9521,1.3688,1.3688,1.3688,1.3688,1.3688,1.3629,1.3509,1.2904,1.2298,1.1635,1.097,1.0365,0.9883,0.9822,0.9822,0.9822,0.9822,0.9822,0.9822,0.9822,0.9822,0.9822,0.9822,0.9822,0.9822,0.9822,0.9822,0.9822,0.9822,0.9764,0.9656,0.9656,0.9574,0.9432,0.9462,0.9527,0.9612,0.9642,0.972,0.9822,0.9822,0.9822,0.9822,0.9822,0.9822,0.9822,0.9822,0.9822,0.9822,0.9822,0.9822,0.9822,0.9822,0.9822,0.9822,0.9822,0.9822,0.9822,0.9822,0.9822,0.9822,0.9822,0.9822,0.9822,0.9822,0.9876,0.9977,0.9947,1.0236,1.0426,1.0358,1.0524,1.066,1.0629,1.0677,1.0721,1.0721,1.0721,1.0721,1.0721,1.0721,1.0721,1.0721,1.0887,1.1104,1.1372,1.128,1.1212,1.1212,1.1324,1.1406,1.144,1.1555,1.1619,1.1619,1.1619,1.1619,1.1619,1.1472,1.1329,1.1329,1.1185,1.0822,1.0239,1.0239,0.9879,0.9377,0.9951,1.0239,1.0311,1.0894,1.1113,1.1113,1.1113,1.1113,1.1038,1.3688,1.3688,1.3688,1.3688,1.3688,1.3688,1.3688,1.3144,1.2479,1.1877,1.1514,1.091,0.9883,1.0061,1.0122,0.9819,0.9822,0.9822,0.9822,0.9822,0.9822,0.9822,0.9822,0.9822,0.9822,0.9822,0.9822,0.9822,0.9822,0.9747,0.9608,0.9608,0.9527,0.9384,0.9456,0.9534,0.9615,0.9683,0.9754,0.9822,0.9822,0.9822,0.9822,0.9822,0.9822,0.9822,0.9822,0.9822,0.9822,0.9822,0.9822,0.9822,0.9822,0.9822,0.9822,0.9822,0.9822,0.9822,0.9822,1.0117,1.0418,1.0418,1.0721,1.0816,1.0067,0.993,1.0007,1.0144,1.0283,1.0392,1.0392,1.051,1.0612,1.0612,1.0673,1.0721,1.0721,1.0721,1.0721,1.0721,1.0721,1.0775,1.0917,1.107,1.1226,1.1379,1.1318,1.127,1.127,1.1348,1.1423,1.1497,1.1575,1.1619,1.1619,1.1619,1.1619,1.1619,1.1619,1.1619,1.1619,1.1619,1.14,1.1034,1.1034,1.0822,1.0462,1.0822,1.1034,1.1038,1.1472,1.1619,1.1619,1.1619,1.1619,1.1548,1.3688,1.3688,1.3688,1.3688,1.3808,1.3868,1.3748,1.3499,1.3015,1.2057,1.2118,1.1631,1.0122,1.0365,1.0425,0.9822,0.9822,0.9822,0.9822,0.9822,0.9822,0.9822,0.9822,0.9822,0.9822,0.9822,0.9822,0.9822,0.9822,0.9734,0.9571,0.9598,0.9527,0.9388,0.954,0.9625,0.9652,0.9771,0.9822,0.9822,0.9822,0.9822,0.9822,0.9822,0.9822,0.9822,0.9822,0.9822,0.9822,0.9822,0.9822,0.9822,0.9822,0.9822,0.9822,0.9822,0.9822,0.9825,0.9974,1.0566,1.1112,1.1262,1.1873,1.2008,1.0587,1.0249,1.0287,1.0354,1.0337,1.0354,1.0354,1.0453,1.0531,1.0531,1.0636,1.0721,1.0721,1.0721,1.0721,1.0721,1.0744,1.0877,1.1172,1.1294,1.1372,1.1426,1.1406,1.1402,1.1426,1.143,1.1487,1.1616,1.1619,1.1619,1.1619,1.1619,1.1619,1.1619,1.1619,1.1619,1.1619,1.1619,1.1619,1.1619,1.1619,1.1619,1.1619,1.1619,1.1619,1.1619,1.1619,1.1619,1.1619,1.1619,1.1619,1.1619,1.3688,1.3688,1.3688,1.3688,1.4341,1.4639,1.3808,1.4981,1.5149,1.2895,1.325,1.3006,1.0906,1.0243,0.9883,0.9822,0.9822,0.9822,0.9822,0.9822,0.9822,0.9822,0.9822,0.9822,0.9822,0.9822,0.9822,0.9822,0.9822,0.968,0.9415,0.9547,0.9527,0.9388,0.954,0.968,0.9791,0.9812,0.9822,0.9822,0.9822,0.9822,0.9822,0.9822,0.9822,0.9822,0.9822,0.9822,0.9822,0.9822,0.9822,0.9822,0.9822,0.9822,0.9822,0.9822,0.9822,0.9971,1.0721,1.1024,1.1262,1.2031,1.2335,1.2198,1.1562,1.1399,1.1213,1.0589,1.0568,1.066,1.066,1.0677,1.0687,1.0687,1.0707,1.0721,1.0721,1.0721,1.0721,1.0721,1.0769,1.1033,1.1331,1.126,1.1304,1.1569,1.1467,1.145,1.1582,1.1589,1.1599,1.1619,1.1619,1.1619,1.1619,1.1619,1.1619,1.1619,1.1619,1.1619,1.1619,1.1619,1.1619,1.1619,1.1619,1.1619,1.1619,1.1619,1.1619,1.1619,1.1619,1.1619,1.1619,1.1619,1.1619,1.1619,1.3688,1.4102,1.4461,1.4461,1.5283,1.5752,1.5337,1.5983,1.5972,1.449,1.4966,1.4609,1.2402,1.1088,1.0365,1.0365,1.0004,0.9822,0.9822,0.9822,0.9822,0.9822,0.9822,0.9822,0.9822,1.066,1.1137,1.1137,1.0516,0.9947,0.9384,0.9799,0.9796,0.9388,0.954,0.969,0.9822,0.9822,0.9822,0.9822,0.9822,0.9822,0.9822,0.9822,0.9822,0.9822,1.0243,1.0365,1.0365,1.0365,1.0122,0.9822,0.9822,0.9822,1.0001,1.0899,1.0781,1.064,1.2086,1.2403,1.247,1.2974,1.3481,1.3646,1.3015,1.2902,1.2445,1.0947,1.0673,1.0721,1.0721,1.0721,1.0721,1.0721,1.0721,1.0721,1.0721,1.0721,1.0751,1.0769,1.0978,1.1151,1.1369,1.1406,1.1474,1.1609,1.1555,1.1548,1.1616,1.1619,1.1619,1.1619,1.1619,1.1619,1.1619,1.1619,1.1619,1.1619,1.1619,1.1619,1.1619,1.1619,1.1619,1.1619,1.1619,1.1619,1.1619,1.1619,1.1619,1.1619,1.1619,1.1619,1.1619,1.1619,1.1619,1.1619]}]]